[[{"header":{"parameterUnit":"m.s-1","parameterCategory":1,"la1":30.6,"la2":28.766,"lo1":-90.7593,"lo2":-88.6598,"dy":0.0162,"dx":0.0183,"nx":116,"ny":114,"refTime":"2024-05-26T06:00:00:Z","depth":0,"parameterNumber":2,"parameterNumberName":"U-component_of_WINDS"},"data":[0.0,0.0,0.0,0.0,0.0,0.0,0.0,0.0,0.0,0.0,0.0,0.0,0.0,0.0,0.0,0.0,0.0,0.0,0.0,0.0,0.0,0.0,0.0,0.0,0.0,0.0,0.0,0.0,0.0,0.0,0.0,0.0,0.0,0.0,0.0,0.0,0.0,0.0,0.0,0.0,0.0,0.0,0.0,0.0,0.0,0.0,0.0,0.0,0.0,0.0,0.0,0.0,0.0,0.0,0.0,0.0,0.0,0.0,0.0,0.0,0.0,0.0,0.0,0.0,0.0,0.0,0.0,0.0,0.0,0.0,0.0,0.0,0.0,0.0,0.0,0.0,0.0,0.0,0.0,0.0,0.0,0.0,0.0,0.0,0.0,0.0,0.0,0.0,0.0,0.0,0.0,0.0,0.0,0.0,0.0,0.0,0.0,0.0,0.0,0.0,0.0,0.0,0.0,0.0,0.0,0.0,0.0,0.0,0.0,0.0,0.0,0.0,0.0,0.0,0.0,0.0,0.0,0.0,0.0,0.0,0.0,0.0,0.0,0.0,0.0,0.0,0.0,0.0,0.0,0.0,0.0,0.0,0.0,0.0,0.0,0.0,0.0,0.0,0.0,0.0,0.0,0.0,0.0,0.0,0.0,0.0,0.0,0.0,0.0,0.0,0.0,0.0,0.0,0.0,0.0,0.0,0.0,0.0,0.0,0.0,0.0,0.0,0.0,0.0,0.0,0.0,0.0,0.0,0.0,0.0,0.0,0.0,0.0,0.0,0.0,0.0,0.0,0.0,0.0,0.0,0.0,0.0,0.0,0.0,0.0,0.0,0.0,0.0,0.0,0.0,0.0,0.0,0.0,0.0,0.0,0.0,0.0,0.0,0.0,0.0,0.0,0.0,0.0,0.0,0.0,0.0,0.0,0.0,0.0,0.0,0.0,0.0,0.0,0.0,0.0,0.0,0.0,0.0,0.0,0.0,0.0,0.0,0.0,0.0,0.0,0.0,0.0,0.0,0.0,0.0,0.0,0.0,0.0,0.0,0.0,0.0,0.0,0.0,0.0,0.0,0.0,0.0,0.0,0.0,0.0,0.0,0.0,0.0,0.0,0.0,0.0,0.0,0.0,0.0,0.0,0.0,0.0,0.0,0.0,0.0,0.0,0.0,0.0,0.0,0.0,0.0,0.0,0.0,0.0,0.0,0.0,0.0,0.0,0.0,0.0,0.0,0.0,0.0,0.0,0.0,0.0,0.0,0.0,0.0,0.0,0.0,0.0,0.0,0.0,0.0,0.0,0.0,0.0,0.0,0.0,0.0,0.0,0.0,0.0,0.0,0.0,0.0,0.0,0.0,0.0,0.0,0.0,0.0,0.0,0.0,0.0,0.0,0.0,0.0,0.0,0.0,0.0,0.0,0.0,0.0,0.0,0.0,0.0,0.0,0.0,0.0,0.0,0.0,0.0,0.0,0.0,0.0,0.0,0.0,0.0,0.0,0.0,0.0,0.0,0.0,0.0,0.0,0.0,0.0,0.0,0.0,0.0,0.0,0.0,0.0,0.0,0.0,0.0,0.0,0.0,0.0,0.0,0.0,0.0,0.0,0.0,0.0,0.0,0.0,0.0,0.0,0.0,0.0,0.0,0.0,0.0,0.0,0.0,0.0,0.0,0.0,0.0,0.0,0.0,0.0,0.0,0.0,0.0,0.0,0.0,0.0,0.0,0.0,0.0,0.0,0.0,0.0,0.0,0.0,0.0,0.0,0.0,0.0,0.0,0.0,0.0,0.0,0.0,0.0,0.0,0.0,0.0,0.0,0.0,0.0,0.0,0.0,0.0,0.0,0.0,0.0,0.0,0.0,0.0,0.0,0.0,0.0,0.0,0.0,0.0,0.0,0.0,0.0,0.0,0.0,0.0,0.0,0.0,0.0,0.0,0.0,0.0,0.0,0.0,0.0,0.0,0.0,0.0,0.0,0.0,0.0,0.0,0.0,0.0,0.0,0.0,0.0,0.0,0.0,0.0,0.0,0.0,0.0,0.0,0.0,0.0,0.0,0.0,0.0,0.0,0.0,0.0,0.0,0.0,0.0,0.0,0.0,0.0,0.0,0.0,0.0,0.0,0.0,0.0,0.0,0.0,0.0,0.0,0.0,0.0,0.0,0.0,0.0,0.0,0.0,0.0,0.0,0.0,0.0,0.0,0.0,0.0,0.0,0.0,0.0,0.0,0.0,0.0,0.0,0.0,0.0,0.0,0.0,0.0,0.0,0.0,0.0,0.0,0.0,0.0,0.0,0.0,0.0,0.0,0.0,0.0,0.0,0.0,0.0,0.0,0.0,0.0,0.0,0.0,0.0,0.0,0.0,0.0,0.0,0.0,0.0,0.0,0.0,0.0,0.0,0.0,0.0,0.0,0.0,0.0,0.0,0.0,0.0,0.0,0.0,0.0,0.0,0.0,0.0,0.0,0.0,0.0,0.0,0.0,0.0,0.0,0.0,0.0,0.0,0.0,0.0,0.0,0.0,0.0,0.0,0.0,0.0,0.0,0.0,0.0,0.0,0.0,0.0,0.0,0.0,0.0,0.0,0.0,0.0,0.0,0.0,0.0,0.0,0.0,0.0,0.0,0.0,0.0,0.0,0.0,0.0,0.0,0.0,0.0,0.0,0.0,0.0,0.0,0.0,0.0,0.0,0.0,0.0,0.0,0.0,0.0,0.0,0.0,0.0,0.0,0.0,0.0,0.0,0.0,0.0,0.0,0.0,0.0,0.0,0.0,0.0,0.0,0.0,0.0,0.0,0.0,0.0,0.0,0.0,0.0,0.0,0.0,0.0,0.0,0.0,0.0,0.0,0.0,0.0,0.0,0.0,0.0,0.0,0.0,0.0,0.0,0.0,0.0,0.0,0.0,0.0,0.0,0.0,0.0,0.0,0.0,0.0,0.0,0.0,0.0,0.0,0.0,0.0,0.0,0.0,0.0,0.0,0.0,0.0,0.0,0.0,0.0,0.0,0.0,0.0,0.0,0.0,0.0,0.0,0.0,0.0,0.0,0.0,0.0,0.0,0.0,0.0,0.0,0.0,0.0,0.0,0.0,0.0,0.0,0.0,0.0,0.0,0.0,0.0,0.0,0.0,0.0,0.0,0.0,0.0,0.0,0.0,0.0,0.0,0.0,0.0,0.0,0.0,0.0,0.0,0.0,0.0,0.0,0.0,0.0,0.0,0.0,0.0,0.0,0.0,0.0,0.0,0.0,0.0,0.0,0.0,0.0,0.0,0.0,0.0,0.0,0.0,0.0,0.0,0.0,0.0,0.0,0.0,0.0,0.0,0.0,0.0,0.0,0.0,0.0,0.0,0.0,0.0,0.0,0.0,0.0,0.0,0.0,0.0,0.0,0.0,0.0,0.0,0.0,0.0,0.0,0.0,0.0,0.0,0.0,0.0,0.0,0.0,0.0,0.0,0.0,0.0,0.0,0.0,0.0,0.0,0.0,0.0,0.0,0.0,0.0,0.0,0.0,0.0,0.0,0.0,0.0,0.0,0.0,0.0,0.0,0.0,0.0,0.0,0.0,0.0,0.0,0.0,0.0,0.0,0.0,0.0,0.0,0.0,0.0,0.0,0.0,0.0,0.0,0.0,0.0,0.0,0.0,0.0,0.0,0.0,0.0,0.0,0.0,0.0,0.0,0.0,0.0,0.0,0.0,0.0,0.0,0.0,0.0,0.0,0.0,0.0,0.0,0.0,0.0,0.0,0.0,0.0,0.0,0.0,0.0,0.0,0.0,0.0,0.0,0.0,0.0,0.0,0.0,0.0,0.0,0.0,0.0,0.0,0.0,0.0,0.0,0.0,0.0,0.0,0.0,0.0,0.0,0.0,0.0,0.0,0.0,0.0,0.0,0.0,0.0,0.0,0.0,0.0,0.0,0.0,0.0,0.0,0.0,0.0,0.0,0.0,0.0,0.0,0.0,0.0,0.0,0.0,0.0,0.0,0.0,0.0,0.0,0.0,0.0,0.0,0.0,0.0,0.0,0.0,0.0,0.0,0.0,0.0,0.0,0.0,0.0,0.0,0.0,0.0,0.0,0.0,0.0,0.0,0.0,0.0,0.0,0.0,0.0,0.0,0.0,0.0,0.0,0.0,0.0,0.0,0.0,0.0,0.0,0.0,0.0,0.0,0.0,0.0,0.0,0.0,0.0,0.0,0.0,0.0,0.0,0.0,0.0,0.0,0.0,0.0,0.0,0.0,0.0,0.0,0.0,0.0,0.0,0.0,0.0,0.0,0.0,0.0,0.0,0.0,0.0,0.0,0.0,0.0,0.0,0.0,0.0,0.0,0.0,0.0,0.0,0.0,0.0,0.0,0.0,0.0,0.0,0.0,0.0,0.0,0.0,0.0,0.0,0.0,0.0,0.0,0.0,0.0,0.0,0.0,0.0,0.0,0.0,0.0,0.0,0.0,0.0,0.0,0.0,0.0,0.0,0.0,0.0,0.0,0.0,0.0,0.0,0.0,0.0,0.0,0.0,0.0,0.0,0.0,0.0,0.0,0.0,0.0,0.0,0.0,0.0,0.0,0.0,0.0,0.0,0.0,0.0,0.0,0.0,0.0,0.0,0.0,0.0,0.0,0.0,0.0,0.0,0.0,0.0,0.0,0.0,0.0,0.0,0.0,0.0,0.0,0.0,0.0,0.0,0.0,0.0,0.0,0.0,0.0,0.0,0.0,0.0,0.0,0.0,0.0,0.0,0.0,0.0,0.0,0.0,0.0,0.0,0.0,0.0,0.0,0.0,0.0,0.0,0.0,0.0,0.0,0.0,0.0,0.0,0.0,0.0,0.0,0.0,0.0,0.0,0.0,0.0,0.0,0.0,0.0,0.0,0.0,0.0,0.0,0.0,0.0,0.0,0.0,0.0,0.0,0.0,0.0,0.0,0.0,0.0,0.0,0.0,0.0,0.0,0.0,0.0,0.0,0.0,0.0,0.0,0.0,0.0,0.0,0.0,0.0,0.0,0.0,0.0,0.0,0.0,0.0,0.0,0.0,0.0,0.0,0.0,0.0,0.0,0.0,0.0,0.0,0.0,0.0,0.0,0.0,0.0,0.0,0.0,0.0,0.0,0.0,0.0,0.0,0.0,0.0,0.0,0.0,0.0,0.0,0.0,0.0,0.0,0.0,0.0,0.0,0.0,0.0,0.0,0.0,0.0,0.0,0.0,0.0,0.0,0.0,0.0,0.0,0.0,0.0,0.0,0.0,0.0,0.0,0.0,0.0,0.0,0.0,0.0,0.0,0.0,0.0,0.0,0.0,0.0,0.0,0.0,0.0,0.0,0.0,0.0,0.0,0.0,0.0,0.0,0.0,0.0,0.0,0.0,0.0,0.0,0.0,0.0,0.0,0.0,0.0,0.0,0.0,0.0,0.0,0.0,0.0,0.0,0.0,0.0,0.0,0.0,0.0,0.0,0.0,0.0,0.0,0.0,0.0,0.0,0.0,0.0,0.0,0.0,0.0,0.0,0.0,0.0,0.0,0.0,0.0,0.0,0.0,0.0,0.0,0.0,0.0,0.0,0.0,0.0,0.0,0.0,0.0,0.0,0.0,0.0,0.0,0.0,0.0,0.0,0.0,0.0,0.0,0.0,0.0,0.0,0.0,0.0,0.0,0.0,0.0,0.0,0.0,0.0,0.0,0.0,0.0,0.0,0.0,0.0,0.0,0.0,0.0,0.0,0.0,0.0,0.0,0.0,0.0,0.0,0.0,0.0,0.0,0.0,0.0,0.0,0.0,0.0,0.0,0.0,0.0,0.0,0.0,0.0,0.0,0.0,0.0,0.0,0.0,0.0,0.0,0.0,0.0,0.0,0.0,0.0,0.0,0.0,0.0,0.0,0.0,0.0,0.0,0.0,0.0,0.0,0.0,0.0,0.0,0.0,0.0,0.0,0.0,0.0,0.0,0.0,0.0,0.0,0.0,0.0,0.0,0.0,0.0,0.0,0.0,0.0,0.0,0.0,0.0,0.0,0.0,0.0,0.0,0.0,0.0,0.0,0.0,0.0,0.0,0.0,0.0,0.0,0.0,0.0,0.0,0.0,0.0,0.0,0.0,0.0,0.0,-2.0298,0.0,0.0,0.0,0.0,0.0,0.0,0.0,0.0,0.0,0.0,0.0,0.0,0.0,0.0,0.0,0.0,0.0,0.0,0.0,0.0,0.0,0.0,0.0,0.0,-1.3194,-1.3921,-1.3921,-1.3815,-1.3727,-1.3727,0.0,0.0,0.0,0.0,0.0,-1.186,-1.098,-1.1002,-1.1972,-1.2164,-1.2909,-1.4175,-1.359,-1.2799,-1.1877,0.0,0.0,0.0,0.0,0.0,0.0,0.0,0.0,0.0,0.0,0.0,0.0,0.0,0.0,0.0,0.0,0.0,0.0,0.0,0.0,0.0,0.0,0.0,0.0,0.0,0.0,0.0,0.0,0.0,0.0,0.0,0.0,0.0,0.0,0.0,0.0,0.0,0.0,0.0,0.0,0.0,0.0,0.0,0.0,0.0,0.0,0.0,0.0,0.0,0.0,0.0,0.0,0.0,0.0,0.0,0.0,0.0,0.0,0.0,0.0,0.0,0.0,0.0,0.0,0.0,0.0,0.0,0.0,0.0,0.0,0.0,-2.1046,0.0,0.0,0.0,0.0,0.0,0.0,0.0,0.0,0.0,0.0,0.0,0.0,0.0,0.0,0.0,0.0,0.0,0.0,0.0,0.0,0.0,-1.1451,-1.2381,-1.3701,-1.4596,-1.4868,-1.4563,-1.4347,-1.4347,-1.3665,0.0,0.0,0.0,-1.2924,-1.2778,-1.1958,-1.2432,-1.4216,-1.4338,-1.542,-1.7443,-1.7493,-1.6458,-1.4496,-1.3599,0.0,0.0,0.0,0.0,0.0,0.0,0.0,0.0,0.0,0.0,0.0,0.0,0.0,0.0,0.0,0.0,0.0,0.0,0.0,0.0,0.0,0.0,0.0,0.0,0.0,0.0,0.0,0.0,0.0,0.0,0.0,0.0,0.0,0.0,0.0,0.0,0.0,0.0,0.0,0.0,0.0,0.0,0.0,0.0,0.0,0.0,0.0,0.0,0.0,0.0,0.0,0.0,0.0,0.0,0.0,0.0,0.0,0.0,0.0,0.0,0.0,0.0,0.0,-2.7714,-2.8081,-2.7457,-2.7687,-2.7191,-2.6039,-2.4541,-2.3074,-2.1813,-2.2158,0.0,0.0,0.0,0.0,0.0,0.0,0.0,0.0,0.0,0.0,0.0,0.0,0.0,0.0,0.0,0.0,0.0,0.0,0.0,-1.1637,-1.3108,-1.4005,-1.502,-1.6309,-1.5795,-1.5404,-1.5404,-1.471,0.0,0.0,-1.2887,-1.2665,-1.1982,-1.2599,-1.341,-1.4382,-1.6702,-1.8293,-1.9184,-1.9478,-1.9428,-1.9056,-1.7455,-1.6507,-1.6021,0.0,0.0,0.0,0.0,0.0,0.0,0.0,0.0,0.0,0.0,0.0,0.0,0.0,0.0,0.0,0.0,0.0,0.0,0.0,0.0,0.0,0.0,0.0,0.0,0.0,0.0,0.0,0.0,0.0,0.0,0.0,0.0,0.0,0.0,0.0,0.0,0.0,0.0,0.0,0.0,0.0,-2.1503,-2.2551,0.0,0.0,0.0,0.0,0.0,0.0,0.0,0.0,0.0,0.0,0.0,0.0,0.0,-2.7078,-2.8213,-2.9108,-2.9567,-2.9586,-3.0485,-3.087,-3.0742,-3.0112,-2.9381,-2.861,-2.8299,0.0,-2.3981,-2.2784,0.0,0.0,0.0,0.0,0.0,0.0,0.0,0.0,0.0,0.0,0.0,0.0,0.0,0.0,0.0,0.0,0.0,0.0,0.0,0.0,0.0,-1.5157,-1.6147,-1.7117,-1.6815,-1.6402,-1.6016,-1.4953,-1.3914,-1.2968,-1.2835,-1.2783,-1.2816,-1.3656,-1.5174,-1.7378,-1.9295,-2.0517,-2.1088,-2.1214,-2.1285,-2.1252,-2.0497,-1.9319,-1.7833,-1.5996,0.0,0.0,0.0,0.0,0.0,0.0,0.0,0.0,0.0,0.0,0.0,0.0,0.0,0.0,0.0,0.0,0.0,0.0,0.0,0.0,0.0,0.0,0.0,0.0,0.0,0.0,0.0,0.0,0.0,0.0,0.0,0.0,0.0,0.0,0.0,0.0,0.0,0.0,0.0,-2.1602,-2.3335,-2.3683,-2.4091,-2.4024,0.0,0.0,0.0,0.0,0.0,0.0,0.0,0.0,0.0,-2.8142,-2.8535,-2.9016,-2.9677,-3.0467,-3.087,-3.087,-3.1696,-3.1843,-3.1403,-3.1271,-3.0656,-2.9685,-2.9408,-2.8418,-2.6894,-2.5389,-2.4272,-2.3427,0.0,0.0,0.0,0.0,-2.078,-2.0413,0.0,0.0,0.0,0.0,0.0,0.0,0.0,0.0,0.0,0.0,0.0,0.0,-1.5237,-1.62,-1.7082,-1.8118,-1.7883,-1.747,-1.6955,-1.563,-1.4428,-1.3482,-1.3236,-1.3193,-1.3398,-1.487,-1.6963,-1.9794,-2.1106,-2.1974,-2.231,-2.231,-2.231,-2.231,-2.231,-2.14,-1.9733,-1.7817,-1.6601,0.0,0.0,0.0,0.0,0.0,0.0,0.0,0.0,0.0,0.0,0.0,0.0,0.0,0.0,0.0,0.0,0.0,0.0,0.0,0.0,0.0,0.0,0.0,0.0,0.0,0.0,0.0,0.0,0.0,0.0,0.0,0.0,0.0,0.0,0.0,0.0,0.0,0.0,-2.301,-2.4604,-2.4584,-2.5492,-2.5679,0.0,0.0,0.0,0.0,0.0,0.0,-2.8264,-2.8152,-2.8783,-3.0394,-3.0894,-3.1329,-3.1751,-3.2339,-3.2651,-3.2651,-3.3036,-3.2908,-3.232,-3.2411,-3.1858,-3.0769,-3.0429,-2.9885,-2.9144,-2.7621,-2.6218,-2.4997,-2.4239,-2.3849,-2.3634,-2.3169,-2.2785,-2.2467,0.0,0.0,0.0,0.0,0.0,0.0,0.0,0.0,0.0,0.0,0.0,-1.3844,-1.6349,-1.6674,-1.7523,-1.9604,-1.9128,-1.8702,0.0,0.0,-1.5855,-1.4208,-1.4366,-1.3983,-1.2862,-1.612,-1.8522,-1.9994,-2.1504,-2.2282,-2.231,-2.231,-2.231,-2.231,-2.231,-2.2385,-2.2392,-2.0893,-1.9664,-1.8501,0.0,0.0,0.0,0.0,0.0,0.0,0.0,0.0,0.0,0.0,0.0,0.0,0.0,0.0,0.0,0.0,0.0,0.0,0.0,0.0,0.0,0.0,0.0,0.0,0.0,0.0,0.0,0.0,0.0,0.0,0.0,0.0,0.0,0.0,0.0,0.0,0.0,0.0,0.0,-2.535,-2.6794,0.0,0.0,0.0,0.0,-2.7755,-2.8951,-3.0007,-3.0694,-3.0484,-3.1339,-3.3503,-3.3587,-3.4376,-3.5973,-3.6028,-3.6046,-3.6046,-3.5275,-3.4844,-3.4789,-3.4055,-3.3223,-3.236,-3.236,-3.1464,-2.9939,-2.8399,-2.73,-2.6505,-2.5778,-2.505,-2.4394,-2.3983,-2.3819,-2.367,0.0,0.0,0.0,0.0,0.0,-0.8891,-0.8891,-0.9819,-1.0663,-1.1073,-1.3011,-1.4851,-1.6169,-1.7316,-1.848,-1.966,-1.9538,-1.9183,-1.8755,-1.7471,-1.6422,-1.5838,-1.5114,-1.5251,-1.6391,-1.803,-1.945,-2.0654,-2.1193,-2.1615,-2.1853,-2.1853,-2.2003,-2.231,-2.231,-2.2571,-2.2951,-2.1725,-2.0899,-2.0227,-1.7848,-1.5887,0.0,0.0,0.0,0.0,0.0,0.0,0.0,0.0,0.0,0.0,0.0,0.0,0.0,0.0,0.0,0.0,0.0,0.0,0.0,0.0,0.0,0.0,0.0,0.0,0.0,0.0,0.0,0.0,0.0,0.0,0.0,0.0,0.0,0.0,0.0,0.0,0.0,-2.7779,-2.9331,0.0,-2.8687,-2.941,-3.0044,-3.0314,-3.0652,-3.1547,-3.3183,-3.3022,-3.3648,-3.5349,-3.5404,-3.5697,-3.6285,-3.6303,-3.6303,-3.6303,-3.5991,-3.5844,-3.5797,-3.487,-3.4023,-3.3243,-3.2644,-3.1794,-3.0768,-3.0209,-2.9262,-2.8129,-2.7875,-2.7621,-2.7385,-2.7229,-2.6947,-2.6484,0.0,0.0,0.0,0.0,-0.8891,-0.8981,-0.9236,-1.0142,-1.1021,-1.1628,-1.376,-1.5564,-1.6528,-1.7872,-1.8972,-1.963,-1.969,-1.9495,-1.9061,-1.7981,-1.7174,-1.6726,-1.571,-1.6271,-1.8672,-1.9311,-2.0115,-2.1213,-2.1354,-2.1584,-2.184,-2.184,-2.2003,-2.231,-2.2371,-2.2721,-2.3153,-2.2565,-2.2135,-2.1714,-1.9845,-1.8216,-1.6738,0.0,0.0,0.0,0.0,0.0,0.0,0.0,0.0,0.0,0.0,0.0,0.0,0.0,0.0,0.0,0.0,0.0,0.0,0.0,0.0,0.0,0.0,0.0,0.0,0.0,0.0,0.0,0.0,0.0,0.0,0.0,0.0,0.0,0.0,-2.7427,-2.8876,-2.9175,-3.1182,-3.2199,-3.1333,-3.2025,-3.2776,-3.3353,-3.3402,-3.4032,-3.5371,-3.5198,-3.5551,-3.6681,-3.6688,-3.6835,-3.711,-3.711,-3.711,-3.711,-3.6817,-3.6688,-3.6688,-3.5738,-3.4845,-3.404,-3.3408,-3.2547,-3.1562,-3.1562,-3.0835,-2.9702,-2.9465,-2.9211,-2.9011,-2.9011,-2.8774,-2.8301,0.0,0.0,0.0,-0.8953,-0.8891,-0.9134,-0.9886,-1.044,-1.1433,-1.3255,-1.4507,-1.5851,-1.7505,-1.8328,-1.8986,-1.963,-1.969,-1.969,-1.969,-1.9076,-1.8134,-1.6831,-1.6248,-1.7045,-1.9403,-1.9829,-2.0534,-2.1582,-2.2032,-2.2282,-2.2282,-2.2282,-2.231,-2.2321,-2.2616,-2.2898,-2.3253,-2.3566,-2.3422,-2.2978,-2.2152,-2.0866,-1.9213,0.0,0.0,0.0,0.0,0.0,0.0,0.0,0.0,0.0,0.0,0.0,0.0,0.0,0.0,0.0,0.0,0.0,0.0,0.0,0.0,0.0,0.0,0.0,0.0,0.0,0.0,0.0,0.0,0.0,0.0,0.0,0.0,0.0,-2.5657,-2.8477,-3.0239,-2.9446,-3.2281,-3.3949,-3.3103,-3.5276,-3.6738,-3.6738,-3.7264,-3.7452,-3.7149,-3.6873,-3.6968,-3.7526,-3.7533,-3.79,-3.8689,-3.8707,-3.8707,-3.8689,-3.79,-3.7533,-3.7496,-3.6696,-3.5779,-3.4836,-3.4783,-3.385,-3.2313,-3.2313,-3.185,-3.1123,-3.0412,-2.9702,-2.9096,-2.9096,-2.9025,-2.8844,0.0,0.0,-0.9316,-0.9147,-0.8875,-0.8976,-0.9876,-1.0171,-1.1057,-1.3236,-1.4744,-1.6171,-1.7565,-1.8732,-1.9495,-1.9675,-1.969,-1.969,-1.969,-1.9076,-1.8706,-1.8653,-1.9217,-1.9878,-2.0543,-2.0687,-2.0862,-2.115,-2.1291,-2.1507,-2.1794,-2.2051,-2.2313,-2.2599,-2.2923,-2.3236,-2.3566,-2.3671,-2.3769,-2.3804,-2.2997,-2.2042,-2.1011,0.0,0.0,0.0,0.0,0.0,0.0,0.0,0.0,0.0,0.0,0.0,0.0,0.0,0.0,0.0,0.0,0.0,0.0,0.0,0.0,0.0,0.0,0.0,0.0,0.0,0.0,0.0,0.0,0.0,0.0,0.0,-2.7862,-2.9201,-2.9201,-3.0452,-3.1738,-3.2721,-3.4706,-3.593,-3.568,-3.6853,-3.7642,-3.7642,-3.7625,-3.7719,-3.7958,-3.771,-3.7821,-3.834,-3.8377,-3.8487,-3.8707,-3.8707,-3.8707,-3.8707,-3.8487,-3.8377,-3.8328,-3.7388,-3.6471,-3.565,-3.4909,-3.3714,-3.2313,-3.2313,-3.185,-3.1173,-3.097,-3.0768,-3.0581,-3.0581,-3.0017,-2.9181,0.0,-0.9591,-0.9461,-0.9243,-0.9277,-0.9452,-0.9746,-1.043,-1.1629,-1.355,-1.5197,-1.6576,-1.7584,-1.8907,-1.9782,-1.9945,-1.9929,-1.9878,-1.979,-1.9162,-1.9152,-2.0034,-2.0416,-2.0781,-2.1244,-2.1244,-2.1354,-2.1554,-2.1655,-2.1828,-2.2074,-2.2398,-2.2686,-2.2923,-2.3259,-2.3552,-2.3826,-2.3983,-2.4211,-2.4407,-2.3942,-2.3409,-2.2858,-2.22,-2.1687,-2.1343,-2.1107,-2.0556,-1.9931,-1.9931,0.0,0.0,0.0,0.0,0.0,0.0,0.0,0.0,0.0,0.0,0.0,0.0,0.0,0.0,0.0,0.0,0.0,0.0,0.0,0.0,0.0,0.0,0.0,0.0,-2.9752,-3.1404,-3.213,-3.2532,-3.3237,-3.4584,-3.6219,-3.7392,-3.7757,-3.8546,-3.9046,-3.9046,-3.8895,-3.8878,-3.9039,-3.8771,-3.8686,-3.8865,-3.8762,-3.8707,-3.8707,-3.8707,-3.8707,-3.8707,-3.8707,-3.8707,-3.8676,-3.8083,-3.7327,-3.6482,-3.5884,-3.4528,-3.2747,-3.2747,-3.2138,0.0,0.0,0.0,0.0,0.0,-3.0746,-3.0066,0.0,-0.9734,-0.9716,-0.9293,-0.9894,-1.025,-0.9734,-1.0953,-1.251,-1.4114,0.0,-1.6914,-1.7733,-1.8941,-1.9874,-2.028,-2.0314,-2.0233,0.0,0.0,-1.9769,-2.1007,-2.0553,-2.0703,-2.1642,-2.1688,-2.1961,-2.2485,-2.2737,-2.2859,-2.2893,-2.3217,-2.3401,-2.3401,-2.3667,-2.3939,-2.421,-2.4444,-2.4639,-2.4804,-2.4818,-2.4716,-2.4468,-2.3894,-2.3784,-2.3835,-2.3144,-2.248,-2.1927,-2.1927,0.0,0.0,0.0,0.0,0.0,0.0,0.0,0.0,0.0,0.0,0.0,0.0,0.0,0.0,0.0,0.0,0.0,0.0,0.0,0.0,0.0,0.0,0.0,0.0,-3.132,-3.2869,-3.4418,-3.464,-3.4872,-3.5565,-3.7123,-3.845,-3.9219,-4.0027,-4.0489,-4.0489,-4.0489,-4.0372,-4.012,0.0,0.0,0.0,0.0,-3.8707,-3.8707,-3.8707,-3.8707,-3.8707,-3.8707,-3.8707,-3.8707,-3.8627,-3.8117,-3.7285,-3.7135,-3.5732,-3.349,-3.3406,-3.2527,-3.119,-3.119,-3.119,-3.119,-3.119,-3.119,-3.1112,0.0,-1.025,-1.0387,-0.9519,-1.0031,-1.0575,-1.0623,-1.0725,-1.1821,-1.4652,-1.5558,-1.6635,-1.8326,-1.9218,-1.9874,-2.028,-2.0314,-2.0436,0.0,0.0,-2.1196,-2.1475,-2.1707,-2.1972,-2.2163,-2.2163,-2.2649,-2.369,-2.3709,-2.385,-2.4095,-2.4402,-2.4559,-2.4568,-2.4412,-2.4744,-2.5337,-2.492,-2.476,-2.4818,-2.493,-2.4877,-2.4741,-2.4727,-2.4739,-2.4774,-2.4771,-2.4697,-2.4572,-2.4572,-2.4024,-2.3244,-2.2543,0.0,0.0,0.0,0.0,0.0,0.0,0.0,0.0,0.0,0.0,0.0,0.0,0.0,0.0,0.0,0.0,0.0,0.0,0.0,0.0,-3.2324,-3.3921,-3.5057,-3.5349,-3.6465,-3.7065,-3.6526,-3.8007,-3.9104,-3.9277,-4.0027,-4.0489,-4.0489,-4.0489,-4.0372,-4.012,-3.9775,-3.9457,-3.9125,-3.8844,-3.8707,-3.8707,-3.8707,-3.8707,-3.8707,0.0,0.0,-3.8676,-3.8267,-3.7946,-3.772,-3.6904,-3.559,-3.4007,-3.3598,-3.2527,-3.119,-3.119,-3.119,-3.119,-3.119,-3.119,-3.119,-1.1116,-1.0995,-1.082,-1.0543,-1.1117,-1.1541,-1.1383,-1.1246,-1.1957,-1.4199,-1.527,-1.6278,-1.7554,-1.8313,-1.8867,-1.933,-1.9688,0.0,0.0,-2.1292,-2.1573,-2.194,-2.2517,-2.2734,-2.2517,-2.2894,-2.3273,-2.3586,-2.4166,-2.4533,-2.4658,-2.5509,-2.5899,-2.5901,-2.5907,-2.618,-2.6635,-2.6337,-2.6262,-2.632,-2.5953,-2.5769,-2.5659,-2.5302,-2.5152,-2.5163,-2.5264,-2.5303,-2.5303,-2.5303,-2.5024,-2.462,-2.4197,-2.3485,-2.2639,0.0,0.0,0.0,0.0,0.0,0.0,0.0,0.0,0.0,0.0,0.0,0.0,0.0,0.0,-2.8184,-2.9922,0.0,-3.2557,-3.376,-3.5293,-3.634,-3.626,-3.7636,-3.8334,-3.745,-3.8507,-3.945,-3.9854,-4.0258,-4.0489,-4.0489,-4.0489,-4.0633,-4.0917,-4.0466,-4.015,-4.0002,-3.9552,-3.9111,-3.8707,-3.8707,-3.8707,-3.8707,-3.8707,-3.8707,-3.8707,-3.8415,-3.8132,-3.7859,-3.7135,-3.6038,-3.4649,-3.3383,-3.2188,-3.119,-3.119,-3.119,-3.119,-3.119,-3.119,-3.119,-1.2477,-1.2038,-1.1596,-1.1675,-1.2207,-1.245,-1.2013,-1.1957,-1.2318,-1.3367,-1.4663,-1.5752,-1.6396,-1.7033,-1.768,0.0,0.0,0.0,0.0,-2.1312,-2.1667,-2.2276,-2.2909,-2.3089,-2.2712,-2.3389,-2.3753,-2.3768,-2.4753,-2.5325,-2.5536,-2.6673,-2.7194,-2.7212,-2.7299,-2.7538,-2.7828,-2.7701,-2.775,-2.7813,-2.6948,-2.6601,-2.6505,-2.563,-2.5303,-2.5303,-2.5303,-2.5303,-2.5303,-2.5303,-2.5303,-2.5303,-2.5303,-2.487,-2.4302,-2.4149,-2.3109,0.0,0.0,0.0,0.0,0.0,0.0,0.0,0.0,-2.5457,-2.6571,-2.8417,-2.9355,-3.043,-3.2344,-3.3359,-3.4178,-3.4981,-3.6459,-3.7424,-3.7229,-3.8543,-3.9215,-3.8373,-3.9018,-3.9777,-4.0431,-4.0489,-4.0489,-4.0489,-4.0489,-4.0796,-4.1508,-4.1062,-4.082,-4.0887,-4.0232,-3.9588,-3.8946,-3.8781,-3.8707,-3.8707,-3.8707,-3.8707,-3.8707,-3.8707,-3.8465,-3.8013,-3.7273,-3.6324,-3.5151,-3.311,-3.1935,-3.1393,-3.1258,-3.119,-3.119,-3.119,-3.119,-3.119,0.0,-1.3635,-1.3587,-1.227,-1.2353,-1.2571,-1.2508,-1.2502,-1.2489,-1.2479,-1.3582,-1.4714,-1.5606,-1.6053,-1.6846,-1.8199,0.0,0.0,-2.1204,-2.1803,-2.2226,-2.231,-2.2596,-2.2756,-2.2695,-2.3084,-2.4088,-2.5786,-2.6136,-2.6812,-2.7752,-2.8142,-2.8317,-2.8299,-2.7794,-2.7973,-2.8635,-2.8099,-2.7879,-2.7813,-2.6948,-2.6601,-2.6505,-2.563,-2.5303,-2.5303,-2.5303,-2.5303,-2.5303,-2.5303,-2.5303,-2.5303,-2.5303,-2.5245,-2.5024,-2.4322,-2.3956,-2.3648,-2.2851,-2.2701,-2.2966,-2.3908,-2.4728,-2.5549,0.0,-2.7362,-2.8495,-3.0254,-3.0684,-3.1504,-3.3965,-3.5137,-3.5996,-3.6855,-3.8302,-3.9071,-3.8322,-3.9458,-4.0082,-3.9332,-3.9913,-4.0392,-4.0489,-4.0489,-4.0489,-4.0489,-4.0489,-4.0527,-4.0642,-4.0739,-4.0796,-4.082,-4.0232,-3.9845,-3.9772,-3.9056,-3.8707,-3.8707,-3.8707,-3.8707,-3.8707,-3.8707,-3.8676,-3.851,-3.6861,-3.5814,-3.5151,-3.311,-3.2263,-3.2087,-3.1444,-3.119,-3.119,-3.119,-3.119,-3.119,0.0,-1.4476,-1.4392,-1.3482,-1.3177,-1.2918,-1.2498,-1.253,-1.2593,-1.2634,-1.3345,-1.4142,-1.4927,-1.5518,-1.6371,-1.7624,-1.9258,-2.0293,-2.0497,-2.1778,-2.2537,-2.2537,-2.325,-2.3527,-2.3277,-2.3943,-2.459,-2.5167,-2.5875,-2.6445,-2.6887,-2.7585,-2.8202,-2.8673,-2.8543,-2.8931,-2.9717,-2.9452,-2.9063,-2.8525,-2.7678,-2.7044,-2.6505,-2.563,-2.5303,-2.5303,-2.5303,-2.5303,0.0,0.0,-2.5303,-2.5303,-2.5303,-2.4986,-2.462,-2.4755,-2.4466,-2.4129,-2.4235,-2.4331,-2.4616,-2.5479,-2.6026,-2.6722,-2.8136,-2.8743,-2.9644,-3.1894,-3.2344,-3.2988,-3.5078,-3.5742,-3.6269,-3.712,-3.8146,-3.8894,-3.9071,-3.9921,-4.041,-4.0188,-4.0356,-4.0489,-4.0489,-4.0489,-4.0489,-4.0489,-4.0489,-4.0931,-4.195,-4.1856,-4.1916,-4.224,-4.1819,-4.1046,-3.99,-3.957,-3.9166,-3.8707,-3.8707,-3.8707,-3.8707,-3.8707,-3.8401,-3.7773,-3.7004,-3.6011,-3.4763,-3.3939,-3.3051,-3.2297,-3.1935,-3.1562,-3.119,-3.119,-3.119,-3.119,0.0,-1.4902,-1.4757,-1.4332,-1.3959,-1.3463,-1.2722,-1.2727,-1.2864,-1.3015,-1.3448,-1.3992,-1.4675,-1.5506,-1.6293,-1.7054,-1.8668,-1.9788,-2.0128,-2.1738,-2.2756,-2.2822,-2.3726,-2.4082,-2.3801,-2.4575,-2.4967,-2.4895,-2.5702,-2.6208,-2.6435,-2.7243,-2.7968,-2.86,-2.8959,-2.9484,-3.007,-3.0056,-2.9679,-2.9006,-2.7948,-2.7159,-2.6505,-2.563,-2.5303,-2.5264,-2.5063,-2.4966,0.0,0.0,-2.462,-2.462,-2.462,-2.4216,-2.3898,-2.4736,-2.4716,-2.4553,-2.5158,-2.5582,-2.5994,-2.6609,-2.7192,-2.7977,-2.9248,-2.9716,-3.0481,-3.2636,-3.3066,-3.3594,-3.5312,-3.584,-3.6347,-3.7407,-3.8195,-3.8994,-3.9906,-4.0333,-4.061,-4.071,-4.0577,-4.0489,-4.0489,-4.0489,-4.0489,-4.0489,-4.0489,-4.1046,-4.2316,-4.247,-4.2639,-4.2919,-4.2866,-4.1957,-4.0249,-4.001,-3.9496,-3.8707,-3.8707,-3.8707,-3.8707,-3.8707,-3.8201,-3.7396,-3.7266,-3.6352,-3.4976,-3.466,-3.3744,-3.256,-3.2357,-3.1833,-3.119,-3.119,-3.119,-3.119,0.0,0.0,-1.4794,-1.4445,-1.4431,-1.4211,-1.348,-1.3359,-1.3385,-1.3385,-1.3795,-1.4357,-1.5101,-1.6079,-1.6674,-1.672,-1.8716,-2.0111,-2.0453,-2.189,-2.2848,-2.3183,-2.3707,-2.3987,-2.3988,-2.4538,-2.519,-2.5951,-2.617,-2.6683,-2.745,-2.7826,-2.7995,-2.8053,-2.8846,-2.9214,-2.9224,-2.9175,-2.9121,-2.8948,-2.7294,-2.6621,-2.6505,-2.563,-2.5303,-2.5187,-2.4409,0.0,0.0,-2.3158,-2.287,-2.287,-2.287,-2.2851,-2.3004,-2.3879,-2.4678,-2.5274,-2.5376,-2.6061,-2.6777,-2.6861,-2.8216,-2.9531,-2.957,-3.0254,-3.1113,-3.2051,-3.2246,-3.2754,-3.4434,-3.543,-3.6562,-3.8281,-3.9186,-4.0011,-4.1015,-4.0889,-4.0729,-4.0777,-4.0616,-4.0489,-4.0489,-4.0489,-4.0489,-4.0489,-4.0489,-4.0508,-4.0566,-4.18,-4.2373,-4.204,-4.2539,-4.2236,-4.1075,-4.0286,-3.9496,-3.8707,-3.8707,-3.8707,-3.8707,-3.8707,-3.8382,-3.7859,-3.7396,-3.6865,-3.6246,-3.4993,-3.4049,-3.3305,-3.256,-3.1833,-3.119,-3.119,-3.119,-3.119,0.0,0.0,0.0,-1.4629,-1.4538,-1.4428,-1.4165,-1.3717,-1.3751,-1.4727,-1.5156,0.0,0.0,0.0,0.0,0.0,-1.9087,-2.007,-2.0714,-2.19,-2.2922,-2.3687,-2.4119,-2.4394,-2.4535,-2.4802,-2.5068,-2.5337,-2.5576,-2.5836,-2.6113,-2.6275,-2.6652,-2.7226,-2.7487,-2.7898,-2.8404,-2.8429,-2.8407,-2.8268,-2.7164,-2.6711,-2.6566,-2.5708,-2.5001,-2.4389,0.0,0.0,0.0,-2.309,-2.2793,-2.2793,-2.2793,-2.2793,-2.2966,-2.3841,-2.4703,-2.5503,-2.6091,-2.6554,-2.715,-2.8335,-2.9115,-2.9746,-3.0332,-3.0684,-3.1152,-3.2012,-3.2207,-3.2539,-3.3633,-3.4551,-3.5703,-3.7441,-3.8366,-3.939,-4.0976,-4.0915,-4.0721,-4.0785,-4.0616,-4.0489,-4.0489,-4.0489,0.0,-4.0489,-4.0489,-4.0989,-4.2162,-4.2652,-4.3135,-4.3712,-4.3909,-4.3322,-4.1901,-4.1111,-4.0286,-3.9478,-3.8964,-3.8707,-3.8707,-3.8707,-3.8433,-3.7859,-3.7396,-3.6882,-3.6316,-3.5538,-3.481,-3.41,-3.3846,-3.3,-3.1918,-3.1918,-3.1613,-3.119,0.0,0.0,0.0,0.0,0.0,0.0,0.0,0.0,0.0,0.0,0.0,0.0,0.0,0.0,0.0,0.0,0.0,-1.9969,-2.0594,-2.1879,-2.2941,-2.3708,-2.4072,-2.4444,-2.4867,-2.4758,-2.4851,-2.5149,-2.5351,-2.5437,-2.5437,-2.5495,-2.5822,-2.6373,-2.6704,-2.7114,-2.762,-2.7617,-2.7605,-2.7503,-2.6668,-2.631,-2.6209,-2.5661,-2.5074,0.0,0.0,0.0,0.0,-2.2293,-2.21,-2.2331,-2.2331,-2.2754,-2.3388,-2.397,-2.4962,-2.5996,-2.6604,-2.7281,-2.8106,-2.9248,-2.9803,-3.0215,-3.0762,-3.0664,-3.0586,-3.1152,-3.1016,-3.1152,-3.2305,-3.2715,-3.3848,-3.6816,-3.7436,-3.8407,-4.0859,-4.0964,-4.0799,-4.0793,-4.0645,-4.0545,-4.0504,-4.0489,-4.0489,-4.0489,-4.0489,-4.1123,-4.2566,-4.2931,-4.3407,-4.4115,-4.4429,-4.3877,-4.2304,-4.1515,-4.0561,-3.946,-3.8946,-3.8707,-3.8707,-3.8707,-3.8433,-3.7859,-3.7396,-3.6882,-3.6333,-3.581,-3.5182,-3.4472,-3.4201,-3.3355,-3.2297,-3.1985,-3.1596,-3.119,0.0,0.0,0.0,0.0,0.0,0.0,0.0,0.0,0.0,0.0,0.0,0.0,0.0,0.0,0.0,0.0,0.0,0.0,-2.0208,-2.1773,0.0,-2.3309,-2.364,-2.4188,-2.4995,-2.4517,-2.4632,-2.5415,-2.5468,-2.5503,-2.5503,-2.5567,-2.5618,-2.5642,-2.6474,-2.6832,-2.6834,-2.6764,-2.6771,-2.6726,-2.5858,-2.552,-2.558,-2.5526,0.0,0.0,0.0,0.0,-2.256,-2.0916,-2.0897,-2.1578,-2.1636,-2.278,-2.4135,-2.4295,-2.5453,-2.676,-2.6971,-2.8242,-2.9537,-2.9648,-3.0293,-3.0898,-3.0898,-3.0234,-2.9609,-2.9609,-2.8906,-2.8809,-3.0469,-3.0156,-3.1309,-3.6348,-3.6543,-3.7266,-4.0723,-4.1119,-4.1013,-4.0887,-4.0849,-4.0778,-4.0654,-4.0623,-4.0623,-4.0623,0.0,-4.095,-4.1816,-4.2701,-4.3235,-4.3397,-4.4165,-4.3896,-4.2393,-4.1534,-4.0322,-3.8762,-3.8726,-3.8707,-3.8707,-3.8707,-3.8415,-3.7893,-3.7433,-3.6943,-3.6374,-3.5854,-3.5199,-3.4489,-3.3795,-3.3034,-3.2256,-3.1562,-3.1258,-3.119,0.0,0.0,0.0,0.0,0.0,0.0,0.0,0.0,0.0,0.0,0.0,0.0,0.0,0.0,0.0,0.0,0.0,0.0,-2.0585,0.0,0.0,0.0,-2.3739,-2.4264,-2.5282,-2.5157,-2.5219,-2.5475,-2.5538,-2.556,-2.558,-2.5641,-2.5662,-2.5681,-2.5914,-2.5987,-2.5932,-2.5969,-2.6328,-2.6798,0.0,-2.6011,-2.6462,0.0,0.0,0.0,0.0,0.0,-2.2714,-2.1623,-2.1873,-2.2731,-2.3373,-2.3892,-2.4499,-2.576,-2.6481,-2.714,-2.8472,-2.9191,-2.9725,-3.039,-3.0742,-3.0898,-3.0898,-3.0234,-2.9609,-2.9609,-2.8906,-2.8437,-2.8887,-2.9844,-3.1621,-3.4844,-3.6269,-3.7969,-4.0801,-4.1648,-4.191,-4.1782,-4.2246,-4.2537,-4.2447,-4.2431,-4.2431,-4.2431,-4.1835,-4.1854,-4.272,-4.3547,-4.4192,-4.4623,-4.4594,-4.4271,-4.3565,-4.1936,-4.0598,-3.9588,-3.9001,-3.8707,-3.8707,-3.8707,-3.8627,-3.8465,-3.7964,-3.7433,-3.6943,-3.6416,-3.5865,-3.5318,-3.5131,-3.4269,-3.3102,-3.2916,-3.2138,-3.119,0.0,0.0,0.0,0.0,0.0,0.0,0.0,0.0,0.0,0.0,0.0,0.0,0.0,0.0,0.0,0.0,0.0,0.0,0.0,-2.0685,0.0,-2.265,-2.2756,-2.3265,-2.4277,-2.4341,-2.4544,-2.4976,0.0,0.0,-2.5644,-2.5684,-2.5703,-2.5703,-2.5703,-2.5681,-2.5652,-2.5683,0.0,0.0,0.0,0.0,0.0,0.0,0.0,0.0,0.0,-2.3894,-2.344,-2.2984,-2.3383,-2.4241,-2.5113,-2.5658,-2.615,-2.7129,-2.7716,-2.8262,-2.9269,-2.9842,-3.0293,-3.0781,-3.0898,-3.0801,-3.043,-2.9668,-2.8926,-2.8535,-2.7773,-2.7285,-2.7656,-2.8535,-3.0273,-3.3594,-3.5273,-3.7207,-4.0215,-4.1587,-4.2256,-4.2124,-4.2751,-4.3175,-4.3102,-4.3104,-4.3104,-4.3104,-4.2643,-4.2739,-4.3585,-4.4047,-4.4556,-4.5077,-4.4757,-4.4168,-4.3254,-4.183,-4.0708,-3.9882,-3.9074,-3.8707,-3.8707,-3.8707,-3.8707,-3.8658,0.0,-3.7649,-3.7152,-3.6603,-3.6097,-3.5554,-3.4912,-3.4336,-3.3778,-3.2797,-3.2121,-3.163,0.0,0.0,0.0,0.0,0.0,0.0,0.0,0.0,0.0,0.0,-1.8485,0.0,0.0,0.0,0.0,0.0,0.0,0.0,0.0,0.0,0.0,-2.133,-2.1549,-2.2119,-2.3069,-2.3252,-2.3719,-2.4493,0.0,0.0,0.0,0.0,0.0,0.0,0.0,0.0,0.0,0.0,0.0,0.0,0.0,0.0,0.0,0.0,0.0,0.0,-2.462,-2.4418,-2.4466,-2.4546,-2.5063,-2.5839,-2.6595,-2.7413,-2.8166,-2.8337,-2.893,-2.9558,-2.9726,-3.0312,-3.0898,-3.0898,-3.0801,-3.0527,-2.9766,-2.8848,-2.791,-2.7168,-2.6309,-2.5937,-2.6699,-2.6914,-2.8379,-3.2559,-3.3965,-3.5781,-3.9394,-4.1194,-4.2159,-4.226,-4.2915,-4.3394,-4.3429,-4.3431,-4.3431,-4.3431,-4.3431,-4.3682,-4.4259,-4.4412,-4.4671,-4.5077,-4.4757,-4.3887,-4.2386,-4.153,-4.0708,-3.9882,-3.9074,-3.8707,-3.8707,-3.8707,-3.8707,-3.8658,-3.8216,0.0,-3.7248,-3.6724,-3.6182,-3.5576,-3.4201,-3.3964,-3.4117,-3.2188,-3.1765,-3.2036,0.0,0.0,0.0,0.0,0.0,0.0,0.0,0.0,0.0,0.0,-1.9475,-1.9485,0.0,0.0,0.0,0.0,0.0,0.0,0.0,0.0,0.0,0.0,-2.2188,-2.3033,-2.4039,-2.471,-2.5191,-2.5468,-2.5625,0.0,0.0,0.0,0.0,0.0,0.0,0.0,0.0,0.0,0.0,0.0,0.0,0.0,0.0,0.0,0.0,0.0,-2.5298,-2.527,-2.5304,-2.5422,-2.6033,-2.6775,-2.6912,-2.7556,-2.8415,-2.9139,-2.9452,-2.9745,-3.0488,-3.0781,-3.0898,-3.0898,-3.0351,-2.9785,-2.9629,-2.8379,-2.7187,-2.7031,-2.6309,-2.5742,-2.5898,-2.6504,-2.8184,-3.1816,-3.3086,-3.5098,-3.9316,-4.067,-4.171,-4.3019,-4.3826,-4.451,-4.512,-4.5163,-4.5163,-4.5163,-4.5163,-4.4913,-4.4335,-4.497,-4.5285,-4.5096,-4.4757,-4.3979,-4.2716,-4.1654,-4.0708,-3.9882,-3.9074,-3.8707,-3.8707,-3.8707,-3.8707,-3.8707,-3.8596,0.0,-3.7755,-3.7248,-3.6764,-3.619,-3.5494,-3.4556,-3.3541,-3.3169,-3.2324,-3.136,0.0,0.0,0.0,0.0,0.0,0.0,0.0,-2.0174,-2.0871,-2.1246,-2.1225,-2.0935,-2.0298,-2.0332,-2.0201,0.0,0.0,0.0,0.0,0.0,0.0,0.0,0.0,-2.1949,-2.2871,-2.3752,-2.4443,-2.4973,0.0,-2.5424,-2.5014,-2.5014,-2.5008,-2.4974,-2.4976,-2.521,-2.5598,0.0,0.0,0.0,0.0,0.0,0.0,0.0,0.0,0.0,0.0,-2.5492,-2.5512,-2.5642,-2.6289,-2.6992,-2.6992,-2.7598,-2.8476,-2.9336,-2.9609,-2.9785,-3.0664,-3.0898,-3.0898,-3.0898,-3.0234,-2.9473,-2.9023,-2.793,-2.6875,-2.6426,-2.5996,-2.5703,-2.5703,-2.6406,-2.7695,-2.9824,-3.1229,-3.3415,-3.7324,-3.8838,-4.0509,-4.308,-4.3988,-4.47,-4.5526,-4.5586,-4.5586,-4.5586,-4.5586,-4.5413,-4.4989,-4.5355,-4.5438,-4.5096,-4.4345,-4.3555,-4.2816,-4.1243,-4.0286,-3.9882,-3.9074,-3.8707,-3.8707,-3.8707,-3.8707,-3.8707,-3.8707,0.0,-3.7859,-3.7396,-3.6865,-3.6298,-3.5385,-3.4607,-3.388,-3.3102,-3.2374,-3.1698,0.0,0.0,0.0,0.0,0.0,0.0,0.0,-2.1578,-2.2055,-2.2823,-2.3061,-2.2819,-2.1852,-2.154,-2.1157,0.0,0.0,0.0,0.0,0.0,0.0,0.0,0.0,-2.1244,-2.2146,0.0,0.0,-2.4553,-2.5239,0.0,0.0,0.0,0.0,0.0,-2.5274,-2.5371,-2.5526,-2.5479,0.0,0.0,0.0,-2.5441,0.0,0.0,0.0,0.0,0.0,-2.5498,-2.5522,-2.5641,-2.6152,-2.6719,-2.6719,-2.7441,-2.8437,-2.9121,-2.9453,-2.9746,-3.0449,-3.0762,-3.0898,-3.0898,-3.0098,-2.9141,-2.8457,-2.748,-2.6523,-2.584,-2.5703,-2.5703,-2.5703,-2.6269,-2.707,-2.8125,-2.9566,-3.1749,-3.5213,-3.6982,-3.9151,-4.2432,-4.3548,-4.4374,-4.524,-4.549,-4.5586,-4.5586,-4.5586,-4.5586,-4.5586,-4.5586,-4.538,-4.4954,-4.3946,-4.3083,-4.2389,-4.0774,-3.9866,-3.9643,-3.9001,-3.8707,-3.8707,-3.8707,-3.8707,-3.8707,-3.8707,0.0,0.0,-3.7433,-3.696,-3.6429,-3.5206,-3.4539,-3.4117,-3.2949,-3.2324,-3.1968,0.0,0.0,0.0,0.0,0.0,0.0,0.0,-2.215,-2.2985,-2.3842,-2.4601,-2.4735,-2.3909,-2.3005,-2.2424,0.0,0.0,0.0,0.0,0.0,0.0,0.0,0.0,0.0,0.0,0.0,0.0,-2.5381,-2.5459,0.0,0.0,0.0,0.0,0.0,0.0,-2.4749,-2.5573,-2.5465,0.0,0.0,0.0,0.0,0.0,0.0,0.0,0.0,0.0,-2.5508,-2.5516,-2.5659,-2.5742,-2.582,-2.582,-2.6953,-2.832,-2.8398,-2.8984,-2.9629,-2.9707,-3.0293,-3.0898,-3.0898,-2.9648,-2.8398,-2.832,-2.7012,-2.5801,-2.5723,-2.5703,-2.5703,-2.5703,-2.5762,-2.6367,-2.8027,-2.9082,-3.0896,-3.4251,-3.6105,-3.8063,-4.0629,-4.2285,-4.3528,-4.4335,-4.5143,-4.5586,-4.5586,-4.5586,-4.5586,-4.5586,-4.5586,-4.522,-4.4397,-4.398,-4.2883,-4.1089,-4.0539,-3.9785,-3.8817,-3.8744,-3.8707,-3.8707,-3.8707,-3.8707,-3.8707,-3.8707,0.0,0.0,-3.7596,-3.7173,-3.702,-3.5942,-3.4692,-3.3491,-3.3355,-3.2442,-3.1275,0.0,0.0,0.0,0.0,0.0,0.0,-2.207,-2.2128,-2.2697,-2.4582,-2.4678,-2.4639,-2.4793,-2.4466,-2.3822,-2.2806,0.0,0.0,0.0,0.0,0.0,0.0,0.0,0.0,0.0,0.0,-2.4923,-2.5441,-2.5488,0.0,0.0,0.0,0.0,0.0,0.0,-2.5117,-2.5427,-2.5363,0.0,0.0,0.0,0.0,0.0,0.0,0.0,0.0,0.0,0.0,-2.5531,-2.5659,-2.5703,-2.5703,-2.5703,-2.6172,-2.6836,-2.7363,-2.8125,-2.8926,-2.9453,-3.0234,-3.0898,-3.0898,-2.959,-2.8301,-2.8301,-2.6953,-2.5703,-2.5703,-2.5703,-2.5703,-2.5703,-2.5703,-2.5937,-2.6621,-2.699,-2.8214,-3.1185,-3.2489,-3.4668,-3.8763,-4.0222,-4.1774,-4.4083,-4.4605,-4.4816,-4.4816,-4.4816,-4.4605,-4.4124,-4.4547,-4.4662,-4.4316,-4.3006,-4.1928,-4.1138,-4.0096,-3.9352,-3.8933,-3.8792,-3.8707,-3.8707,-3.8707,-3.8707,-3.8707,-3.8707,0.0,0.0,-3.7596,-3.719,-3.7061,-3.5539,-3.432,-3.3355,-3.2899,-3.2087,-3.119,0.0,0.0,0.0,0.0,0.0,-2.0773,-2.2194,-2.2109,-2.2611,-2.4678,-2.4659,-2.4678,-2.5245,-2.5303,-2.4822,-2.3639,-2.3312,0.0,0.0,0.0,0.0,0.0,0.0,0.0,0.0,0.0,-2.4799,-2.5371,-2.5441,-2.5482,0.0,0.0,-2.5526,-2.5428,0.0,0.0,0.0,0.0,0.0,0.0,0.0,0.0,0.0,0.0,0.0,0.0,0.0,0.0,0.0,0.0,0.0,-2.5703,-2.5703,-2.5703,-2.582,-2.6445,-2.7226,-2.8047,-2.8652,-2.9668,-3.0449,-3.0195,-2.9219,-2.8223,-2.7969,-2.6777,-2.5703,-2.5703,-2.5703,-2.5703,-2.5703,-2.5703,-2.5703,-2.5703,-2.5875,-2.6846,-2.9214,-3.0384,-3.2532,-3.6666,-3.8287,-4.0075,-4.2607,-4.3522,-4.3951,-4.3951,-4.3951,-4.3701,-4.3124,-4.3393,-4.3566,-4.3566,-4.218,-4.1285,-4.094,-3.9816,-3.9205,-3.9099,-3.8815,-3.8707,-3.8707,-3.8707,-3.8707,-3.8707,-3.8707,0.0,0.0,-3.7596,-3.7086,-3.669,-3.5111,-3.3914,-3.3,-3.2476,-3.1816,-3.119,0.0,0.0,0.0,0.0,0.0,0.0,-2.1402,-2.2235,-2.3121,-2.3995,-2.4793,-2.5284,-2.5303,-2.5303,-2.5284,-2.5284,-2.4543,0.0,0.0,0.0,0.0,0.0,0.0,0.0,0.0,0.0,-2.5293,-2.5313,-2.5379,-2.5406,-2.5406,-2.5477,-2.5493,-2.5508,0.0,0.0,0.0,0.0,0.0,0.0,0.0,0.0,0.0,0.0,0.0,0.0,0.0,0.0,0.0,0.0,0.0,0.0,0.0,-2.5703,-2.5703,-2.5703,-2.6328,-2.7012,-2.7012,-2.8281,-2.9414,-2.8535,-2.8301,-2.8066,-2.7207,-2.6328,-2.5703,-2.5703,-2.5703,-2.5703,-2.5703,-2.5703,-2.5703,-2.5703,-2.6426,-2.7556,-2.9162,-3.0891,-3.2601,-3.4243,-3.6736,-3.8607,-3.9379,-4.1677,-4.3104,-4.3104,-4.3104,0.0,-4.3104,-4.2297,-4.1835,-4.1835,-4.1816,-4.1238,-4.012,-3.9775,-3.9414,-3.9099,-3.8815,-3.8707,-3.8707,-3.8707,-3.8707,-3.8707,0.0,0.0,0.0,-3.7596,-3.675,-3.5895,-3.4905,-3.3592,-3.229,-3.2313,-3.1816,-3.119,0.0,0.0,0.0,0.0,0.0,0.0,0.0,-2.1276,-2.1814,-2.3842,-2.3804,-2.4024,-2.5187,-2.5303,-2.5303,-2.5303,-2.5082,0.0,0.0,0.0,0.0,0.0,0.0,0.0,0.0,-2.5303,-2.5303,-2.5303,-2.5371,-2.5398,-2.5398,-2.5477,-2.5482,-2.5428,-2.5413,-2.5379,0.0,0.0,0.0,0.0,0.0,0.0,0.0,0.0,0.0,0.0,0.0,0.0,0.0,0.0,0.0,0.0,0.0,0.0,0.0,-2.5703,-2.6328,-2.6992,-2.6992,-2.7832,-2.8652,-2.8379,-2.7851,-2.7344,-2.7051,-2.6328,-2.5703,-2.5703,-2.5703,-2.5703,-2.5703,-2.5703,-2.5898,-2.6484,-2.6816,-2.7382,-2.8493,-3.0074,-3.1924,-3.4132,-3.8117,-4.0795,-4.1027,-4.229,-4.2854,-4.2258,-4.222,-4.195,-4.1354,-4.1066,-4.1181,-4.1777,-4.1219,-4.0745,-4.0372,-4.0081,-3.9775,-3.9438,-3.9117,-3.8884,-3.8707,-3.8707,-3.8707,0.0,0.0,0.0,0.0,-3.679,-3.5917,-3.503,-3.3568,-3.2696,-3.2222,-3.1715,-3.1393,-3.119,0.0,0.0,0.0,0.0,0.0,0.0,0.0,-2.0892,-2.1449,-2.3352,-2.3419,-2.3804,-2.5149,-2.5303,-2.5303,-2.5303,-2.5303,0.0,0.0,0.0,0.0,0.0,0.0,0.0,-2.5303,-2.5303,-2.5457,-2.5793,-2.5865,-2.5882,-2.5882,-2.5957,-2.5776,-2.5398,-2.5398,-2.5363,0.0,0.0,0.0,0.0,0.0,0.0,0.0,0.0,0.0,0.0,0.0,0.0,0.0,0.0,0.0,0.0,0.0,0.0,0.0,0.0,-2.6074,-2.6504,-2.6504,-2.7148,-2.7734,-2.7402,-2.7168,-2.6914,-2.6582,-2.6094,-2.5703,-2.5703,-2.5703,-2.5703,-2.5703,-2.5703,-2.5879,-2.6426,-2.6483,-2.6891,-2.8082,-2.9364,-3.1354,-3.4501,-3.8141,-4.054,-4.0868,-4.1636,-4.1893,-4.1354,-4.1316,-4.1066,-4.0527,-4.0489,-4.0739,-4.1296,-4.0777,-4.0489,-4.0489,-4.0232,-3.9922,-3.9599,-3.9264,-3.8961,-3.8707,-3.8707,-3.8707,0.0,0.0,0.0,0.0,-3.6278,-3.526,-3.427,-3.3062,-3.2304,-3.1816,-3.136,-3.119,-3.119,0.0,0.0,0.0,0.0,0.0,0.0,0.0,-2.0922,-2.1756,-2.2675,-2.3505,-2.4332,-2.5207,-2.5303,-2.5303,-2.5303,0.0,0.0,0.0,0.0,0.0,0.0,0.0,0.0,-2.5303,-2.5303,-2.5687,-2.6505,-2.6638,-2.668,-2.6707,-2.6825,-2.6379,-2.5488,-2.5495,-2.5421,0.0,0.0,0.0,0.0,0.0,0.0,0.0,0.0,0.0,0.0,0.0,0.0,0.0,0.0,0.0,0.0,0.0,0.0,0.0,0.0,0.0,0.0,0.0,-2.6289,-2.6719,-2.5898,-2.6309,-2.6699,-2.5879,-2.5703,0.0,-2.5703,-2.5703,-2.5703,-2.5703,-2.5703,-2.5703,-2.5781,-2.5771,-2.6356,-2.8054,-2.9134,-3.1281,-3.5376,-3.7278,-3.8593,-3.9398,-4.0111,-4.0489,-4.0489,-4.0489,-4.0489,-4.0489,-4.0489,-4.0489,-4.0489,-4.0489,-4.0489,-4.0489,-4.025,-3.9963,-3.9622,-3.9289,-3.8971,-3.8719,-3.8634,-3.8615,0.0,0.0,0.0,0.0,-3.5942,-3.4712,-3.3579,-3.3084,-3.2217,-3.119,-3.119,-3.119,-3.119,0.0,0.0,0.0,0.0,0.0,0.0,0.0,0.0,0.0,0.0,-2.2987,-2.3679,-2.5149,-2.5303,-2.5303,0.0,0.0,0.0,0.0,0.0,0.0,0.0,0.0,0.0,-2.5303,-2.5303,-2.5399,-2.561,-2.6285,-2.6622,-2.6641,-2.7325,-2.7171,-2.6314,-2.6314,-2.5938,0.0,0.0,0.0,0.0,0.0,0.0,0.0,0.0,0.0,0.0,-2.5554,-2.5629,0.0,0.0,0.0,0.0,0.0,0.0,0.0,0.0,-2.5703,-2.5703,-2.5703,0.0,-2.5957,-2.5742,-2.5859,-2.5957,0.0,-2.5703,-2.5703,-2.5703,-2.5703,-2.5703,-2.5703,-2.566,-2.5845,-2.6509,-2.7121,-2.7882,-2.8978,-3.2004,-3.4951,-3.7186,-3.894,-4.0029,-4.0222,-4.0404,-4.0489,-4.0489,-4.0489,-4.0489,-4.0489,-4.0489,-4.0489,-4.0489,-4.0489,-4.0489,-4.0489,-4.0441,-4.0267,-3.9982,-3.9645,-3.9333,-3.898,-3.8158,-3.7771,0.0,0.0,0.0,-3.5559,-3.4939,-3.3906,-3.2749,-3.2265,-3.1737,-3.119,-3.119,-3.119,-3.119,0.0,0.0,0.0,0.0,0.0,0.0,0.0,0.0,0.0,0.0,0.0,-2.3439,-2.513,-2.5303,0.0,0.0,0.0,0.0,0.0,0.0,0.0,0.0,0.0,-2.5303,-2.5303,-2.5303,-2.5687,-2.6486,-2.6967,-2.739,-2.7755,-2.7852,-2.7428,-2.6582,-2.6178,-2.5726,0.0,0.0,0.0,0.0,0.0,0.0,0.0,0.0,0.0,0.0,-2.5595,-2.5637,0.0,-2.5703,-2.5703,-2.5703,0.0,0.0,0.0,0.0,-2.5703,-2.5703,-2.5703,-2.5703,-2.5703,-2.5703,-2.5703,-2.5703,-2.5703,-2.5703,-2.5703,-2.5703,-2.5703,-2.5683,-2.566,-2.5611,-2.5888,-2.6724,-2.7195,-2.8158,-3.0167,-3.3729,-3.6582,-3.7849,-3.9469,-4.0489,-4.0489,-4.0489,-4.0489,-4.0489,-4.0489,-4.0489,-4.0489,-4.0489,-4.0489,-4.0489,-4.0489,-4.0489,-4.0489,-4.0489,-4.0372,-4.0101,-3.9754,-3.9226,-3.8521,-3.7829,-3.7323,0.0,0.0,0.0,-3.4954,-3.4371,-3.3593,-3.2777,-3.2298,-3.1878,-3.1449,-3.1252,-3.119,-3.119,0.0,0.0,0.0,0.0,0.0,0.0,0.0,0.0,0.0,0.0,0.0,0.0,0.0,0.0,0.0,0.0,0.0,0.0,0.0,0.0,0.0,0.0,-2.5303,-2.536,-2.5495,-2.536,-2.6101,-2.7698,-2.7832,-2.8255,-2.8909,-2.8486,-2.7755,-2.6755,-2.5755,-2.5303,0.0,0.0,0.0,0.0,0.0,0.0,0.0,0.0,0.0,0.0,0.0,0.0,0.0,-2.5703,-2.5703,-2.5703,-2.5703,0.0,0.0,0.0,0.0,0.0,-2.5703,-2.5703,-2.5703,-2.5703,-2.5703,-2.5703,-2.5703,-2.5703,-2.5703,-2.5703,-2.5683,-2.5661,-2.5603,-2.5687,-2.5995,-2.6673,-2.7062,-2.8386,-3.1634,-3.4641,-3.6853,-3.77,-3.9161,-4.0123,-4.0123,-4.0123,-4.0123,-4.0123,-4.0123,-4.0123,-4.0123,-4.0123,-4.0181,-4.0296,-4.0315,-4.0373,-4.0489,-4.0489,-4.0389,-4.0158,-3.9686,-3.894,-3.7947,-3.7452,-3.6783,-3.6046,0.0,0.0,-3.4752,-3.4082,-3.3522,-3.3045,-3.2648,-3.2179,-3.166,-3.1329,-3.119,-3.119,0.0,0.0,0.0,0.0,0.0,0.0,0.0,0.0,0.0,0.0,0.0,0.0,0.0,0.0,0.0,0.0,0.0,0.0,0.0,0.0,0.0,-2.5303,-2.5303,-2.5649,-2.639,-2.5668,-2.5793,-2.6794,-2.7544,-2.7948,-2.8102,-2.941,-2.9198,-2.7621,-2.6024,-2.5303,-2.5303,-2.5303,0.0,0.0,0.0,0.0,0.0,0.0,0.0,0.0,0.0,0.0,0.0,-2.5703,-2.5703,-2.5703,-2.5703,0.0,0.0,0.0,0.0,0.0,-2.5703,-2.5699,-2.5691,-2.5703,-2.5703,-2.5703,-2.5703,-2.5703,-2.5703,-2.5703,-2.5659,-2.5603,-2.5606,-2.612,-2.6578,-2.6699,-2.8473,-3.076,-3.343,-3.4891,-3.5988,-3.6796,-3.7777,-3.8373,-3.8373,-3.8373,-3.8373,-3.8373,-3.8373,-3.8373,-3.8373,-3.8373,-3.8719,-3.945,-3.9469,-3.9796,-4.0489,-4.0489,-4.0473,-4.0422,-3.9413,-3.8721,-3.8267,-3.6565,-3.5565,-3.5137,0.0,-3.399,-3.3972,-3.3844,-3.3314,-3.2583,-3.2517,-3.2021,-3.1291,-3.123,-3.119,-3.119,0.0,0.0,0.0,0.0,0.0,0.0,0.0,0.0,0.0,0.0,0.0,0.0,0.0,0.0,0.0,0.0,0.0,0.0,0.0,0.0,-2.5303,-2.5303,-2.5303,-2.5707,-2.6582,-2.6217,-2.664,-2.7948,-2.8352,-2.8794,-2.9256,-2.9121,-2.814,-2.6467,-2.5649,-2.5303,-2.5303,-2.5303,-2.5303,0.0,0.0,0.0,0.0,0.0,0.0,0.0,0.0,0.0,0.0,0.0,-2.5703,-2.5703,-2.5703,0.0,0.0,0.0,0.0,0.0,-2.5137,-2.5331,-2.5698,-2.5658,-2.5648,-2.5657,-2.5657,-2.5625,-2.559,-2.5581,-2.5564,-2.552,-2.5508,-2.6146,-2.7133,-2.8483,-3.081,-3.2852,-3.4026,-3.5315,-3.6295,-3.6661,-3.7469,-3.8007,-3.8007,-3.8007,-3.8007,-3.8007,-3.8007,-3.8007,-3.8007,-3.8007,-3.818,-3.8584,-3.8604,-3.8777,-3.9142,-3.9142,-3.9392,-3.9835,-3.9143,-3.8193,-3.7017,-3.5988,-3.5087,-3.4339,0.0,-3.3807,-3.3807,-3.3807,-3.3447,-3.284,-3.2583,-3.2109,-3.1507,-3.1291,-3.119,-3.119,0.0,0.0,0.0,0.0,0.0,0.0,0.0,0.0,0.0,0.0,0.0,0.0,0.0,0.0,0.0,0.0,0.0,0.0,0.0,-2.5303,-2.5303,-2.5303,-2.5303,-2.5813,-2.689,-2.6697,-2.7428,-2.9102,-2.9102,-2.9429,-3.0063,-2.8582,-2.7082,-2.5591,-2.538,-2.5303,-2.5303,-2.5303,-2.5303,0.0,0.0,0.0,0.0,0.0,0.0,0.0,0.0,0.0,0.0,0.0,0.0,0.0,0.0,0.0,0.0,-2.4902,-2.4805,-2.4785,-2.4238,-2.4883,-2.5681,-2.5646,-2.5626,-2.5621,-2.5591,-2.5578,-2.5613,-2.5853,-2.5896,-2.5925,-2.5994,-2.6707,-2.8076,-3.0575,-3.2622,-3.4045,-3.4449,-3.5603,-3.643,-3.643,-3.7007,-3.7411,-3.7411,-3.7411,-3.7411,-3.7411,-3.7411,-3.7411,-3.7411,-3.7411,-3.7507,-3.77,-3.77,-3.7796,-3.8007,-3.8007,-3.8334,-3.8988,-3.8454,-3.7395,-3.5885,-3.5404,-3.4698,-3.3807,-3.3807,-3.3807,-3.3807,-3.3807,-3.3494,-3.3014,-3.2648,-3.2144,-3.1623,-3.1312,-3.119,-3.119,0.0,0.0,0.0,0.0,0.0,0.0,0.0,0.0,0.0,0.0,0.0,0.0,0.0,0.0,0.0,0.0,0.0,0.0,0.0,-2.5303,-2.5303,-2.5303,-2.5303,-2.6101,-2.7775,-2.7005,-2.7428,-2.9102,-2.9102,-2.9121,-2.9159,-2.8313,-2.739,-2.6467,-2.5649,-2.5303,-2.5303,-2.5303,-2.5303,-2.5322,-2.5368,0.0,0.0,0.0,0.0,0.0,0.0,0.0,0.0,0.0,0.0,0.0,0.0,0.0,-2.5684,-2.5625,-2.4141,-2.2637,-2.3086,-2.4429,-2.5703,-2.5701,-2.5696,-2.5677,-2.5615,-2.5636,-2.594,-2.689,-2.7086,-2.7235,-2.7719,-2.842,-2.9767,-3.2308,-3.2878,-3.3564,-3.518,-3.5507,-3.5603,-3.5603,-3.5641,-3.568,-3.568,-3.568,-3.568,-3.568,-3.568,-3.568,-3.568,-3.568,-3.6026,-3.6776,-3.6796,-3.718,-3.7988,-3.8007,-3.8027,-3.8084,-3.6999,-3.6293,-3.5866,-3.4791,-3.4124,-3.3807,-3.3807,-3.3807,-3.3807,-3.3807,-3.3314,-3.255,-3.2517,-3.1986,-3.123,-3.119,-3.119,-3.119,0.0,0.0,0.0,0.0,0.0,0.0,0.0,0.0,0.0,0.0,0.0,0.0,0.0,0.0,0.0,0.0,0.0,0.0,0.0,-2.5303,-2.5303,-2.5303,-2.5303,-2.5851,-2.7064,-2.7304,-2.8236,-2.991,-2.9371,-2.8832,-2.8332,-2.7486,-2.664,-2.5793,-2.5437,-2.5303,-2.5303,-2.5303,-2.5312,-2.5379,-2.5441,0.0,0.0,0.0,0.0,0.0,0.0,0.0,0.0,0.0,-2.4434,-2.4863,-2.4707,-2.5137,-2.5703,-2.5703,-2.4316,-2.2852,-2.3105,-2.3861,-2.4625,-2.4781,-2.5205,-2.5745,-2.6385,-2.6418,-2.6566,-2.7449,-2.7335,-2.7343,-2.828,-2.9229,-3.0578,-3.2583,-3.3353,-3.4122,-3.5334,-3.5493,-3.5493,-3.5493,-3.5493,-3.5493,-3.5493,-3.5493,-3.5493,-3.5493,-3.5493,-3.5493,-3.5493,-3.5493,-3.5641,-3.5949,-3.5949,-3.6122,-3.6449,-3.6449,-3.6449,-3.6449,-3.6348,-3.5912,-3.5128,-3.4487,-3.4068,-3.3807,-3.3807,-3.3807,-3.3807,-3.3807,-3.3284,-3.2451,-3.1896,-3.1504,-3.119,-3.119,-3.119,-3.119,0.0,0.0,0.0,0.0,0.0,0.0,0.0,0.0,0.0,0.0,0.0,0.0,0.0,0.0,0.0,0.0,0.0,0.0,-2.5303,-2.5303,-2.5303,-2.5303,-2.5303,-2.5707,-2.6574,-2.718,-2.8189,-2.9621,-2.9006,-2.8294,-2.7486,-2.689,-2.6274,-2.5687,-2.5418,-2.5437,-2.5687,-2.5418,-2.5339,-2.5413,-2.5463,-2.5543,0.0,0.0,0.0,0.0,0.0,0.0,0.0,0.0,-2.3496,-2.3984,0.0,0.0,-2.5137,-2.4941,-2.418,-2.3301,-2.2986,-2.345,-2.4087,-2.4222,-2.5118,-2.6194,-2.7152,-2.7373,-2.7727,-2.8961,-2.8887,-2.8741,-2.9152,-2.9862,-3.0873,-3.2295,-3.3237,-3.4083,-3.4974,-3.532,-3.5493,-3.5493,-3.5493,-3.5493,-3.5493,-3.5493,-3.5493,-3.5493,-3.5493,-3.5493,-3.5493,-3.5493,-3.5493,-3.5493,-3.5493,-3.5493,-3.5493,-3.5493,-3.5493,-3.5493,-3.5777,-3.5476,-3.4694,-3.4357,-3.3938,-3.3421,-3.3421,-3.3421,-3.3421,-3.3421,-3.3067,-3.2417,-3.1677,-3.1329,-3.119,-3.119,-3.119,-3.119,0.0,0.0,0.0,0.0,0.0,0.0,0.0,0.0,0.0,0.0,0.0,0.0,0.0,0.0,0.0,0.0,0.0,0.0,-2.5303,-2.5303,-2.5303,-2.5303,-2.5303,-2.5707,-2.6574,-2.6593,-2.7026,-2.789,-2.789,-2.7448,-2.6601,-2.6601,-2.6601,-2.6544,-2.5687,-2.5793,-2.6524,-2.5678,-2.5339,-2.5406,-2.5463,-2.5547,-2.5605,0.0,0.0,0.0,0.0,0.0,0.0,0.0,-2.3086,-2.3203,0.0,0.0,0.0,-2.3281,-2.3516,-2.371,-2.2522,-2.3274,-2.4353,-2.4245,-2.5566,-2.709,-2.7838,-2.8418,-2.9437,-3.1638,-3.2095,-3.1749,-3.0621,-3.0398,-3.0686,-3.1546,-3.2359,-3.3186,-3.4063,-3.4941,-3.5474,-3.5488,-3.5474,-3.5493,-3.5493,-3.5493,-3.5493,-3.5493,-3.5493,-3.5493,-3.5493,-3.5493,-3.5493,-3.5493,-3.5493,-3.5493,-3.5493,-3.5493,-3.5507,-3.5474,-3.5223,-3.4944,-3.4694,-3.4338,-3.3605,-3.2596,-3.2596,-3.2596,-3.2596,-3.257,-3.2531,-3.2415,-3.1969,-3.1528,-3.119,-3.1173,-3.1173,-3.119,0.0,0.0,0.0,0.0,0.0,0.0,0.0,0.0,0.0,0.0,0.0,0.0,0.0,0.0,0.0,0.0,0.0,0.0,-2.5303,-2.5303,-2.5303,-2.5303,-2.5303,-2.5428,-2.5678,-2.5688,-2.6419,-2.7901,-2.7294,-2.6841,-2.6601,-2.6601,-2.6274,-2.5687,-2.6063,-2.6024,-2.5678,-2.5453,-2.5413,-2.5482,-2.5547,-2.5605,-2.5662,0.0,0.0,0.0,0.0,0.0,0.0,0.0,0.0,0.0,0.0,0.0,0.0,-2.4023,-2.3281,-2.2812,-2.2831,-2.3127,-2.3699,-2.4891,-2.5943,-2.7066,-2.8507,-2.8971,-2.966,-3.168,-3.146,-3.0794,-3.0456,-3.0398,-3.0475,-3.0744,-3.1494,-3.234,-3.3167,-3.4038,-3.4595,-3.4584,-3.5141,-3.5493,-3.5493,-3.5493,-3.5493,-3.5493,-3.5493,-3.5493,-3.5493,-3.5493,-3.5493,-3.5493,-3.5493,-3.5493,-3.5493,-3.5493,-3.5199,-3.4584,-3.4491,-3.4238,-3.3789,-3.3478,-3.2771,-3.1751,-3.1751,-3.1751,-3.1726,-3.1447,-3.1164,-3.0826,-3.0367,-3.0293,-3.0362,-2.9837,-2.9973,-3.0429,0.0,0.0,0.0,0.0,0.0,0.0,0.0,0.0,0.0,0.0,0.0,0.0,0.0,0.0,0.0,0.0,0.0,0.0,0.0,-2.5303,-2.5303,-2.5303,-2.5303,-2.5303,-2.5303,-2.5303,-2.5813,-2.6862,-2.6341,-2.6072,-2.6082,-2.6082,-2.5986,-2.5832,-2.6034,-2.6023,-2.583,-2.5556,-2.5488,-2.5547,-2.5573,-2.5636,-2.5703,0.0,0.0,0.0,0.0,0.0,0.0,0.0,0.0,0.0,-2.1621,0.0,-2.4219,-2.3535,-2.3222,-2.3158,-2.3462,-2.3761,-2.4326,-2.5651,-2.6587,-2.7605,-2.9284,-2.994,-3.0432,-3.1253,-3.1249,-3.0948,-3.0475,-3.0398,-3.0398,-3.0398,-3.0847,-3.1354,-3.1847,-3.2923,-3.382,-3.416,-3.4661,-3.5122,-3.5468,-3.5199,-3.5141,-3.5468,-3.518,-3.5141,0.0,-3.5493,-3.5353,-3.4988,-3.4988,-3.4814,-3.4468,-3.4468,-3.4199,-3.368,-3.368,-3.3278,-3.2576,-3.2652,-3.2032,-3.0907,-3.0907,-3.0907,-3.0919,-3.1026,-3.0707,-3.0168,-2.9884,-2.9748,-2.96,-2.9144,-2.9262,-2.9702,0.0,0.0,0.0,0.0,0.0,0.0,0.0,0.0,0.0,0.0,0.0,0.0,0.0,0.0,0.0,0.0,0.0,0.0,0.0,0.0,-2.5303,-2.5303,-2.5303,-2.5303,-2.5303,-2.5303,-2.5303,-2.5303,-2.5303,-2.5303,-2.5303,-2.539,-2.5793,-2.6447,-2.5804,-2.5909,-2.6529,-2.5735,-2.543,-2.5483,-2.5488,-2.5481,-2.5488,-2.5547,0.0,0.0,0.0,0.0,0.0,0.0,0.0,0.0,-2.0684,-2.1445,-2.2305,-2.2266,-2.3178,-2.4186,-2.4125,-2.4725,-2.5582,-2.6496,-2.7479,-2.8598,-3.0067,-3.1006,-3.1371,-3.0552,-3.1218,-3.1621,-3.0602,-3.0398,-3.0398,-3.0398,-3.0393,-3.0388,-3.0388,-3.1782,-3.3077,-3.3885,-3.4026,-3.4391,-3.5199,-3.4545,-3.441,-3.5199,-3.4526,0.0,0.0,-3.5257,-3.4911,-3.4103,-3.4083,-3.3699,-3.291,-3.2891,-3.2852,-3.2795,-3.2795,-3.2223,-3.1196,-3.1803,-3.1364,-3.0099,-3.0099,-3.0099,-3.0155,-3.087,-3.0695,-3.0004,-3.0004,-2.9549,-2.8873,-2.8805,-2.8822,-2.8975,0.0,0.0,0.0,0.0,0.0,0.0,0.0,0.0,0.0,0.0,0.0,0.0,0.0,0.0,0.0,0.0,0.0,0.0,0.0,0.0,-2.5303,-2.5303,-2.5303,-2.5303,-2.5303,-2.5303,-2.5303,-2.5303,-2.5303,-2.5303,-2.5303,-2.5996,-2.6053,-2.5601,-2.6163,-2.6134,-2.5619,-2.4884,-2.4578,-2.4586,-2.4644,-2.4296,-2.3809,-2.4434,-2.4141,0.0,0.0,0.0,0.0,0.0,0.0,0.0,-2.1406,-2.1934,-2.2266,-2.2051,-2.263,-2.3352,-2.3344,-2.3864,-2.4929,-2.7155,-2.8811,-2.9982,-3.0314,-3.0552,-3.0641,-3.0436,-3.0602,-3.0698,-3.0436,-3.0398,-3.0398,-3.0398,-3.0398,-3.0386,-3.0386,-3.1306,-3.203,-3.2223,-3.2807,-3.3256,-3.3449,-3.3295,-3.3256,-3.3449,0.0,0.0,-3.3449,-3.3468,-3.3372,-3.3179,-3.3179,-3.3083,-3.2891,-3.2891,-3.2583,0.0,-3.1968,-3.1379,-3.0304,-3.0968,-3.0523,-2.925,-2.925,-2.925,-2.925,-2.9457,-2.9065,-2.8393,-2.8393,-2.8247,-2.7994,-2.7402,-2.7554,-2.8095,0.0,0.0,0.0,0.0,0.0,0.0,0.0,0.0,0.0,0.0,0.0,0.0,0.0,0.0,0.0,0.0,0.0,0.0,0.0,-2.5101,-2.5303,-2.5303,-2.5303,-2.5303,-2.5303,-2.5303,-2.5303,-2.5303,-2.5303,-2.5303,-2.5303,-2.5803,-2.5765,-2.5332,-2.5917,-2.5667,-2.4807,-2.4486,-2.4114,-2.3725,-2.3808,-2.3555,-2.3203,-2.3613,-2.3496,-2.2988,-2.2187,0.0,0.0,0.0,0.0,0.0,0.0,0.0,-2.1543,-2.1816,-2.2474,-2.3174,-2.3524,-2.415,-2.5248,-2.7401,-2.8867,-2.989,-3.0302,-3.0398,-3.0398,-3.0398,-3.0398,-3.0398,-3.0398,-3.0398,-3.0398,-3.0398,-3.0398,-3.0398,-3.0398,-3.0794,-3.1241,-3.1657,-3.2069,-3.248,-3.2865,-3.2442,-3.2338,-3.2872,0.0,-3.2371,-3.2872,-3.2891,-3.2718,-3.2333,-3.2333,-3.2141,-3.1718,-3.1698,-3.1487,-3.1083,-3.1083,-3.0636,-2.9864,-3.0132,-2.9785,-2.8994,-2.8994,-2.8994,-2.8994,-2.8994,-2.8676,-2.8129,-2.7964,-2.7762,-2.7486,-2.6894,-2.6945,-2.7334,0.0,0.0,0.0,0.0,0.0,0.0,0.0,0.0,0.0,0.0,0.0,0.0,0.0,0.0,0.0,0.0,0.0,0.0,0.0,-2.4639,-2.5091,-2.5091,-2.5226,-2.5226,-2.5111,-2.5091,-2.5091,-2.5091,-2.4947,-2.5091,-2.5524,-2.5428,-2.538,-2.5337,-2.551,-2.5079,-2.4219,-2.4195,-2.3672,-2.2891,-2.2949,-2.2852,-2.2676,-2.2832,-2.2793,-2.2578,-2.1914,-2.168,-2.1562,-2.084,0.0,0.0,0.0,0.0,-2.0742,-2.1465,-2.2259,-2.3013,-2.3618,-2.458,-2.5774,-2.7286,-2.8294,-2.9083,-2.9794,-2.9967,-2.9967,-2.9967,-3.0186,-3.0398,-3.0398,-3.0398,-3.0398,-3.0398,-3.0398,-3.0398,-3.0398,-3.0398,-3.066,-3.1395,-3.1472,-3.1742,-3.2403,-3.1678,-3.1489,0.0,0.0,-3.1522,-3.234,-3.2436,-3.216,-3.1506,-3.1487,-3.1141,-3.0398,-3.0398,-3.0398,-3.0398,-3.0398,-3.0142,-2.9696,-2.9532,-2.9289,-2.8994,-2.8994,-2.8994,-2.8994,-2.8994,-2.8725,-2.829,-2.7992,-2.7589,-2.7147,-2.6808,-2.6691,-2.6793,0.0,0.0,0.0,0.0,0.0,0.0,0.0,0.0,0.0,0.0,-2.5303,-2.5024,-2.4341,-2.4168,0.0,0.0,0.0,0.0,-2.2966,0.0,0.0,-2.4255,-2.4928,-2.4966,-2.4274,-2.4255,-2.4255,-2.4255,-2.3496,-2.4255,-2.642,-2.5659,-2.5376,-2.5472,-2.5504,-2.507,-2.4232,-2.3553,-2.2793,-2.2051,-2.207,-2.1621,-2.1016,-2.1777,-2.1582,-2.0918,-2.0801,-2.0762,-2.0762,-2.0644,-2.0605,0.0,0.0,0.0,-2.0625,-2.0742,-2.1341,-2.2003,-2.2096,-2.3728,-2.5622,-2.6545,-2.7428,-2.8082,-2.8217,-2.8236,-2.8236,-2.8236,-2.939,-3.0398,-3.0398,-3.0398,-3.0398,-3.0398,-3.0398,-3.0398,-3.0398,-3.0398,-3.0448,-3.0564,-3.0564,-3.0621,-3.0717,-3.0597,0.0,0.0,-3.0471,-3.0478,-3.04,-3.0612,-3.0667,-3.0571,-3.0571,-3.0513,-3.0398,-3.0398,-3.0398,-3.0398,-3.0398,-3.0142,-2.9696,-2.9678,-2.9416,-2.8994,-2.8994,-2.8994,-2.8994,-2.8994,-2.8583,-2.7964,-2.7926,-2.7439,-2.6774,-2.6725,-2.6691,-2.6708,0.0,0.0,0.0,0.0,0.0,0.0,0.0,0.0,0.0,0.0,0.0,-2.5178,-2.4812,-2.3928,0.0,0.0,0.0,0.0,-2.2774,-2.3167,0.0,-2.3362,-2.3717,-2.3736,-2.3381,-2.3361,-2.3368,-2.3368,-2.2997,-2.389,-2.5964,-2.5552,-2.5909,-2.6889,-2.6517,-2.5859,-2.4957,-2.3691,-2.2676,-2.1855,-2.1367,-2.123,-2.1328,-2.1211,-2.123,-2.1269,-2.0781,-2.0605,-2.0605,-2.0605,-2.0605,-2.0605,-2.0605,0.0,0.0,0.0,-2.121,-2.204,-2.29,-2.3886,-2.4973,-2.6275,-2.689,-2.7294,-2.7794,-2.789,-2.789,-2.789,-2.8486,-2.914,-2.9583,-2.9679,-2.9833,-3.0321,-3.0398,-3.0398,-3.0398,-3.0398,-3.0398,-3.0398,-3.0398,-3.0398,-3.0398,-3.0267,0.0,0.0,-3.0103,-3.0117,-3.0013,-3.0254,-3.0398,-3.0398,-3.0398,-3.0398,-3.0398,-3.0398,-3.0398,-3.0398,-3.0398,-3.0142,-2.9696,-2.9696,-2.9437,-2.8994,-2.8994,-2.8994,-2.8975,-2.8749,-2.8464,-2.8129,-2.7736,-2.7348,-2.6987,-2.6774,-2.6691,-2.6691,0.0,0.0,0.0,0.0,0.0,0.0,0.0,0.0,0.0,0.0,0.0,0.0,-2.5024,0.0,0.0,0.0,0.0,0.0,-2.212,0.0,0.0,0.0,0.0,-2.2709,-2.247,-2.2472,-2.2466,-2.2466,-2.2468,-2.3599,-2.5801,-2.576,-2.6807,-2.8643,-2.7715,-2.668,-2.5527,-2.4102,-2.3008,-2.2129,-2.1269,-2.1328,-2.1855,-2.1406,-2.1641,-2.2129,-2.123,-2.0937,-2.0898,-2.0664,-2.0605,-2.0605,-2.0605,-2.0605,0.0,0.0,0.0,-2.1522,-2.2897,-2.3383,-2.3915,-2.5551,-2.6121,-2.6468,-2.7093,-2.7236,-2.7236,-2.7236,-2.7236,-2.7486,-2.8313,-2.864,-2.9006,-2.966,-2.9756,-2.9852,-3.0044,-3.0071,-3.0136,-3.0292,-3.0286,-3.0273,-3.0228,0.0,0.0,0.0,-2.9893,-2.9908,-2.9845,-3.0122,-3.0299,-3.0299,-3.0367,-3.0398,-3.0398,-3.0398,-3.0398,-3.0398,-3.0323,-3.008,-2.9696,-2.9643,-2.9415,-2.8994,-2.8994,-2.8994,-2.8994,-2.8682,-2.8446,-2.8237,-2.7678,-2.7317,-2.7115,-2.6808,-2.6691,-2.6691,0.0,0.0,0.0,0.0,0.0,0.0,0.0,0.0,0.0,0.0,0.0,0.0,-2.4245,-2.336,-2.2466,-2.1639,0.0,0.0,0.0,0.0,0.0,0.0,0.0,0.0,-2.1586,-2.1575,-2.1575,-2.1575,-2.1575,-2.3311,-2.6637,-2.6705,-2.8104,-3.0488,-2.8867,-2.7226,-2.5644,-2.4727,-2.3828,-2.2969,-2.2168,-2.1855,-2.1973,-2.2695,-2.3047,-2.3027,-2.2148,-2.1836,-2.1719,-2.0879,-2.0605,-2.0605,-2.0605,-2.0605,-2.0605,0.0,0.0,0.0,-2.0467,-2.1296,-2.2289,-2.3831,-2.4849,-2.5453,-2.5428,-2.5437,-2.5437,-2.5437,-2.5437,-2.5687,-2.6563,-2.7409,-2.7986,-2.8025,-2.8025,-2.8294,-2.9063,-2.9175,-2.9372,-2.9966,-3.0026,-2.9953,-2.9748,0.0,0.0,0.0,-2.9607,-2.9625,-2.9434,-2.9815,-3.0013,-3.0013,-3.0267,-3.0398,-3.0398,-3.0398,-3.0398,-3.0398,-3.0136,-2.9908,-2.9696,-2.9494,-2.9267,-2.8994,-2.8994,-2.8994,-2.8994,-2.8994,-2.8576,-2.7926,-2.7897,-2.7409,-2.6725,-2.6725,-2.6691,-2.6691,0.0,0.0,0.0,0.0,0.0,0.0,0.0,0.0,0.0,0.0,0.0,0.0,0.0,-2.3321,-2.2447,-2.1581,-2.0754,0.0,0.0,0.0,0.0,0.0,0.0,0.0,-2.0743,-2.0723,-2.0723,-2.0723,-2.0723,-2.2233,-2.509,-2.5161,-2.6289,-2.8262,-2.8262,-2.793,-2.7246,-2.5234,-2.4219,-2.3867,-2.3066,-2.3047,-2.3477,-2.3203,-2.3457,-2.3867,-2.2988,-2.2695,-2.2676,-2.2324,-2.1855,-2.1348,-2.0781,-2.0215,-1.9668,-1.9102,-1.9102,-1.9355,-1.9608,-2.0714,-2.1912,-2.2435,-2.356,-2.4563,-2.4532,-2.4936,-2.5303,-2.5303,-2.5303,-2.5399,-2.5707,-2.6486,-2.7255,-2.7813,-2.789,-2.8179,-2.8986,-2.9102,-2.9394,-3.0171,-3.026,-3.0161,0.0,0.0,0.0,0.0,0.0,-2.859,-2.783,-2.8093,-2.8271,-2.8271,-2.8496,-2.8663,-2.8794,-2.8794,-2.8729,-2.8594,-2.851,-2.8252,-2.7903,-2.783,-2.7673,-2.7475,-2.7475,-2.8062,-2.8994,-2.8725,-2.8316,-2.7869,-2.7636,-2.7178,-2.6691,-2.6691,-2.6691,-2.6691,0.0,0.0,0.0,0.0,0.0,0.0,0.0,0.0,-2.4418,-2.4149,0.0,0.0,0.0,0.0,-2.2774,-2.16,-2.0754,-2.0312,-2.0312,-2.0312,0.0,0.0,0.0,0.0,-2.0312,-2.0312,-2.0312,-2.0312,-2.057,-2.1756,-2.3798,-2.4138,-2.5096,-2.6504,-2.6836,-2.7324,-2.7734,-2.5703,-2.4844,-2.4766,-2.3945,-2.3926,-2.4394,-2.4414,-2.459,-2.4766,-2.418,-2.3809,-2.3555,-2.3203,-2.2734,-2.2148,-2.1309,-2.0234,-1.9062,-1.791,-1.8184,-1.8789,-1.8447,-1.9635,-2.1093,-2.1597,-2.2547,-2.3533,-2.436,-2.4717,-2.4965,-2.5236,-2.5303,-2.5303,-2.5303,-2.5764,-2.6351,-2.6928,-2.7024,-2.7313,-2.814,-2.8255,-2.8541,-2.9327,-2.9442,0.0,0.0,0.0,0.0,0.0,0.0,0.0,-2.6841,-2.7023,-2.721,-2.7289,-2.7428,-2.7573,-2.7694,-2.7694,-2.7625,-2.7499,-2.7409,-2.7207,-2.6898,-2.6823,-2.6742,-2.6612,-2.6612,-2.7365,-2.8572,-2.8306,-2.8083,-2.7869,-2.7607,-2.7178,-2.6691,-2.6691,-2.6691,-2.6691,0.0,0.0,0.0,0.0,0.0,0.0,0.0,0.0,-2.4986,-2.4206,0.0,0.0,0.0,0.0,0.0,-2.1658,-2.0792,-2.0331,-2.0312,-2.0312,0.0,0.0,0.0,0.0,-2.0312,-2.0312,-2.0312,-2.0312,-2.1078,-2.1985,-2.2972,-2.3826,-2.4713,-2.5586,-2.4746,-2.5293,-2.6836,-2.5977,-2.5644,-2.5625,-2.4746,-2.4434,-2.4668,-2.6328,-2.6465,-2.5762,-2.5742,-2.5215,-2.4375,-2.3516,-2.3203,-2.3027,-2.2148,-2.0664,-1.8926,-1.7227,-1.7363,-1.7852,0.0,0.0,0.0,-2.129,-2.173,-2.2413,-2.4723,-2.4643,-2.4304,-2.5101,-2.5255,-2.5274,-2.5303,-2.5303,-2.5303,-2.5303,-2.5303,-2.5591,-2.6486,-2.6601,-2.6825,-2.7452,-2.7502,0.0,0.0,0.0,0.0,0.0,-2.6557,-2.6557,-2.6539,-2.6709,-2.6931,-2.7198,-2.7233,-2.7214,-2.7233,-2.7233,-2.7214,-2.7214,-2.6948,-2.6823,-2.6805,-2.6626,-2.6539,-2.6539,-2.6539,-2.6979,-2.7732,-2.775,-2.7779,-2.7826,-2.7844,-2.7361,-2.6657,-2.6691,-2.6691,-2.6691,0.0,0.0,0.0,0.0,0.0,-2.5024,-2.4225,-2.4302,-2.436,0.0,0.0,0.0,-2.4428,-2.3667,-2.2716,-2.16,-2.1293,-2.0927,-2.035,-2.0312,-2.0312,-2.0312,-2.0312,-2.0312,-2.0312,-2.0312,-2.0312,-2.0312,-2.0523,-2.107,-2.1913,-2.2251,-2.2884,-2.3735,-2.3592,-2.3809,-2.4238,-2.3945,-2.4551,-2.5625,-2.4746,-2.5156,-2.6269,-2.6113,-2.6699,-2.75,-2.6875,-2.6894,-2.709,-2.6211,-2.5508,-2.4512,-2.1816,-1.9766,-1.8262,-1.7773,-1.8262,-1.875,-1.7871,0.0,0.0,0.0,0.0,0.0,0.0,0.0,-2.3514,-2.4285,-2.4436,-2.4604,-2.5188,-2.5303,-2.5303,-2.5303,-2.5303,-2.5591,-2.6486,-2.6601,-2.6888,-2.77,0.0,0.0,0.0,0.0,0.0,0.0,-2.595,-2.5615,-2.4887,-2.491,-2.506,-2.5265,-2.5265,-2.5346,-2.5484,-2.5498,-2.5423,-2.5265,-2.5198,-2.5095,-2.4948,-2.489,-2.4869,-2.4869,-2.4869,-2.5189,-2.5742,-2.6327,-2.6411,-2.6207,-2.6556,-2.6354,-2.5981,-2.6488,-2.6691,-2.6691,0.0,0.0,0.0,-2.5303,-2.5303,-2.5024,-2.4225,-2.4379,-2.4485,0.0,0.0,0.0,-2.4601,-2.3851,-2.3148,-2.262,-2.1927,-2.1293,-2.0831,-2.0485,-2.0312,-2.0312,-2.0312,-2.0312,-2.0312,-2.0312,-2.0312,-2.0312,-2.0312,-2.0546,-2.101,-2.1118,-2.1444,-2.1947,-2.1697,-2.1973,-2.2617,-2.1836,-2.293,-2.5156,-2.5,-2.5762,-2.6973,-2.6836,-2.7422,-2.8281,-2.8144,-2.7949,-2.7676,-2.7168,-2.6172,-2.4687,-2.1992,-2.0449,-1.9414,-1.832,-1.8867,-1.957,-1.834,-1.9004,-1.9902,-1.9258,0.0,0.0,-2.1422,-2.2014,-2.2668,0.0,-2.3551,-2.3796,-2.4649,-2.4793,-2.4909,-2.5245,-2.5303,-2.5476,-2.5986,-2.6063,-2.6255,-2.6755,0.0,0.0,0.0,-2.6454,-2.6138,-2.5373,-2.5321,-2.5066,-2.4481,-2.4375,-2.4375,-2.4495,-2.4428,-2.4426,-2.4561,-2.4561,-2.4495,-2.4375,-2.4375,-2.4321,-2.419,-2.419,-2.419,-2.419,-2.419,-2.4269,-2.4432,-2.4751,-2.5066,-2.5366,-2.5634,-2.5519,-2.5186,-2.5609,-2.5778,-2.5778,0.0,0.0,-2.5303,-2.5303,-2.5303,-2.5063,-2.4341,-2.4832,-2.5043,0.0,-2.487,-2.5303,-2.5303,-2.4659,-2.4206,-2.411,-2.2581,-2.16,-2.1504,-2.0754,-2.0312,-2.0312,-2.0312,-2.0312,-2.0312,-2.0312,-2.0312,-2.0312,-2.0312,-2.0299,-2.0295,-2.0352,-2.037,-2.0309,-1.9606,-2.0156,-2.1523,-2.0156,-2.1387,-2.4316,-2.5098,-2.6113,-2.7226,-2.7891,-2.8281,-2.8535,-2.9219,-2.8457,-2.7129,-2.7031,-2.584,-2.4141,-2.2656,-2.2109,-2.1582,-1.9258,-1.9668,-2.0547,-1.9004,-1.9141,-1.9863,-2.0449,-2.0156,0.0,-2.2156,-2.2135,-2.1906,0.0,-2.2689,-2.2959,-2.3801,-2.3974,-2.4196,-2.4909,-2.5091,-2.5187,-2.5284,-2.5303,-2.5303,-2.5303,0.0,0.0,-2.5046,-2.5034,-2.4981,-2.4818,-2.476,-2.4746,-2.476,-2.4591,-2.4512,-2.4545,-2.4339,-2.4228,-2.4228,-2.4209,-2.419,-2.419,-2.419,-2.419,-2.419,-2.419,-2.419,-2.419,-2.419,-2.3996,-2.361,-2.3305,-2.3847,-2.483,-2.4906,-2.4682,-2.4404,-2.4472,-2.4506,-2.4506,0.0,-2.5303,-2.5303,-2.5303,-2.5303,-2.5245,-2.5101,-2.5187,-2.5245,-2.5101,-2.5187,-2.5303,-2.5303,-2.5149,-2.4812,-2.4168,-2.3148,-2.2254,-2.1543,-2.0754,-2.0312,-2.0312,-2.0312,-2.0312,-2.0312,-2.0312,-2.0312,-2.0312,-2.0312,-2.03,-2.0304,-2.0314,-1.9978,-1.9367,-1.927,-1.9447,-1.9883,-2.0937,-2.2148,-2.3379,-2.3535,-2.5391,-2.7988,-2.7461,-2.8125,-2.9277,-2.873,-2.834,-2.7949,-2.7246,-2.584,-2.4336,-2.4023,-2.3437,-2.2773,-2.2324,-2.2383,-2.2559,-2.2266,-2.2305,-2.2148,-2.0918,-2.1523,0.0,-2.0388,-2.0972,-2.1886,0.0,-2.2006,-2.2235,-2.2991,-2.3125,-2.318,-2.3272,-2.387,-2.4562,-2.5207,-2.5303,-2.5303,0.0,0.0,0.0,-2.5253,-2.5234,-2.5126,-2.4832,-2.4495,-2.4393,-2.4561,-2.4528,-2.4559,-2.4731,-2.4561,-2.4426,-2.4426,-2.4284,-2.419,-2.419,-2.419,-2.419,-2.419,-2.419,-2.419,-2.419,-2.419,-2.3876,-2.33,-2.323,-2.3172,-2.3215,-2.3585,-2.3684,-2.368,-2.4286,-2.4506,-2.4506,-2.5303,-2.5303,-2.5303,-2.5303,-2.5303,-2.5303,-2.5303,-2.5303,-2.5303,-2.5303,-2.5303,-2.5303,-2.5303,-2.5303,-2.5139,-2.4736,-2.3928,-2.309,-2.2216,-2.137,-2.0716,-2.0331,-2.0312,-2.0312,-2.0312,-2.0312,-2.0312,-2.0312,-2.0312,-2.0081,-1.9646,-1.9696,-1.9711,-1.9714,-1.8915,-1.931,-2.0605,-2.0605,-2.1562,-2.3184,-2.4043,-2.5703,-2.7598,-2.7168,-2.7812,-2.8887,-2.8457,-2.8027,-2.7519,-2.6641,-2.5762,-2.4961,-2.4531,-2.4394,-2.4238,-2.3437,-2.3457,-2.3652,-2.3262,-2.3144,-2.2949,-2.2109,-2.2227,0.0,0.0,-2.0893,-2.1318,-2.1678,-2.1396,-2.1477,-2.2721,-2.2559,-2.2378,-2.2779,-2.3193,-2.3581,-2.4005,-2.4774,-2.5303,0.0,0.0,0.0,-2.5303,-2.5303,-2.5233,-2.5068,-2.478,-2.4629,-2.4733,-2.4588,-2.4561,-2.4639,-2.4444,-2.4339,-2.4339,-2.4266,-2.419,-2.419,-2.419,-2.419,-2.419,-2.419,-2.419,-2.419,-2.419,-2.3816,-2.3189,-2.3189,-2.2915,-2.2525,-2.2739,-2.2852,-2.2902,-2.3274,-2.3393,-2.3393,-2.5245,-2.5303,-2.5303,-2.5303,-2.5303,-2.5303,-2.5303,-2.5303,-2.5303,-2.5303,-2.5303,-2.5303,-2.5303,-2.5303,-2.536,-2.5534,-2.4659,-2.3879,-2.3312,-2.2158,-2.1273,-2.0812,-2.0465,-2.0369,-2.0542,-2.0389,-2.0312,-2.0312,-2.0139,-1.9696,-1.8992,-1.9066,-1.9371,-1.9846,-1.8832,-1.9599,-2.1542,-2.0312,-2.1172,-2.3477,-2.4883,-2.6074,-2.6992,-2.6992,-2.7441,-2.8027,-2.7851,-2.7344,-2.6641,-2.5937,-2.5703,-2.5586,-2.4863,-2.5137,-2.543,-2.4082,-2.4141,-2.4492,-2.3789,-2.3594,-2.3535,-2.3242,-2.2773,-2.2246,0.0,0.0,0.0,-2.1383,-2.0919,0.0,0.0,0.0,0.0,0.0,0.0,0.0,0.0,-2.3755,0.0,-2.5063,0.0,0.0,0.0,-2.511,-2.5081,-2.5234,-2.4912,-2.479,-2.4943,-2.4693,-2.4561,-2.4561,-2.4357,-2.4266,-2.4266,-2.4209,-2.419,-2.419,-2.419,-2.419,-2.419,-2.419,-2.419,-2.4208,-2.4113,-2.3774,-2.3189,-2.3117,-2.2798,-2.231,-2.231,-2.231,-2.231,-2.231,-2.231,-2.231,-2.5014,-2.5303,-2.5303,-2.5303,-2.5303,-2.5303,-2.5303,-2.5303,-2.5303,-2.5303,-2.5303,-2.5303,-2.5303,-2.5303,-2.561,-2.639,-2.5005,-2.4351,-2.4976,-2.2812,-2.1793,-2.2485,-2.11,-2.0639,-2.135,-2.0658,-2.0312,-2.0312,-1.953,-1.9107,-1.8992,-1.9006,-1.868,-1.8144,-1.9519,-2.0327,-2.0708,-2.1346,-2.2637,-2.4277,-2.4473,-2.5527,-2.6992,-2.6992,-2.7051,-2.7051,-2.6269,-2.5937,-2.582,0.0,-2.5703,-2.5684,-2.5586,-2.5625,-2.5664,-2.5469,-2.5488,-2.5527,-2.543,-2.5391,-2.5039,-2.3496,-2.3613,-2.3516,-2.125,0.0,-2.1542,-2.0878,0.0,0.0,0.0,0.0,0.0,0.0,0.0,0.0,-2.0581,-2.2023,-2.337,-2.4149,0.0,0.0,0.0,-2.449,-2.4259,-2.4977,-2.4176,-2.4011,-2.4776,-2.479,-2.476,-2.476,-2.4559,-2.4461,-2.4461,-2.4284,-2.419,-2.419,-2.419,-2.419,-2.419,-2.419,-2.419,-2.417,-2.3896,-2.3544,-2.3165,-2.2873,-2.2563,-2.231,-2.231,-2.231,-2.231,-2.231,-2.231,-2.231,-2.3716,-2.4255,-2.4447,-2.3947,-2.4659,-2.5139,-2.4678,-2.5428,-2.587,-2.536,-2.5726,-2.6063,-2.6063,-2.6063,-2.6197,-2.6563,-2.5967,-2.5274,-2.4639,-2.3601,-2.2947,-2.2812,-2.1639,-2.1158,-2.1485,-2.0716,-2.0312,-2.0312,-1.9927,-1.9234,-1.8261,-1.8761,-1.8834,-1.8605,-1.9854,-2.101,-2.2034,-2.2479,-2.3066,-2.373,-2.4219,-2.4844,-2.5547,-2.6055,-2.625,-2.6191,-2.582,-2.5703,-2.5703,0.0,-2.5703,0.0,0.0,0.0,-2.5703,-2.5703,-2.5703,-2.5703,-2.5703,-2.5703,-2.5391,-2.416,-2.3789,-2.3281,-2.1719,-2.125,-2.1172,0.0,0.0,0.0,0.0,0.0,0.0,0.0,-1.9636,0.0,0.0,0.0,-2.0716,0.0,0.0,0.0,0.0,0.0,0.0,0.0,-2.4243,-2.4031,-2.486,-2.4727,-2.4623,-2.4623,-2.4426,-2.4339,-2.4339,-2.4247,-2.419,-2.419,-2.419,-2.419,-2.419,-2.419,-2.419,-2.417,-2.3855,-2.3522,-2.3165,-2.2848,-2.2537,-2.231,-2.231,-2.231,-2.231,-2.231,-2.231,-2.231,-2.2447,-2.3148,-2.3629,-2.3225,-2.4159,-2.4851,-2.4485,-2.5466,-2.6024,-2.538,-2.5851,-2.6332,-2.6563,-2.6601,-2.6774,-2.7255,-2.7082,-2.6447,-2.5226,-2.4687,-2.4139,-2.3505,-2.2447,-2.187,-2.187,-2.1043,-2.0523,-2.0312,-2.0062,-1.9292,-1.8068,-1.8703,-1.904,-1.9132,-2.0478,-2.1831,-2.3098,-2.3372,-2.3651,-2.3926,-2.4258,-2.4531,-2.4824,-2.5469,-2.5703,-2.5703,-2.5703,-2.5703,-2.5703,-2.5703,-2.5703,0.0,-2.5703,-2.5703,-2.5703,0.0,0.0,-2.5703,-2.5703,0.0,0.0,0.0,0.0,0.0,0.0,0.0,0.0,0.0,0.0,0.0,0.0,0.0,-2.0566,-2.0334,0.0,-1.9273,0.0,-1.8465,0.0,0.0,0.0,0.0,0.0,0.0,0.0,0.0,0.0,-2.3602,-2.4629,-2.4383,-2.4318,-2.4493,-2.4303,-2.419,-2.419,-2.419,-2.419,-2.419,-2.419,-2.419,-2.419,-2.419,-2.419,-2.417,-2.3753,-2.3414,-2.3165,-2.2764,-2.249,-2.231,-2.231,-2.231,-2.231,-2.231,-2.231,-2.2282,-2.1543,-2.2235,-2.3109,-2.3918,-2.411,-2.4399,-2.5159,-2.5303,-2.5322,-2.5303,-2.5322,-2.5649,-2.6505,-2.6601,-2.7255,-2.8871,-2.8313,-2.7832,-2.7775,-2.6197,-2.5245,-2.5226,-2.3639,-2.2754,-2.2754,-2.1908,-2.1081,-2.0312,-1.9453,-1.9011,-1.8953,-1.8992,-1.9011,-1.9107,-2.1688,-2.2896,-2.3058,-2.3912,-2.4796,-2.5547,-2.4727,-2.4902,-2.5664,0.0,-2.5703,-2.5703,-2.5703,0.0,0.0,-2.5703,-2.5703,0.0,0.0,0.0,0.0,0.0,0.0,0.0,0.0,0.0,0.0,-2.3652,0.0,0.0,0.0,0.0,-2.1855,0.0,0.0,0.0,0.0,-2.2095,-2.1216,-2.0427,-2.0273,0.0,0.0,0.0,0.0,0.0,0.0,0.0,0.0,0.0,0.0,0.0,0.0,0.0,-2.3759,-2.3644,-2.3825,-2.4493,-2.4303,-2.419,-2.419,-2.419,-2.419,-2.419,-2.419,-2.419,-2.419,-2.419,-2.419,-2.417,-2.35,-2.3212,-2.3141,-2.2544,-2.231,-2.231,-2.231,-2.231,-2.231,-2.231,-2.231,-2.2237,-2.235,-2.2601,-2.2716,-2.2427,-2.334,-2.4379,-2.5168,-2.5793,-2.6159,-2.6159,-2.6659,-2.7332,-2.8159,-2.8255,-2.8467,-2.9044,-2.8852,-2.8467,-2.7928,-2.6813,-2.6428,-2.7005,-2.4851,-2.3908,-2.4447,-2.3081,-2.1947,-2.11,-2.0792,-2.0088,-1.9011,-1.9581,-1.9561,-1.9119,-2.1787,-2.2979,-2.31,-2.4596,-2.5077,-2.4805,-2.4512,-2.4922,-2.5703,0.0,-2.5703,-2.5703,-2.5703,-2.5703,0.0,-2.5703,-2.5703,-2.5703,-2.5703,-2.5703,-2.5703,-2.5703,-2.5703,0.0,0.0,0.0,-2.543,-2.4277,0.0,0.0,0.0,0.0,0.0,0.0,0.0,0.0,0.0,-2.2568,-2.2081,-2.1235,-2.0658,-1.9792,0.0,0.0,0.0,0.0,0.0,0.0,0.0,0.0,0.0,0.0,-2.1677,0.0,0.0,-2.367,-2.3879,-2.4663,-2.4375,-2.419,-2.419,-2.419,-2.419,-2.419,-2.419,-2.419,-2.419,-2.419,-2.419,-2.417,-2.35,-2.3189,-2.3141,-2.2561,-2.231,-2.231,-2.231,-2.231,-2.231,-2.231,-2.231,-2.218,-2.3263,-2.3263,-2.309,-2.2524,-2.3581,-2.4697,-2.5207,-2.6043,-2.6601,-2.6601,-2.7351,-2.8198,-2.9006,-2.9102,-2.9217,-2.9544,-2.9563,-2.9083,-2.7967,-2.764,-2.7467,-2.7448,-2.5851,-2.5082,-2.5303,-2.3966,-2.2677,-2.1504,-2.1504,-2.0792,-1.9473,-2.0042,-1.9996,-1.9561,-2.1888,-2.295,-2.3116,-2.4879,-2.5327,-2.4863,-2.4863,-2.5195,0.0,0.0,-2.5703,-2.5703,0.0,-2.5703,-2.5703,-2.5703,-2.5703,-2.5703,-2.5703,-2.5703,-2.5703,-2.5703,-2.5703,-2.5703,-2.5703,-2.5703,0.0,-2.4629,-2.3984,0.0,-2.2519,0.0,-2.2717,0.0,0.0,0.0,0.0,-2.3488,-2.2983,-2.2138,-2.1278,-2.0023,0.0,-1.7003,0.0,0.0,0.0,-1.9831,0.0,-2.0312,-2.0699,-2.0954,-2.0757,0.0,0.0,0.0,-2.3441,-2.4318,-2.4262,-2.419,-2.419,-2.419,-2.419,-2.419,-2.419,-2.419,-2.419,-2.419,-2.419,-2.417,-2.35,-2.3189,-2.3141,-2.2561,-2.231,-2.231,-2.231,-2.231,-2.231,-2.231,-2.2106,-2.1721,-2.4168,-2.4168,-2.4168,-2.4168,-2.4755,-2.5245,-2.5284,-2.6043,-2.6621,-2.6659,-2.7409,-2.8275,-2.9083,-2.9159,-2.9506,-3.0321,-3.0398,-2.9717,-2.8121,-2.8698,-2.839,-2.6794,-2.664,-2.6217,-2.538,-2.4562,-2.334,-2.1639,-2.16,-2.1158,-2.0369,-2.0331,-2.0312,-2.0369,-2.2013,-2.2849,-2.3108,-2.4758,-2.5534,-2.5703,-2.5703,-2.5703,-2.5703,-2.5703,-2.5703,-2.5703,-2.5703,-2.5703,-2.5703,-2.5703,-2.5703,-2.5703,-2.5703,-2.5703,-2.5703,-2.5703,-2.5703,-2.5703,-2.5703,-2.5703,-2.5508,-2.4668,0.0,0.0,0.0,0.0,-2.4373,0.0,0.0,0.0,0.0,0.0,-2.3827,-2.2979,-2.2006,-2.0523,-1.81,-1.7061,-1.658,0.0,0.0,-1.8972,-1.8876,-1.8953,-1.9235,-1.9831,-1.9334,-1.9668,0.0,0.0,-2.2547,-2.3465,-2.3948,-2.4209,-2.419,-2.419,-2.419,-2.419,-2.419,-2.419,-2.419,-2.419,-2.419,-2.4151,-2.3482,-2.3189,-2.3117,-2.2544,-2.231,-2.231,-2.231,-2.231,-2.231,-2.2265,-2.1751,-2.0959,-2.4986,-2.4986,-2.4986,-2.4986,-2.4678,-2.4601,-2.5207,-2.6043,-2.6832,-2.7486,-2.8275,-2.9121,-2.9967,-3.0083,-3.016,-3.0379,-3.0398,-3.0206,-2.9794,-2.9352,-2.8909,-2.8467,-2.7255,-2.6505,-2.6274,-2.5428,-2.4485,-2.3437,-2.2774,-2.2023,-2.1177,-2.0581,-2.0312,-2.035,-2.1422,-2.2294,-2.3001,-2.4183,-2.5086,-2.5703,-2.5703,-2.5703,-2.5703,0.0,-2.5703,-2.5703,-2.5703,-2.5703,-2.5703,-2.5703,-2.5703,-2.5703,-2.5703,-2.5703,-2.5703,-2.5703,-2.5703,-2.5703,-2.5703,-2.5703,-2.5644,-2.543,-2.4883,-2.4336,0.0,0.0,0.0,0.0,0.0,0.0,0.0,0.0,-2.3678,-2.2119,-2.0604,-1.9415,-1.8761,-1.7933,-1.7626,-1.828,0.0,0.0,-1.726,-1.828,-1.8755,-1.8182,-1.8682,0.0,0.0,0.0,0.0,-2.3322,-2.405,-2.4339,-2.419,-2.419,-2.419,-2.419,-2.419,-2.419,-2.419,-2.419,-2.4074,-2.3795,-2.3392,-2.3069,-2.2797,-2.2453,-2.231,-2.231,-2.231,-2.231,-2.2254,-2.1899,-2.1628,-2.1337,-2.5303,-2.561,-2.5755,-2.536,-2.5563,-2.5793,-2.587,-2.6274,-2.6909,-2.7794,-2.8602,-2.9294,-2.9775,-3.0179,-3.0398,-3.0398,-3.0398,-3.0237,-2.9871,-2.9737,-2.9506,-2.9121,-2.7852,-2.7178,-2.7178,-2.5947,-2.4909,-2.411,-2.3225,-2.235,-2.1485,-2.0677,-2.0312,-2.0331,-2.1189,-2.2049,-2.2991,-2.4323,-2.5164,-2.5627,-2.5637,-2.5659,0.0,-2.5683,-2.5703,-2.5703,-2.5703,-2.5703,-2.5703,-2.5703,-2.5703,-2.5703,-2.5703,-2.5703,-2.5703,-2.5703,-2.5703,-2.5703,-2.5703,-2.5703,-2.5703,-2.5703,-2.5332,-2.4961,-2.4961,-2.4939,-2.4915,0.0,0.0,0.0,0.0,0.0,0.0,-2.1251,-1.985,-1.8992,-1.8992,-1.8261,-1.7876,-1.8376,-1.8434,0.0,0.0,-1.8179,-1.8527,-1.7564,-1.8376,0.0,0.0,0.0,0.0,-2.2182,-2.326,-2.3786,-2.3676,-2.4025,-2.419,-2.419,-2.419,-2.419,-2.419,-2.419,-2.4016,-2.3692,-2.3346,-2.3021,-2.2669,-2.2398,-2.231,-2.231,-2.231,-2.231,-2.2209,-2.1568,-2.1337,-2.1213,-2.5303,-2.6005,-2.6332,-2.5437,-2.6659,-2.7505,-2.6871,-2.6851,-2.7198,-2.7948,-2.8775,-2.9275,-2.9275,-2.9948,-3.0398,-3.0398,-3.0398,-3.0083,-2.9313,-2.9987,-3.0006,-2.914,-2.8429,-2.7948,-2.7736,-2.6255,-2.5024,-2.411,-2.3225,-2.235,-2.1485,-2.0677,-2.0312,-2.0331,-2.1023,-2.1914,-2.3005,-2.4641,-2.5406,-2.5517,-2.5561,-2.5598,-2.5605,-2.5661,-2.5683,-2.5703,-2.5703,-2.5703,-2.5703,-2.5703,-2.5703,-2.5703,-2.5703,-2.5703,-2.5703,-2.5703,-2.5703,-2.5703,-2.5703,-2.5703,-2.5703,-2.5703,-2.5703,-2.5703,-2.5703,-2.5703,-2.5703,-2.5703,-2.5659,-2.5593,0.0,0.0,0.0,-2.0712,-1.9812,-1.9377,-1.9473,-1.8761,-1.8234,-1.835,0.0,0.0,0.0,0.0,0.0,0.0,0.0,0.0,0.0,0.0,0.0,-2.0763,-2.2236,0.0,-2.3015,0.0,-2.419,-2.419,-2.419,-2.419,-2.419,-2.419,-2.3996,-2.3628,-2.3323,-2.2996,-2.2634,-2.2415,-2.231,-2.231,-2.231,-2.2254,-2.2106,-2.1291,-2.0959,-2.0797,-2.5303,-2.6005,-2.6332,-2.5437,-2.6159,-2.7024,-2.7582,-2.8236,-2.8717,-2.8871,-2.964,-3.0179,-3.0179,-3.0302,-3.0398,-3.0398,-3.0398,-3.034,-3.0179,-3.0333,-3.0006,-2.914,-2.8948,-2.8236,-2.6851,-2.6524,-2.562,-2.411,-2.3225,-2.235,-2.1485,-2.0677,-2.0312,-2.0312,-2.0446,-2.1401,-2.2959,-2.398,0.0,-2.5493,-2.5503,-2.5554,-2.5603,-2.5607,-2.5659,-2.5703,-2.5703,-2.5703,-2.5703,-2.5703,-2.5703,-2.5703,-2.5703,-2.5703,-2.5703,-2.5703,-2.5703,-2.5703,-2.5703,-2.5703,-2.5703,-2.5703,-2.5703,-2.5703,-2.5703,-2.5703,-2.5703,-2.5703,-2.5683,-2.5467,-2.4757,0.0,0.0,0.0,0.0,-2.1312,-2.2023,-2.137,-2.11,-2.1812,-2.1273,-2.0562,0.0,0.0,0.0,0.0,0.0,0.0,0.0,0.0,0.0,0.0,-2.23,0.0,0.0,0.0,-2.419,-2.419,-2.419,-2.419,-2.419,-2.419,-2.3876,-2.3282,-2.323,-2.2883,-2.2377,-2.2338,-2.231,-2.231,-2.231,-2.2061,-2.1658,-2.1181,-2.0764,-2.0348,-2.6473,-2.6894,-2.7099,-2.6539,-2.7259,-2.8044,0.0,-2.9236,-2.9602,-2.9159,-2.9467,-2.9737,-2.9737,-3.014,-3.0398,-3.0398,-3.0398,-3.0398,-3.0398,-3.0398,-3.0217,-2.9794,-2.9333,-2.8525,-2.7294,-2.6832,-2.5986,-2.4716,-2.3428,-2.2581,-2.2158,-2.0889,-2.0312,-2.035,-2.1216,-2.2057,0.0,0.0,0.0,-2.5406,-2.5434,-2.5477,-2.5493,-2.5567,-2.5629,-2.5659,-2.5683,-2.5703,-2.5703,-2.5703,-2.5703,-2.5703,-2.5703,-2.5703,-2.5703,-2.5703,-2.5703,-2.5703,-2.5703,-2.5703,-2.5703,-2.5703,-2.5703,-2.5703,-2.5703,-2.5703,-2.5703,-2.5703,-2.5703,-2.5429,-2.4557,-2.361,0.0,0.0,0.0,0.0,0.0,-2.2447,-2.2158,-2.212,-2.1754,-2.1177,0.0,0.0,0.0,0.0,0.0,0.0,0.0,0.0,0.0,0.0,0.0,0.0,0.0,0.0,0.0,-2.419,-2.419,-2.419,-2.419,-2.419,-2.3837,-2.3189,-2.3189,-2.2857,-2.231,-2.231,-2.231,-2.2282,-2.2032,-2.1794,-2.1521,-2.0878,-2.0483,-2.0246,-2.7733,-2.786,-2.7931,-2.7733,-2.8376,-2.8982,-2.9037,-2.9766,-3.0093,-2.9467,-2.9371,-2.9371,-2.9371,-2.9987,-3.0398,-3.0398,-3.0398,-3.0398,-3.0398,-3.0398,-3.0398,-3.0398,-2.9737,-2.8909,-2.7909,-2.7236,-2.6274,-2.5043,-2.3716,-2.2889,0.0,-2.137,-2.0831,0.0,0.0,0.0,0.0,0.0,-2.5139,-2.5293,-2.5354,-2.5383,-2.5408,-2.5526,-2.5587,-2.5605,-2.566,-2.5683,-2.5703,-2.5703,-2.5703,-2.5703,-2.5703,-2.5703,-2.5703,-2.5703,-2.5703,-2.5703,-2.5703,-2.5703,-2.5703,-2.5703,-2.5703,-2.5703,-2.5703,-2.5703,-2.5703,-2.5703,-2.5703,-2.5429,-2.4557,-2.392,0.0,0.0,0.0,0.0,0.0,-2.2908,-2.2543,-2.187,-2.1466,-2.1004,-2.0369,0.0,0.0,0.0,0.0,0.0,-1.8317,-1.8252,0.0,0.0,0.0,-2.1602,-2.1803,0.0,-2.419,0.0,-2.419,-2.419,-2.419,-2.419,-2.3837,-2.3189,-2.3189,-2.2857,-2.231,-2.231,-2.231,-2.2254,-2.1899,-2.1628,-2.1399,-2.0715,-2.0314,-2.0124,-2.8324,-2.8355,-2.8353,0.0,0.0,-2.8544,-2.8793,-2.9513,-3.0098,-3.0251,-3.0294,-3.0294,-3.0294,-3.034,-3.0398,-3.0398,-3.0398,-3.0398,-3.0398,-3.0398,-3.0398,-3.0398,-3.0321,-2.9525,-2.7928,-2.7813,-2.6601,0.0,0.0,-2.3167,0.0,-2.2274,-2.2562,0.0,0.0,0.0,0.0,-2.4149,-2.462,-2.5303,-2.5322,-2.5357,-2.5394,-2.5415,-2.5484,-2.5601,-2.5605,-2.5658,-2.5703,-2.5703,-2.5703,-2.5703,-2.5703,-2.5703,-2.5703,-2.5703,-2.5703,-2.5703,-2.5703,-2.5703,-2.5703,-2.5703,-2.5703,-2.5703,-2.5703,-2.5703,-2.5703,-2.5703,-2.5703,-2.5429,-2.4557,-2.4872,-2.4754,0.0,0.0,0.0,0.0,0.0,-2.2774,-2.2677,-2.135,-2.0389,0.0,-1.8215,0.0,0.0,-1.8678,0.0,-1.8501,-1.7681,-1.7868,-1.9268,0.0,-2.0996,-2.1803,-2.34,-2.419,-2.419,-2.419,-2.419,-2.419,-2.419,-2.3837,-2.3189,-2.3189,-2.2857,-2.231,-2.231,-2.231,-2.2282,-2.2237,-2.1751,-2.1055,-2.0959,-2.0431,-1.9747,0.0,0.0,0.0,0.0,0.0,0.0,0.0,-2.9604,-2.9893,-3.0136,-3.0299,-3.0398,-3.0398,-3.0398,-3.0398,-3.0398,-3.0398,-3.0398,-3.0398,-3.0398,-3.0398,-3.0398,-3.0398,-2.9621,-2.7928,-2.789,-2.689,0.0,0.0,0.0,0.0,0.0,0.0,0.0,0.0,-2.3764,-2.4129,-2.462,-2.5005,-2.5303,-2.5303,-2.5322,-2.5337,-2.5383,-2.5434,-2.5484,-2.5567,-2.5629,-2.5657,-2.5683,-2.5703,-2.5703,-2.5703,-2.5703,-2.5703,-2.5703,-2.5703,-2.5703,-2.5703,-2.5703,-2.5703,-2.5703,-2.5703,-2.5703,-2.5703,-2.5703,-2.5703,-2.5703,-2.5703,-2.5586,-2.5232,-2.4966,-2.471,0.0,0.0,0.0,0.0,0.0,-2.3398,-2.2851,-2.1754,-2.0831,-2.035,0.0,0.0,0.0,0.0,0.0,0.0,0.0,0.0,-1.8537,0.0,-2.0668,-2.1015,-2.2666,-2.3492,-2.3492,-2.3969,-2.419,-2.419,-2.419,-2.3837,-2.3165,-2.2824,-2.2535,-2.231,-2.231,-2.231,-2.2282,-2.2003,-2.1675,-2.1306,-2.0781,-2.0364,-2.0035,-3.202,0.0,-3.0014,0.0,-2.9582,-2.8802,-2.9513,-2.9626,-2.9678,-2.9893,-3.008,-3.026,-3.0379,-3.0398,-3.0398,-3.0398,-3.0398,-3.0398,-3.0398,-3.0398,-3.0398,-3.0398,-3.0398,0.0,-2.7928,-2.789,-2.7044,-2.5303,-2.4736,0.0,0.0,0.0,0.0,0.0,-2.4178,-2.4447,-2.4485,-2.5063,-2.5303,-2.5303,-2.5303,-2.5303,-2.5313,-2.5354,-2.5383,-2.5408,-2.5517,-2.5554,-2.5573,-2.5658,-2.5662,-2.5662,-2.5683,-2.5703,-2.5703,-2.5703,-2.5703,-2.5703,-2.5703,-2.5703,-2.5703,-2.5703,-2.5703,-2.5703,-2.5703,-2.5508,-2.5312,-2.5312,-2.5527,-2.5703,-2.5703,-2.513,-2.4758,-2.5085,0.0,0.0,0.0,-2.4235,0.0,-2.287,-2.16,-2.0639,-2.0331,-1.9273,0.0,0.0,0.0,0.0,0.0,0.0,0.0,0.0,0.0,0.0,0.0,-2.2538,-2.3364,-2.3364,-2.3933,-2.4151,-2.4054,-2.3837,-2.35,-2.3021,-2.2535,-2.231,-2.231,-2.231,-2.231,-2.2282,-2.1928,-2.1718,-2.1521,-2.0781,-2.0416,-2.0246,-3.243,-3.1292,-3.0448,-3.1262,-3.0063,-2.9089,-2.9372,-2.9412,-2.9493,-2.9678,-2.9713,-2.9899,-3.0355,-3.0398,-3.0398,-3.0398,-3.0398,-3.0398,-3.0398,-3.0398,-3.0398,0.0,0.0,-2.9621,-2.7928,-2.789,-2.7044,-2.5303,0.0,0.0,-2.411,0.0,-2.4505,-2.5264,-2.5284,-2.5284,-2.5284,-2.5303,-2.5303,-2.5303,-2.5303,-2.5303,-2.5303,-2.5313,-2.5329,-2.5394,-2.5406,-2.5447,-2.5503,-2.557,-2.5603,-2.5607,-2.5683,-2.5703,-2.5703,-2.5703,-2.5703,-2.5703,-2.5703,-2.5703,-2.5703,-2.5703,-2.5703,-2.5703,-2.5703,-2.5039,-2.4414,-2.4414,-2.5098,-2.5703,-2.5703,-2.5576,-2.5221,-2.4447,0.0,0.0,0.0,-2.336,0.0,-2.2793,-2.057,-1.9357,-2.0215,-1.8734,0.0,0.0,0.0,0.0,0.0,0.0,0.0,-1.9216,-2.0079,0.0,-2.1784,-2.3382,-2.419,-2.419,-2.419,-2.4016,-2.3692,-2.3021,-2.2721,-2.2695,-2.2426,-2.231,-2.231,-2.231,-2.231,-2.231,-2.2282,-2.2003,-2.1552,-2.115,-2.0698,-2.0246,-3.3366,-3.2118,-3.1091,-3.1347,-3.0081,-2.904,-2.9112,-2.9134,-2.9225,-2.9455,-2.9494,-2.9607,-2.988,-3.0052,-3.0196,0.0,-3.0398,-3.0398,0.0,-3.0398,-3.0398,-3.0398,-3.0398,-2.9621,-2.7928,-2.789,-2.7044,-2.5303,0.0,0.0,0.0,-2.4928,-2.5063,-2.5303,-2.5303,-2.5303,-2.5303,-2.5303,-2.5303,-2.5303,-2.5303,-2.5303,-2.5303,-2.5303,-2.5313,-2.5339,-2.5376,-2.5401,-2.5441,-2.5517,-2.5561,-2.5603,-2.5631,-2.5661,-2.5703,-2.5703,-2.5703,-2.5703,-2.5703,-2.5703,-2.5703,-2.5703,-2.5703,-2.5703,-2.5703,-2.5488,-2.5293,-2.5293,-2.5508,-2.5703,-2.5703,-2.5633,-2.5476,-2.5172,-2.5253,0.0,-2.4215,0.0,-2.2581,-2.1985,-2.1196,-2.06,0.0,-2.0292,0.0,0.0,0.0,0.0,0.0,0.0,0.0,0.0,-1.9787,0.0,-2.0923,-2.2556,-2.3382,-2.34,-2.3933,-2.4016,-2.3671,-2.3021,-2.2695,-2.2695,-2.2426,-2.231,-2.231,-2.231,-2.231,-2.231,-2.231,-2.2003,-2.1552,-2.115,-2.0682,-2.0246,-3.2963,-3.1843,-3.0944,-3.0944,-2.9879,-2.8994,-2.8994,-2.8994,-2.9044,-2.9225,-2.9246,-2.9332,-2.9551,-2.9696,0.0,-3.0114,-3.0215,-3.0254,-3.0254,-3.0336,-3.0398,-3.0398,-3.0398,-2.9756,-2.8371,-2.8352,0.0,-2.6274,-2.5947,-2.561,-2.5303,-2.5303,-2.5303,-2.5303,-2.5303,-2.5303,-2.5303,-2.5303,-2.5303,-2.5303,-2.5303,-2.5303,-2.5303,-2.5303,-2.5303,-2.5313,-2.5357,-2.5363,-2.5379,-2.5441,-2.5517,-2.5564,-2.5598,-2.5657,-2.5703,-2.5703,-2.5703,-2.5703,-2.5703,-2.5703,-2.5703,-2.5703,-2.5703,-2.5605,-2.5293,-2.5469,-2.5605,-2.5273,-2.5469,-2.5703,-2.5703,-2.5611,-2.5551,-2.5517,-2.5421,-2.5076,-2.4215,0.0,-2.2485,0.0,0.0,0.0,0.0,-2.1504,-2.1625,0.0,0.0,0.0,0.0,0.0,0.0,-1.8996,-2.0299,0.0,-2.1438,-2.2795,-2.3456,-2.3474,-2.3836,-2.3896,-2.3671,-2.3021,-2.2695,-2.2695,-2.2426,-2.231,-2.231,-2.231,-2.231,-2.231,-2.231,-2.2003,-2.1552,-2.115,-2.0682,-2.0246,-3.1549,-3.0742,-3.021,0.0,-2.9549,0.0,-2.8994,-2.8994,-2.8994,-2.8994,-2.8994,-2.9089,-2.9351,-2.9372,-2.9454,-2.9643,0.0,0.0,0.0,-3.0222,-3.0367,-3.0398,-3.0398,-2.9987,-2.9121,-2.9102,-2.8679,-2.7813,-2.7005,-2.6159,-2.5303,-2.5303,-2.5303,-2.5303,-2.536,-2.536,-2.5303,-2.536,-2.536,-2.5303,-2.5303,-2.5303,-2.5303,-2.5303,-2.5303,-2.5303,-2.5303,-2.5303,-2.5303,-2.5368,-2.5441,-2.5493,-2.5567,-2.5636,-2.5683,-2.5703,-2.5703,-2.5703,-2.5703,-2.5703,-2.5703,-2.5703,-2.5703,-2.5488,-2.4687,-2.5117,-2.5469,-2.4668,-2.5137,-2.5703,-2.5683,-2.5598,-2.5493,-2.5484,-2.5352,-2.4937,-2.4129,0.0,-2.2408,0.0,0.0,0.0,0.0,-2.2427,-2.3235,0.0,0.0,0.0,0.0,0.0,-1.9032,-2.0448,-2.14,-2.2244,-2.2978,-2.3804,-2.419,-2.4208,-2.3876,-2.3692,-2.3671,-2.3021,-2.2695,-2.2695,-2.2426,-2.231,-2.231,-2.231,-2.231,-2.231,-2.231,-2.2003,-2.1552,-2.115,-2.0682,-2.0246,0.0,0.0,-3.021,-3.021,-2.9549,-2.8994,-2.8994,-2.8994,-2.8994,-2.8994,-2.8994,-2.9021,-2.9089,-2.9089,-2.9093,-2.9163,-2.9533,-2.9829,-2.9999,-3.0061,-3.0196,-3.0398,-3.0398,-2.9987,-2.9121,-2.9102,-2.8371,-2.6909,-2.6697,-2.6159,-2.5303,-2.5303,-2.5303,-2.5322,-2.6005,-2.5928,-2.5341,-2.6005,-2.5909,-2.5303,-2.5303,-2.5303,-2.5303,-2.5303,-2.5303,-2.5303,-2.5303,-2.5303,-2.5293,-2.5322,-2.5379,-2.5441,-2.5493,-2.5564,-2.5634,-2.5683,-2.5703,-2.5703,-2.5703,-2.5703,-2.5703,-2.5703,-2.5703,-2.5644,-2.5449,-2.5547,-2.5644,-2.543,-2.5566,-2.5683,-2.5634,-2.5601,-2.5547,-2.5441,-2.4883,-2.4134,-2.3234,-2.235,0.0,0.0,-2.2081,-2.2485,-2.2485,-2.3851,-2.3976,0.0,0.0,0.0,0.0,-2.0659,-2.0794,-2.0503,-2.1951,-2.2813,-2.3015,-2.3804,-2.419,-2.4208,-2.3876,-2.3692,-2.3671,-2.3021,-2.2695,-2.2695,-2.2426,-2.231,-2.231,-2.231,-2.231,-2.231,-2.231,-2.2003,-2.1552,-2.115,-2.0682,-2.0246,-3.0375,-2.9953,-2.9659,-2.9659,-2.9287,-2.8994,-2.8994,-2.8994,-2.8994,-2.8994,-2.8994,-2.8994,-2.8994,-2.8994,-2.8994,-2.8994,-2.9334,-2.9607,-2.9731,-2.9908,-3.0075,-3.0209,-3.0323,-3.0179,-2.9698,-2.9698,-2.9044,-2.7736,-2.7371,-2.6948,-2.6486,-2.6082,-2.589,-2.5928,-2.6813,-2.6717,-2.5947,-2.6813,-2.6928,-2.6486,-2.6486,-2.6255,-2.589,-2.589,-2.5649,-2.5303,-2.5303,-2.5303,-2.5303,-2.5303,-2.5337,-2.5401,-2.5447,-2.5508,-2.5561,-2.5601,-2.5659,-2.5703,-2.5703,-2.5703,-2.5703,-2.5703,-2.5703,-2.5703,-2.5703,-2.5703,-2.5703,-2.5703,-2.5703,-2.5683,-2.5659,-2.5598,-2.5403,-2.498,-2.4798,-2.4122,-2.2436,-2.2139,0.0,-2.1543,-2.2274,-2.2947,-2.336,-2.4543,-2.4716,-2.3295,-2.3473,0.0,-2.1467,-2.208,-2.2052,-2.1125,-2.2336,-2.318,-2.3547,-2.3988,-2.419,-2.419,-2.4016,-2.3837,-2.3692,-2.3165,-2.2848,-2.2695,-2.2426,-2.231,-2.231,-2.231,-2.231,-2.231,-2.231,-2.1915,-2.1306,-2.1086,-2.0599,-2.0,-2.9305,-2.9067,-2.8994,-2.8994,-2.8994,-2.8994,-2.8994,-2.8994,-2.8994,-2.8994,-2.8994,-2.8994,-2.8994,-2.8994,-2.8994,-2.8994,-2.9203,-2.9351,-2.9392,-2.9731,-2.9924,-2.9954,-3.0169,-3.0286,-3.0286,-3.0286,-2.9876,-2.8994,-2.8345,-2.7972,-2.7819,-2.7129,-2.6794,-2.6832,-2.7698,-2.7601,-2.6851,-2.7717,-2.8005,-2.789,-2.789,-2.7467,-2.6794,-2.6794,-2.6351,-2.5668,-2.5534,-2.5495,-2.5476,-2.5341,-2.5339,-2.5391,-2.5398,-2.5441,-2.5498,-2.5508,-2.5595,-2.5683,-2.5683,-2.5683,-2.5703,-2.5703,-2.5703,-2.5703,-2.5703,-2.5703,-2.5703,-2.5703,-2.5703,-2.5703,-2.5683,-2.5598,-2.5249,-2.4418,-2.4752,-2.4273,-2.1831,0.0,-2.2524,-2.1773,-2.2466,-2.334,-2.4206,-2.4909,-2.5303,-2.5303,-2.4471,-2.385,-2.3568,-2.3514,-2.3033,-2.2056,-2.2776,-2.3511,-2.419,-2.419,-2.419,-2.419,-2.4151,-2.3976,-2.3692,-2.33,-2.2972,-2.2695,-2.2426,-2.231,-2.231,-2.231,-2.231,-2.2282,-2.2209,-2.1751,-2.1055,-2.0926,-2.0431,-1.9782,-3.0044,-2.9475,-2.8994,-2.8994,-2.8994,-2.8994,-2.8994,-2.8994,-2.8994,-2.8994,-2.8994,-2.8994,-2.8994,-2.8994,-2.8994,-2.8994,-2.904,-2.9156,-2.9392,-2.9454,-2.957,-2.9748,-2.9799,-2.9815,-2.9815,-2.9815,-2.9363,-2.8512,-2.8617,-2.8267,-2.7561,-2.7651,-2.7698,-2.7736,-2.8544,-2.8448,-2.7755,-2.8563,-2.8525,-2.789,-2.789,-2.7813,-2.7698,-2.7698,-2.7601,-2.739,-2.6659,-2.6409,-2.6294,-2.5553,-2.5303,-2.534,-2.5376,-2.5413,-2.5428,-2.5473,-2.5554,-2.5627,-2.5627,-2.566,-2.5703,-2.5703,-2.5703,-2.5703,-2.5703,-2.5703,-2.5703,-2.5703,-2.5703,-2.5683,-2.5631,-2.5601,-2.5278,-2.4354,-2.4309,-2.3697,-2.1771,0.0,-2.2754,-2.2601,-2.3379,-2.4216,-2.5024,-2.5226,-2.5303,-2.5303,-2.4996,-2.4495,-2.3797,-2.4099,-2.3936,-2.3084,-2.3676,-2.4061,-2.419,-2.419,-2.419,-2.4208,-2.3917,-2.3735,-2.3671,-2.3069,-2.2746,-2.2695,-2.2426,-2.231,-2.231,-2.231,-2.231,-2.2254,-2.1853,-2.1628,-2.143,-2.0667,-2.0314,-2.0158,-2.9641,-2.9255,-2.8994,-2.8994,-2.8994,-2.8994,-2.8994,-2.8994,-2.8994,-2.8994,-2.8994,-2.8994,-2.8994,-2.8994,-2.8994,-2.8994,-2.8994,-2.9044,-2.9178,-2.933,-2.9434,-2.9514,-2.9643,-2.9696,-2.9696,-2.9696,-2.9489,-2.9093,-2.8739,-2.8677,-2.8836,-2.853,-2.8445,-2.8582,-2.9429,-2.9333,-2.8602,-2.9448,-2.9583,-2.9256,-2.9256,-2.8967,-2.8544,-2.8544,-2.8275,-2.7794,-2.6909,-2.6601,-2.6467,-2.5591,-2.5303,-2.5313,-2.533,-2.5357,-2.5346,-2.5376,-2.5498,-2.5605,-2.5637,-2.5682,-2.5703,-2.5703,-2.5703,-2.5703,-2.5703,-2.5703,-2.5703,-2.5703,-2.5703,-2.5683,-2.566,-2.5611,-2.5291,-2.4399,-2.4594,0.0,0.0,-2.2947,-2.3494,-2.3494,-2.386,-2.4409,-2.5207,-2.5303,-2.5303,-2.5303,-2.5214,-2.4938,-2.4469,-2.4573,-2.4439,-2.3971,-2.41,-2.419,-2.419,-2.419,-2.419,-2.4208,-2.3876,-2.3628,-2.3414,-2.2923,-2.2625,-2.249,-2.2332,-2.231,-2.231,-2.231,-2.231,-2.2237,-2.1794,-2.146,-2.1213,-2.0534,-2.0158,-1.9929,-2.991,-2.9525,-2.9347,-2.9549,-2.9567,-2.9567,-2.9567,-2.9567,-2.9494,-2.931,-2.9457,-2.9494,-2.931,-2.9292,-2.9292,-2.9292,-2.9104,-2.8994,-2.8994,-2.9181,-2.931,-2.931,-2.9456,-2.9533,-2.9533,-2.9533,-2.9533,-2.9533,-2.8931,-2.9053,-2.9842,-2.9281,-2.9126,-2.9332,-3.0004,-2.9971,-2.9448,-3.0054,-3.0355,-3.0398,-3.0323,-2.9932,-2.939,-2.939,-2.9025,-2.8371,-2.7486,-2.7063,-2.6774,-2.5909,-2.5457,-2.5303,-2.5303,-2.5303,-2.5303,-2.5303,-2.5415,-2.5564,-2.5659,-2.5682,-2.5682,-2.5682,-2.5683,-2.5703,-2.5683,-2.5683,-2.5703,-2.5703,-2.5703,-2.5703,-2.5703,-2.566,-2.5327,-2.444,0.0,0.0,0.0,-2.3697,-2.4322,-2.4129,-2.4264,-2.462,-2.5245,-2.5303,-2.5303,-2.5303,-2.5264,-2.5163,-2.501,-2.4823,-2.4639,-2.4445,-2.4284,-2.419,-2.419,-2.419,-2.419,-2.4208,-2.3876,-2.3522,-2.3189,-2.2848,-2.2563,-2.231,-2.231,-2.231,-2.231,-2.231,-2.231,-2.2237,-2.1675,-2.1275,-2.0926,-2.0364,-1.9965,-1.969,-3.221,-3.1127,-3.0356,-3.1091,-3.1219,-3.1219,-3.1219,-3.1219,-3.0962,-3.021,-3.076,-3.0944,-3.0191,-3.0118,-3.0118,-3.0118,-2.9439,-2.8994,-2.8994,-2.9017,-2.904,-2.904,-2.9044,-2.9044,-2.9044,-2.9044,-2.9044,-2.9044,-2.9235,-2.9358,-2.9454,-2.9568,-2.9734,-2.9952,-3.0009,-3.0125,-3.0302,-3.0117,-3.0163,-3.0367,-3.0136,-3.0144,-3.0302,-3.0302,-3.0263,-3.0102,-2.9236,-2.8429,-2.7659,-2.6794,-2.5967,-2.5303,-2.5303,-2.5303,-2.5303,-2.5303,-2.5346,-2.5441,-2.5567,-2.5605,-2.5605,-2.5605,-2.5659,-2.5683,-2.5611,-2.5659,-2.5703,-2.5703,-2.5703,-2.5703,-2.5703,-2.5703,-2.5386,-2.4444,0.0,0.0,-2.3039,-2.4197,-2.4947,-2.4187,-2.4755,-2.5226,-2.5284,-2.5303,-2.5303,-2.5303,-2.5141,-2.5022,-2.501,-2.4693,-2.4426,-2.4228,-2.4209,-2.419,-2.419,-2.419,-2.419,-2.4208,-2.3876,-2.3522,-2.3189,-2.2848,-2.2563,-2.231,-2.231,-2.231,-2.231,-2.231,-2.231,-2.2225,-2.1354,-2.1039,-2.0894,-2.005,-1.9726,-1.969,-3.1187,-3.1292,-3.1274,-3.0742,-3.0779,-3.1017,-3.1347,-3.098,-3.0723,-3.0907,-3.1201,-3.1274,-3.098,-3.0944,-3.0742,-3.0246,-2.9934,-2.9549,-2.9012,-2.8994,-2.8994,-2.8994,-2.8994,-2.8994,-2.8994,-2.8994,-2.8994,-2.8994,-2.9089,-2.9225,-2.9412,-2.9493,-2.9626,-2.9813,-2.9813,-2.988,-2.9962,-2.9864,-2.988,-2.9977,-2.9984,-3.0061,-3.0163,-3.0343,-3.0398,-3.0294,-2.941,-2.8582,-2.7775,-2.689,-2.6024,-2.5303,-2.5303,-2.5303,-2.5303,-2.5303,-2.5322,-2.5354,-2.5453,-2.5513,-2.5543,-2.5543,-2.5558,-2.557,-2.5601,-2.5629,-2.5658,-2.5683,-2.5703,-2.5703,-2.5703,-2.5703,-2.5564,-2.5164,0.0,-2.5243,-2.4505,-2.4917,-2.5187,-2.4889,-2.512,-2.5303,-2.5303,-2.5303,-2.5303,-2.5303,-2.5224,-2.5122,-2.501,-2.4678,-2.441,-2.4209,-2.419,-2.419,-2.419,-2.419,-2.419,-2.4208,-2.3876,-2.3522,-2.3189,-2.2848,-2.2563,-2.231,-2.231,-2.231,-2.231,-2.231,-2.231,-2.2237,-2.1615,-2.1368,-2.1275,-2.0382,-2.0054,-2.0035,-3.0712,-3.1227,-3.1579,-3.0903,-3.1242,-3.1715,-3.21,-3.1696,-3.1439,-3.1733,-3.199,-3.2045,-3.1806,-3.177,-3.1549,-3.0999,-3.0485,-2.9971,-2.942,-2.9122,-2.8994,-2.8994,-2.8994,-2.8994,-2.8994,-2.8994,-2.8994,-2.8994,-2.8994,-2.9089,-2.9267,-2.9267,-2.9375,-2.9607,-2.9607,-2.9625,-2.9696,-2.9625,-2.9643,-2.9713,-2.978,-2.9845,-2.9939,-3.0182,-3.0267,-3.0164,-2.9379,-2.8582,-2.7775,-2.689,-2.6024,-2.5303,-2.5303,-2.5303,-2.5303,-2.5303,-2.5303,-2.5303,-2.5365,-2.5406,-2.5447,-2.5471,-2.5473,-2.5517,-2.5539,-2.5564,-2.5607,-2.566,-2.5683,-2.5703,-2.5703,-2.5703,-2.5683,-2.5605,-2.5561,-2.5493,-2.5408,-2.5363,-2.5312,-2.5293,-2.5303,-2.5303,-2.5303,-2.5303,-2.5303,-2.5303,-2.5234,-2.5107,-2.4858,-2.462,-2.441,-2.4209,-2.419,-2.419,-2.419,-2.419,-2.419,-2.4208,-2.3876,-2.3522,-2.3189,-2.2848,-2.2563,-2.231,-2.231,-2.231,-2.231,-2.231,-2.231,-2.2237,-2.1794,-2.1521,-2.1337,-2.0567,-2.0212,-2.0054,-3.1333,-3.113,-3.1155,-3.1942,-3.3022,-3.3788,-3.3788,-3.3788,-3.3495,-3.2706,-3.3293,-3.3476,-3.2706,-3.2614,-3.2614,-3.2614,-3.1127,-3.021,-3.0191,-2.9457,-2.8994,-2.8994,-2.8994,-2.8994,-2.8994,-2.8994,-2.8994,-2.8994,-2.8994,-2.8994,-2.8994,-2.8994,-2.9156,-2.9392,-2.9392,-2.9513,-2.9678,-2.9474,-2.9513,-2.9678,-2.9474,-2.9513,-2.9731,-2.9924,-2.9999,-2.9913,-2.9313,-2.8582,-2.7775,-2.6909,-2.6043,-2.5303,-2.5303,-2.5303,-2.5303,-2.5303,-2.5303,-2.5303,-2.5303,-2.5303,-2.5313,-2.5376,-2.5453,-2.5473,-2.5415,-2.5493,-2.5601,-2.5601,-2.5659,-2.5703,-2.5703,-2.5703,-2.5683,-2.5607,-2.5601,-2.5554,-2.5421,-2.5394,-2.5376,-2.5303,-2.5303,-2.5303,-2.5303,-2.5303,-2.5303,-2.5303,-2.5111,-2.4858,-2.451,-2.4512,-2.441,-2.4209,-2.419,-2.419,-2.419,-2.419,-2.419,-2.4208,-2.3858,-2.3522,-2.3189,-2.2873,-2.2563,-2.231,-2.231,-2.231,-2.231,-2.231,-2.231,-2.2237,-2.1794,-2.1368,-2.0959,-2.0483,-2.0054,-1.9711,-3.1338,-3.1434,-3.1524,-3.1529,-3.1826,-3.217,-3.2488,-3.2045,-3.1719,-3.1763,-3.1971,-3.2247,-3.2577,-3.2614,-3.2614,-3.2614,-3.1641,-3.0558,-2.9439,-2.9122,-2.8994,-2.8994,-2.8994,-2.8994,-2.8994,-2.8994,-2.8994,-2.8994,-2.8994,-2.8994,-2.8994,-2.8994,-2.9044,-2.9112,-2.9112,-2.916,-2.9206,-2.9138,-2.916,-2.9228,-2.9351,-2.9434,-2.9513,-2.9713,-2.9877,-2.9975,-2.9803,-2.9315,-2.8698,-2.8429,-2.7409,-2.612,-2.5495,-2.5303,-2.5303,-2.5303,-2.5303,-2.5303,-2.5303,-2.5303,-2.5293,-2.5312,-2.5329,-2.5371,-2.5379,-2.5477,-2.5547,-2.5595,-2.5659,-2.5703,-2.5703,-2.5703,-2.5683,-2.5662,-2.5633,-2.5595,-2.5551,-2.5493,-2.5453,-2.5376,-2.5379,-2.5337,-2.5293,-2.5303,-2.5303,-2.5303,-2.5111,-2.4962,-2.4858,-2.4636,-2.4478,-2.441,-2.4266,-2.419,-2.419,-2.419,-2.419,-2.419,-2.4094,-2.3735,-2.3189,-2.3093,-2.2798,-2.231,-2.231,-2.231,-2.231,-2.231,-2.231,-2.2282,-2.2152,-2.1811,-2.1368,-2.0959,-2.0532,-2.0089,-3.0907,-3.1133,-3.1289,-3.1093,-3.1467,-3.1874,-3.2143,-3.153,-3.1175,-3.1583,-3.1681,-3.1916,-3.2533,-3.2738,-3.2894,-3.3046,-3.2045,-3.0723,-2.9104,-2.8994,-2.8994,-2.8994,-2.8994,-2.8994,-2.8994,-2.8994,-2.8994,-2.8994,-2.8994,-2.8994,-2.8994,-2.8994,-2.8994,-2.8994,-2.8994,-2.8994,-2.8994,-2.8994,-2.8994,-2.8998,-2.9178,-2.9246,-2.9267,-2.9475,-2.9661,-2.9725,-2.9447,-2.9193,-2.8931,-2.8586,-2.78,-2.6822,-2.6062,-2.5761,-2.5642,-2.5389,-2.5303,-2.5303,-2.5303,-2.5303,-2.5303,-2.5303,-2.5303,-2.5313,-2.5346,-2.5408,-2.5468,-2.5551,-2.5607,-2.5662,-2.5703,-2.5703,-2.5703,-2.5703,-2.5661,-2.5633,-2.5603,-2.5561,-2.5493,-2.5408,-2.5406,-2.5379,-2.5322,-2.5303,-2.5303,-2.5303,-2.5192,-2.5088,-2.4991,-2.4804,-2.4636,-2.4512,-2.4375,-2.4284,-2.419,-2.419,-2.419,-2.419,-2.4074,-2.3795,-2.3392,-2.3117,-2.2789,-2.2436,-2.2349,-2.231,-2.231,-2.231,-2.231,-2.231,-2.231,-2.2003,-2.1552,-2.115,-2.0682,-2.0246,-3.0251,-3.048,-3.0733,-3.0733,-3.1672,-3.2366,-3.2329,-3.1706,-3.1351,-3.1678,-3.1784,-3.1962,-3.2336,-3.278,-3.3201,-3.3634,-3.2224,-3.0668,-2.9148,-2.9007,-2.8952,-2.8994,-2.8994,-2.8994,-2.8994,-2.8994,-2.8994,-2.8994,-2.8994,-2.8994,-2.8994,-2.8994,-2.8994,-2.8994,-2.8994,-2.8994,-2.8994,-2.8994,-2.8994,-2.8994,-2.8994,-2.8994,-2.904,-2.9267,-2.9392,-2.9321,-2.8724,-2.866,-2.8746,-2.7875,-2.7589,-2.7483,-2.686,-2.6534,-2.6276,-2.5587,-2.5389,-2.5399,-2.5322,-2.5303,-2.5303,-2.5303,-2.5303,-2.5303,-2.5303,-2.5346,-2.5415,-2.5498,-2.5554,-2.5629,-2.5683,-2.5703,-2.5703,-2.5703,-2.5703,-2.5683,-2.5629,-2.5605,-2.5561,-2.5434,-2.5401,-2.5376,-2.5322,-2.5293,-2.5303,-2.5303,-2.5303,-2.5214,-2.5034,-2.501,-2.4858,-2.4559,-2.4528,-2.441,-2.4228,-2.4209,-2.419,-2.4208,-2.3896,-2.3714,-2.3671,-2.3069,-2.2772,-2.2721,-2.2436,-2.2349,-2.2321,-2.231,-2.231,-2.231,-2.231,-2.2003,-2.1491,-2.1134,-2.0698,-2.0193,-3.0992,-3.1053,-3.1113,-3.1113,-3.1308,-3.1394,-3.1046,-3.0386,-2.9837,-2.9674,-2.9663,-2.9923,-3.0636,-3.1324,-3.2005,-3.2723,-3.138,-3.0163,-2.952,-2.8876,-2.8658,-2.8994,-2.8994,-2.8994,-2.8994,-2.8994,-2.8994,-2.8994,-2.8994,-2.8994,-2.8994,-2.8994,-2.8994,-2.8994,-2.8994,-2.8994,-2.8994,-2.8994,-2.8994,-2.8994,-2.8994,-2.8994,-2.9017,-2.9067,-2.9222,-2.9375,-2.9248,-2.9307,-2.9385,-2.8499,-2.8196,-2.8064,-2.7301,-2.7144,-2.7083,-2.6251,-2.6148,-2.6178,-2.5495,-2.5303,-2.5303,-2.5303,-2.5303,-2.5303,-2.5303,-2.5346,-2.5408,-2.5498,-2.5554,-2.5629,-2.5683,-2.5703,-2.5703,-2.5703,-2.5703,-2.5683,-2.5683,-2.5683,-2.5658,-2.5564,-2.5517,-2.5459,-2.5383,-2.533,-2.5303,-2.5303,-2.5303,-2.5274,-2.5243,-2.5088,-2.4974,-2.4879,-2.4636,-2.4478,-2.4445,-2.4266,-2.419,-2.419,-2.4132,-2.3937,-2.3692,-2.3544,-2.3346,-2.3069,-2.2764,-2.2625,-2.2599,-2.2388,-2.231,-2.231,-2.231,-2.1811,-2.1118,-2.1023,-2.0499,-1.9767,-3.119,-3.119,-3.119,-3.119,-3.119,-3.0997,-3.0441,-3.0016,-2.9661,-2.9281,-2.9586,-3.0036,-3.068,-3.121,-3.1392,-3.111,-3.055,-2.987,-2.9089,-2.847,-2.8412,-2.8994,-2.8651,-2.8558,-2.8707,-2.8707,-2.8815,-2.8994,-2.8994,-2.8994,-2.8994,-2.8994,-2.8994,-2.8994,-2.8994,-2.8994,-2.8994,-2.8994,-2.8994,-2.8994,-2.8994,-2.8994,-2.8994,-2.8994,-2.9089,-2.9203,-2.9203,-2.9373,-2.9495,-2.9133,-2.8967,-2.8745,-2.8005,-2.7775,-2.7654,-2.7015,-2.6925,-2.6868,-2.6119,-2.5928,-2.5832,-2.5399,-2.5303,-2.5303,-2.5303,-2.534,-2.5379,-2.5441,-2.5473,-2.552,-2.5634,-2.5659,-2.5661,-2.5683,-2.5703,-2.5703,-2.5703,-2.5703,-2.5682,-2.5605,-2.5564,-2.5517,-2.542,-2.5379,-2.5339,-2.5293,-2.5303,-2.5303,-2.5303,-2.5203,-2.5099,-2.501,-2.4766,-2.4591,-2.4495,-2.4303,-2.419,-2.419,-2.419,-2.4113,-2.3937,-2.3774,-2.3588,-2.3414,-2.3093,-2.2848,-2.2695,-2.2537,-2.2426,-2.2282,-2.2032,-2.1675,-2.1244,-2.0813,-2.0277,-1.9603,-3.119,-3.119,-3.119,-3.119,-3.119,-3.0987,-3.0378,-3.0192,-2.9966,-2.9661,-3.0162,-3.0716,-3.1056,-3.1445,-3.1179,-2.9903,-2.9911,-2.9589,-2.8649,-2.8078,-2.8093,-2.8791,-2.8228,-2.802,-2.8316,-2.8316,-2.8515,-2.8905,-2.897,-2.8994,-2.8994,-2.8994,-2.8994,-2.8994,-2.8994,-2.8994,-2.8994,-2.8994,-2.8994,-2.8994,-2.8994,-2.8994,-2.8994,-2.8994,-2.8994,-2.8994,-2.8994,-2.9156,-2.9372,-2.9533,-2.9474,-2.9241,-2.8671,-2.8409,-2.8222,-2.774,-2.7657,-2.7586,-2.6929,-2.6677,-2.6428,-2.5687,-2.5399,-2.5303,-2.5303,-2.5303,-2.5322,-2.5391,-2.5394,-2.5447,-2.5587,-2.5601,-2.5611,-2.5683,-2.5703,-2.5703,-2.5703,-2.5703,-2.5683,-2.5611,-2.5605,-2.5551,-2.5421,-2.542,-2.5376,-2.5312,-2.5322,-2.5303,-2.5303,-2.5303,-2.5224,-2.5065,-2.4896,-2.4716,-2.4543,-2.4321,-2.419,-2.419,-2.419,-2.419,-2.419,-2.3917,-2.3735,-2.3692,-2.3346,-2.3021,-2.2695,-2.266,-2.25,-2.2254,-2.1869,-2.1628,-2.1399,-2.0516,-2.0,-1.9566,-3.119,-3.119,-3.119,-3.119,-3.119,-3.1157,-3.1072,-3.0514,-3.0074,-3.0031,-3.0099,-3.0187,-3.0262,-3.0887,-3.1206,-3.0963,-2.985,-2.923,-2.936,-2.8108,-2.7589,-2.8037,-2.7954,-2.7926,-2.7982,-2.7982,-2.8129,-2.8471,-2.8839,-2.8994,-2.8994,-2.8994,-2.8994,-2.8994,-2.8994,-2.8994,-2.8994,-2.8994,-2.8994,-2.8994,-2.8994,-2.8994,-2.8994,-2.8994,-2.8994,-2.8994,-2.8994,-2.9021,-2.9044,-2.9089,-2.9089,-2.9026,-2.8942,-2.9058,-2.9077,-2.8259,-2.8299,-2.845,-2.7605,-2.6991,-2.6563,-2.6447,-2.587,-2.5303,-2.5303,-2.5303,-2.5322,-2.5391,-2.5394,-2.5447,-2.5587,-2.5601,-2.5611,-2.5683,-2.5703,-2.5703,-2.5703,-2.5703,-2.5703,-2.5683,-2.5634,-2.5564,-2.5484,-2.5434,-2.5406,-2.5391,-2.533,-2.5303,-2.5303,-2.5303,-2.5303,-2.5264,-2.4949,-2.479,-2.476,-2.4393,-2.419,-2.419,-2.419,-2.419,-2.419,-2.4151,-2.3976,-2.3692,-2.3346,-2.3021,-2.2669,-2.2436,-2.2321,-2.2282,-2.2237,-2.1751,-2.0991,-2.0104,-1.9747,-1.9603,-3.119,-3.119,-3.1072,-3.0666,-3.092,-3.092,-3.0091,-3.0395,-3.0565,-3.0159,-3.0463,-3.0717,-3.0717,-3.1004,-3.1021,-3.0615,-2.9989,-2.9411,-2.8935,-2.8064,-2.769,-2.7886,-2.747,-2.7317,-2.756,-2.756,-2.7648,-2.7805,-2.8368,-2.8658,-2.8658,-2.8887,-2.8863,-2.8682,-2.8905,-2.8881,-2.8682,-2.8887,-2.8994,-2.8994,-2.8994,-2.8994,-2.8994,-2.8994,-2.8994,-2.8994,-2.8994,-2.8994,-2.8994,-2.8994,-2.8994,-2.8994,-2.8994,-2.9067,-2.9129,-2.8905,-2.897,-2.8997,-2.8398,-2.8045,-2.7623,-2.6811,-2.6313,-2.5909,-2.5399,-2.5303,-2.5303,-2.5339,-2.5337,-2.5368,-2.5463,-2.5526,-2.5564,-2.5634,-2.5682,-2.5703,-2.5703,-2.5703,-2.5703,-2.5703,-2.5662,-2.5633,-2.5561,-2.5508,-2.5441,-2.5406,-2.5339,-2.5303,-2.5303,-2.5303,-2.5303,-2.5303,-2.4962,-2.4804,-2.4804,-2.441,-2.419,-2.419,-2.419,-2.419,-2.419,-2.419,-2.4113,-2.3976,-2.361,-2.33,-2.2947,-2.2652,-2.2453,-2.2265,-2.2003,-2.1368,-2.055,-2.0193,-1.9909,-1.9603]},{"header":{"parameterUnit":"m.s-1","parameterCategory":1,"la1":30.6,"la2":28.766,"lo1":-90.7593,"lo2":-88.6598,"dy":0.0162,"dx":0.0183,"nx":116,"ny":114,"refTime":"2024-05-26T06:00:00:Z","depth":0,"parameterNumber":3,"parameterNumberName":"V-component_of_WINDS"},"data":[0.0,0.0,0.0,0.0,0.0,0.0,0.0,0.0,0.0,0.0,0.0,0.0,0.0,0.0,0.0,0.0,0.0,0.0,0.0,0.0,0.0,0.0,0.0,0.0,0.0,0.0,0.0,0.0,0.0,0.0,0.0,0.0,0.0,0.0,0.0,0.0,0.0,0.0,0.0,0.0,0.0,0.0,0.0,0.0,0.0,0.0,0.0,0.0,0.0,0.0,0.0,0.0,0.0,0.0,0.0,0.0,0.0,0.0,0.0,0.0,0.0,0.0,0.0,0.0,0.0,0.0,0.0,0.0,0.0,0.0,0.0,0.0,0.0,0.0,0.0,0.0,0.0,0.0,0.0,0.0,0.0,0.0,0.0,0.0,0.0,0.0,0.0,0.0,0.0,0.0,0.0,0.0,0.0,0.0,0.0,0.0,0.0,0.0,0.0,0.0,0.0,0.0,0.0,0.0,0.0,0.0,0.0,0.0,0.0,0.0,0.0,0.0,0.0,0.0,0.0,0.0,0.0,0.0,0.0,0.0,0.0,0.0,0.0,0.0,0.0,0.0,0.0,0.0,0.0,0.0,0.0,0.0,0.0,0.0,0.0,0.0,0.0,0.0,0.0,0.0,0.0,0.0,0.0,0.0,0.0,0.0,0.0,0.0,0.0,0.0,0.0,0.0,0.0,0.0,0.0,0.0,0.0,0.0,0.0,0.0,0.0,0.0,0.0,0.0,0.0,0.0,0.0,0.0,0.0,0.0,0.0,0.0,0.0,0.0,0.0,0.0,0.0,0.0,0.0,0.0,0.0,0.0,0.0,0.0,0.0,0.0,0.0,0.0,0.0,0.0,0.0,0.0,0.0,0.0,0.0,0.0,0.0,0.0,0.0,0.0,0.0,0.0,0.0,0.0,0.0,0.0,0.0,0.0,0.0,0.0,0.0,0.0,0.0,0.0,0.0,0.0,0.0,0.0,0.0,0.0,0.0,0.0,0.0,0.0,0.0,0.0,0.0,0.0,0.0,0.0,0.0,0.0,0.0,0.0,0.0,0.0,0.0,0.0,0.0,0.0,0.0,0.0,0.0,0.0,0.0,0.0,0.0,0.0,0.0,0.0,0.0,0.0,0.0,0.0,0.0,0.0,0.0,0.0,0.0,0.0,0.0,0.0,0.0,0.0,0.0,0.0,0.0,0.0,0.0,0.0,0.0,0.0,0.0,0.0,0.0,0.0,0.0,0.0,0.0,0.0,0.0,0.0,0.0,0.0,0.0,0.0,0.0,0.0,0.0,0.0,0.0,0.0,0.0,0.0,0.0,0.0,0.0,0.0,0.0,0.0,0.0,0.0,0.0,0.0,0.0,0.0,0.0,0.0,0.0,0.0,0.0,0.0,0.0,0.0,0.0,0.0,0.0,0.0,0.0,0.0,0.0,0.0,0.0,0.0,0.0,0.0,0.0,0.0,0.0,0.0,0.0,0.0,0.0,0.0,0.0,0.0,0.0,0.0,0.0,0.0,0.0,0.0,0.0,0.0,0.0,0.0,0.0,0.0,0.0,0.0,0.0,0.0,0.0,0.0,0.0,0.0,0.0,0.0,0.0,0.0,0.0,0.0,0.0,0.0,0.0,0.0,0.0,0.0,0.0,0.0,0.0,0.0,0.0,0.0,0.0,0.0,0.0,0.0,0.0,0.0,0.0,0.0,0.0,0.0,0.0,0.0,0.0,0.0,0.0,0.0,0.0,0.0,0.0,0.0,0.0,0.0,0.0,0.0,0.0,0.0,0.0,0.0,0.0,0.0,0.0,0.0,0.0,0.0,0.0,0.0,0.0,0.0,0.0,0.0,0.0,0.0,0.0,0.0,0.0,0.0,0.0,0.0,0.0,0.0,0.0,0.0,0.0,0.0,0.0,0.0,0.0,0.0,0.0,0.0,0.0,0.0,0.0,0.0,0.0,0.0,0.0,0.0,0.0,0.0,0.0,0.0,0.0,0.0,0.0,0.0,0.0,0.0,0.0,0.0,0.0,0.0,0.0,0.0,0.0,0.0,0.0,0.0,0.0,0.0,0.0,0.0,0.0,0.0,0.0,0.0,0.0,0.0,0.0,0.0,0.0,0.0,0.0,0.0,0.0,0.0,0.0,0.0,0.0,0.0,0.0,0.0,0.0,0.0,0.0,0.0,0.0,0.0,0.0,0.0,0.0,0.0,0.0,0.0,0.0,0.0,0.0,0.0,0.0,0.0,0.0,0.0,0.0,0.0,0.0,0.0,0.0,0.0,0.0,0.0,0.0,0.0,0.0,0.0,0.0,0.0,0.0,0.0,0.0,0.0,0.0,0.0,0.0,0.0,0.0,0.0,0.0,0.0,0.0,0.0,0.0,0.0,0.0,0.0,0.0,0.0,0.0,0.0,0.0,0.0,0.0,0.0,0.0,0.0,0.0,0.0,0.0,0.0,0.0,0.0,0.0,0.0,0.0,0.0,0.0,0.0,0.0,0.0,0.0,0.0,0.0,0.0,0.0,0.0,0.0,0.0,0.0,0.0,0.0,0.0,0.0,0.0,0.0,0.0,0.0,0.0,0.0,0.0,0.0,0.0,0.0,0.0,0.0,0.0,0.0,0.0,0.0,0.0,0.0,0.0,0.0,0.0,0.0,0.0,0.0,0.0,0.0,0.0,0.0,0.0,0.0,0.0,0.0,0.0,0.0,0.0,0.0,0.0,0.0,0.0,0.0,0.0,0.0,0.0,0.0,0.0,0.0,0.0,0.0,0.0,0.0,0.0,0.0,0.0,0.0,0.0,0.0,0.0,0.0,0.0,0.0,0.0,0.0,0.0,0.0,0.0,0.0,0.0,0.0,0.0,0.0,0.0,0.0,0.0,0.0,0.0,0.0,0.0,0.0,0.0,0.0,0.0,0.0,0.0,0.0,0.0,0.0,0.0,0.0,0.0,0.0,0.0,0.0,0.0,0.0,0.0,0.0,0.0,0.0,0.0,0.0,0.0,0.0,0.0,0.0,0.0,0.0,0.0,0.0,0.0,0.0,0.0,0.0,0.0,0.0,0.0,0.0,0.0,0.0,0.0,0.0,0.0,0.0,0.0,0.0,0.0,0.0,0.0,0.0,0.0,0.0,0.0,0.0,0.0,0.0,0.0,0.0,0.0,0.0,0.0,0.0,0.0,0.0,0.0,0.0,0.0,0.0,0.0,0.0,0.0,0.0,0.0,0.0,0.0,0.0,0.0,0.0,0.0,0.0,0.0,0.0,0.0,0.0,0.0,0.0,0.0,0.0,0.0,0.0,0.0,0.0,0.0,0.0,0.0,0.0,0.0,0.0,0.0,0.0,0.0,0.0,0.0,0.0,0.0,0.0,0.0,0.0,0.0,0.0,0.0,0.0,0.0,0.0,0.0,0.0,0.0,0.0,0.0,0.0,0.0,0.0,0.0,0.0,0.0,0.0,0.0,0.0,0.0,0.0,0.0,0.0,0.0,0.0,0.0,0.0,0.0,0.0,0.0,0.0,0.0,0.0,0.0,0.0,0.0,0.0,0.0,0.0,0.0,0.0,0.0,0.0,0.0,0.0,0.0,0.0,0.0,0.0,0.0,0.0,0.0,0.0,0.0,0.0,0.0,0.0,0.0,0.0,0.0,0.0,0.0,0.0,0.0,0.0,0.0,0.0,0.0,0.0,0.0,0.0,0.0,0.0,0.0,0.0,0.0,0.0,0.0,0.0,0.0,0.0,0.0,0.0,0.0,0.0,0.0,0.0,0.0,0.0,0.0,0.0,0.0,0.0,0.0,0.0,0.0,0.0,0.0,0.0,0.0,0.0,0.0,0.0,0.0,0.0,0.0,0.0,0.0,0.0,0.0,0.0,0.0,0.0,0.0,0.0,0.0,0.0,0.0,0.0,0.0,0.0,0.0,0.0,0.0,0.0,0.0,0.0,0.0,0.0,0.0,0.0,0.0,0.0,0.0,0.0,0.0,0.0,0.0,0.0,0.0,0.0,0.0,0.0,0.0,0.0,0.0,0.0,0.0,0.0,0.0,0.0,0.0,0.0,0.0,0.0,0.0,0.0,0.0,0.0,0.0,0.0,0.0,0.0,0.0,0.0,0.0,0.0,0.0,0.0,0.0,0.0,0.0,0.0,0.0,0.0,0.0,0.0,0.0,0.0,0.0,0.0,0.0,0.0,0.0,0.0,0.0,0.0,0.0,0.0,0.0,0.0,0.0,0.0,0.0,0.0,0.0,0.0,0.0,0.0,0.0,0.0,0.0,0.0,0.0,0.0,0.0,0.0,0.0,0.0,0.0,0.0,0.0,0.0,0.0,0.0,0.0,0.0,0.0,0.0,0.0,0.0,0.0,0.0,0.0,0.0,0.0,0.0,0.0,0.0,0.0,0.0,0.0,0.0,0.0,0.0,0.0,0.0,0.0,0.0,0.0,0.0,0.0,0.0,0.0,0.0,0.0,0.0,0.0,0.0,0.0,0.0,0.0,0.0,0.0,0.0,0.0,0.0,0.0,0.0,0.0,0.0,0.0,0.0,0.0,0.0,0.0,0.0,0.0,0.0,0.0,0.0,0.0,0.0,0.0,0.0,0.0,0.0,0.0,0.0,0.0,0.0,0.0,0.0,0.0,0.0,0.0,0.0,0.0,0.0,0.0,0.0,0.0,0.0,0.0,0.0,0.0,0.0,0.0,0.0,0.0,0.0,0.0,0.0,0.0,0.0,0.0,0.0,0.0,0.0,0.0,0.0,0.0,0.0,0.0,0.0,0.0,0.0,0.0,0.0,0.0,0.0,0.0,0.0,0.0,0.0,0.0,0.0,0.0,0.0,0.0,0.0,0.0,0.0,0.0,0.0,0.0,0.0,0.0,0.0,0.0,0.0,0.0,0.0,0.0,0.0,0.0,0.0,0.0,0.0,0.0,0.0,0.0,0.0,0.0,0.0,0.0,0.0,0.0,0.0,0.0,0.0,0.0,0.0,0.0,0.0,0.0,0.0,0.0,0.0,0.0,0.0,0.0,0.0,0.0,0.0,0.0,0.0,0.0,0.0,0.0,0.0,0.0,0.0,0.0,0.0,0.0,0.0,0.0,0.0,0.0,0.0,0.0,0.0,0.0,0.0,0.0,0.0,0.0,0.0,0.0,0.0,0.0,0.0,0.0,0.0,0.0,0.0,0.0,0.0,0.0,0.0,0.0,0.0,0.0,0.0,0.0,0.0,0.0,0.0,0.0,0.0,0.0,0.0,0.0,0.0,0.0,0.0,0.0,0.0,0.0,0.0,0.0,0.0,0.0,0.0,0.0,0.0,0.0,0.0,0.0,0.0,0.0,0.0,0.0,0.0,0.0,0.0,0.0,0.0,0.0,0.0,0.0,0.0,0.0,0.0,0.0,0.0,0.0,0.0,0.0,0.0,0.0,0.0,0.0,0.0,0.0,0.0,0.0,0.0,0.0,0.0,0.0,0.0,0.0,0.0,0.0,0.0,0.0,0.0,0.0,0.0,0.0,0.0,0.0,0.0,0.0,0.0,0.0,0.0,0.0,0.0,0.0,0.0,0.0,0.0,0.0,0.0,0.0,0.0,0.0,0.0,0.0,0.0,0.0,0.0,0.0,0.0,0.0,0.0,0.0,0.0,0.0,0.0,0.0,0.0,0.0,0.0,0.0,0.0,0.0,0.0,0.0,0.0,0.0,0.0,0.0,0.0,0.0,0.0,0.0,0.0,0.0,0.0,0.0,0.0,0.0,0.0,0.0,0.0,0.0,0.0,0.0,0.0,0.0,0.0,0.0,0.0,0.0,0.0,0.0,0.0,0.0,0.0,0.0,0.0,0.0,0.0,0.0,0.0,0.0,0.0,0.0,0.0,0.0,0.0,0.0,0.0,0.0,0.0,0.0,0.0,0.0,0.0,0.0,0.0,0.0,0.0,0.0,0.0,0.0,0.0,0.0,0.0,0.0,0.0,0.0,0.0,0.0,0.0,0.0,0.0,0.0,0.0,0.0,0.0,0.0,0.0,0.0,0.0,0.0,0.0,0.0,0.0,0.0,0.0,0.0,0.0,0.0,0.0,0.0,0.0,0.0,0.0,0.0,0.0,0.0,0.0,0.0,-1.1079,0.0,0.0,0.0,0.0,0.0,0.0,0.0,0.0,0.0,0.0,0.0,0.0,0.0,0.0,0.0,0.0,0.0,0.0,0.0,0.0,0.0,0.0,0.0,0.0,0.7772,0.8037,0.8037,0.8179,0.8289,0.8289,0.0,0.0,0.0,0.0,0.0,0.8696,0.8502,0.879,0.9609,0.9334,0.9379,0.9651,0.9738,0.8962,0.7494,0.0,0.0,0.0,0.0,0.0,0.0,0.0,0.0,0.0,0.0,0.0,0.0,0.0,0.0,0.0,0.0,0.0,0.0,0.0,0.0,0.0,0.0,0.0,0.0,0.0,0.0,0.0,0.0,0.0,0.0,0.0,0.0,0.0,0.0,0.0,0.0,0.0,0.0,0.0,0.0,0.0,0.0,0.0,0.0,0.0,0.0,0.0,0.0,0.0,0.0,0.0,0.0,0.0,0.0,0.0,0.0,0.0,0.0,0.0,0.0,0.0,0.0,0.0,0.0,0.0,0.0,0.0,0.0,0.0,0.0,0.0,-1.1786,0.0,0.0,0.0,0.0,0.0,0.0,0.0,0.0,0.0,0.0,0.0,0.0,0.0,0.0,0.0,0.0,0.0,0.0,0.0,0.0,0.0,0.6611,0.7148,0.791,0.8469,0.8584,0.8793,0.8921,0.8921,0.8539,0.0,0.0,0.0,0.8393,0.8578,0.8728,0.9497,1.0958,1.037,1.0598,1.1545,1.1469,1.0334,0.8369,0.793,0.0,0.0,0.0,0.0,0.0,0.0,0.0,0.0,0.0,0.0,0.0,0.0,0.0,0.0,0.0,0.0,0.0,0.0,0.0,0.0,0.0,0.0,0.0,0.0,0.0,0.0,0.0,0.0,0.0,0.0,0.0,0.0,0.0,0.0,0.0,0.0,0.0,0.0,0.0,0.0,0.0,0.0,0.0,0.0,0.0,0.0,0.0,0.0,0.0,0.0,0.0,0.0,0.0,0.0,0.0,0.0,0.0,0.0,0.0,0.0,0.0,0.0,0.0,-1.0087,-1.0221,-0.9993,-1.0767,-1.1472,-1.2142,-1.2102,-1.2269,-1.2531,-1.2793,0.0,0.0,0.0,0.0,0.0,0.0,0.0,0.0,0.0,0.0,0.0,0.0,0.0,0.0,0.0,0.0,0.0,0.0,0.0,0.6719,0.753,0.8086,0.8672,0.9369,0.9165,0.8983,0.8983,0.8622,0.0,0.0,0.8449,0.8745,0.9659,0.9888,1.0244,1.0739,1.1108,1.1598,1.2163,1.1762,1.1387,1.1057,1.054,0.9918,0.9203,0.0,0.0,0.0,0.0,0.0,0.0,0.0,0.0,0.0,0.0,0.0,0.0,0.0,0.0,0.0,0.0,0.0,0.0,0.0,0.0,0.0,0.0,0.0,0.0,0.0,0.0,0.0,0.0,0.0,0.0,0.0,0.0,0.0,0.0,0.0,0.0,0.0,0.0,0.0,0.0,0.0,-0.1315,-0.1973,0.0,0.0,0.0,0.0,0.0,0.0,0.0,0.0,0.0,0.0,0.0,0.0,0.0,-0.9126,-1.0199,-1.0595,-1.0762,-1.0768,-1.1096,-1.1236,-1.1189,-1.1034,-1.1796,-1.3189,-1.3347,0.0,-1.3776,-1.3154,0.0,0.0,0.0,0.0,0.0,0.0,0.0,0.0,0.0,0.0,0.0,0.0,0.0,0.0,0.0,0.0,0.0,0.0,0.0,0.0,0.0,0.9796,1.0637,1.133,1.1395,1.1273,1.1007,1.0277,0.9788,0.9596,0.8945,0.8951,0.9702,1.0013,1.0576,1.1502,1.2352,1.2758,1.2609,1.2434,1.2351,1.2332,1.2074,1.138,1.0244,0.905,0.0,0.0,0.0,0.0,0.0,0.0,0.0,0.0,0.0,0.0,0.0,0.0,0.0,0.0,0.0,0.0,0.0,0.0,0.0,0.0,0.0,0.0,0.0,0.0,0.0,0.0,0.0,0.0,0.0,0.0,0.0,0.0,0.0,0.0,0.0,0.0,0.0,0.0,0.0,-0.0896,-0.1427,-0.202,-0.2479,-0.2737,0.0,0.0,0.0,0.0,0.0,0.0,0.0,0.0,0.0,-0.9144,-0.9756,-1.0275,-1.0802,-1.1089,-1.1236,-1.1236,-1.1536,-1.159,-1.143,-1.2004,-1.2855,-1.3842,-1.4423,-1.5031,-1.5527,-1.4658,-1.4014,-1.3525,0.0,0.0,0.0,0.0,-1.4282,-1.4967,0.0,0.0,0.0,0.0,0.0,0.0,0.0,0.0,0.0,0.0,0.0,0.0,1.0277,1.1291,1.2241,1.3043,1.3232,1.3165,1.2777,1.1778,1.0971,1.0439,0.9661,0.9454,0.9869,1.0364,1.1281,1.255,1.3253,1.3334,1.2881,1.2881,1.2881,1.2881,1.2881,1.2231,1.1051,0.9674,0.8504,0.0,0.0,0.0,0.0,0.0,0.0,0.0,0.0,0.0,0.0,0.0,0.0,0.0,0.0,0.0,0.0,0.0,0.0,0.0,0.0,0.0,0.0,0.0,0.0,0.0,0.0,0.0,0.0,0.0,0.0,0.0,0.0,0.0,0.0,0.0,0.0,0.0,0.0,-0.1307,-0.1774,-0.2259,-0.2792,-0.321,0.0,0.0,0.0,0.0,0.0,0.0,-0.6851,-0.7675,-0.8731,-1.017,-1.094,-1.1403,-1.1557,-1.177,-1.1884,-1.1884,-1.2024,-1.1977,-1.1764,-1.2685,-1.3523,-1.443,-1.5089,-1.5974,-1.6826,-1.5947,-1.5137,-1.436,-1.3994,-1.3769,-1.3714,-1.4337,-1.4939,-1.5586,0.0,0.0,0.0,0.0,0.0,0.0,0.0,0.0,0.0,0.0,0.0,0.9338,1.1554,1.1839,1.2499,1.3919,1.3644,1.3402,0.0,0.0,1.1572,1.1001,1.063,1.049,1.065,1.1605,1.2671,1.3806,1.3242,1.2929,1.2881,1.2881,1.2881,1.2881,1.2881,1.2472,1.1719,1.0876,0.9538,0.7949,0.0,0.0,0.0,0.0,0.0,0.0,0.0,0.0,0.0,0.0,0.0,0.0,0.0,0.0,0.0,0.0,0.0,0.0,0.0,0.0,0.0,0.0,0.0,0.0,0.0,0.0,0.0,0.0,0.0,0.0,0.0,0.0,0.0,0.0,0.0,0.0,0.0,0.0,0.0,-0.3169,-0.4124,0.0,0.0,0.0,0.0,-0.4894,-0.6022,-0.7204,-0.8225,-0.9247,-1.0486,-1.2111,-1.2225,-1.2512,-1.3093,-1.3113,-1.312,-1.312,-1.2839,-1.2768,-1.2748,-1.2479,-1.3339,-1.5176,-1.5176,-1.6032,-1.7285,-1.6396,-1.5762,-1.5303,-1.4883,-1.4463,-1.4155,-1.4841,-1.5102,-1.5298,0.0,0.0,0.0,0.0,0.0,0.5108,0.5108,0.5842,0.6598,0.7191,0.9238,1.109,1.2295,1.359,1.47,1.5569,1.5472,1.5259,1.4918,1.3897,1.3239,1.2998,1.2185,1.2077,1.2806,1.3525,1.4067,1.4395,1.416,1.3836,1.3457,1.3457,1.3286,1.2881,1.2881,1.2255,1.1132,1.101,1.008,0.8534,0.7438,0.6298,0.0,0.0,0.0,0.0,0.0,0.0,0.0,0.0,0.0,0.0,0.0,0.0,0.0,0.0,0.0,0.0,0.0,0.0,0.0,0.0,0.0,0.0,0.0,0.0,0.0,0.0,0.0,0.0,0.0,0.0,0.0,0.0,0.0,0.0,0.0,0.0,0.0,-0.3719,-0.4711,0.0,-0.5123,-0.5186,-0.5298,-0.5345,-0.6376,-0.7647,-0.9047,-1.0096,-1.134,-1.2866,-1.2886,-1.2993,-1.3206,-1.3213,-1.3213,-1.3213,-1.31,-1.3046,-1.3118,-1.4266,-1.5059,-1.5501,-1.6813,-1.7533,-1.7764,-1.7441,-1.6894,-1.624,-1.6094,-1.5947,-1.5811,-1.6039,-1.6433,-1.6953,0.0,0.0,0.0,0.0,0.5108,0.5107,0.5093,0.6064,0.7055,0.7733,1.0135,1.2215,1.3325,1.4798,1.5919,1.6471,1.6522,1.6358,1.5994,1.5155,1.4475,1.4097,1.3182,1.3176,1.4263,1.4421,1.4481,1.4376,1.4201,1.3884,1.3515,1.3515,1.3286,1.2881,1.2657,1.1891,1.0797,1.0763,0.9971,0.8663,0.7867,0.6992,0.6092,0.0,0.0,0.0,0.0,0.0,0.0,0.0,0.0,0.0,0.0,0.0,0.0,0.0,0.0,0.0,0.0,0.0,0.0,0.0,0.0,0.0,0.0,0.0,0.0,0.0,0.0,0.0,0.0,0.0,0.0,0.0,0.0,0.0,0.0,-0.3064,-0.4058,-0.4035,-0.5009,-0.5677,-0.5525,-0.5647,-0.5779,-0.5881,-0.6872,-0.8092,-0.956,-1.0593,-1.1809,-1.326,-1.3353,-1.3407,-1.3507,-1.3507,-1.3507,-1.3507,-1.34,-1.3353,-1.3353,-1.4621,-1.5423,-1.5873,-1.7206,-1.7948,-1.8223,-1.8223,-1.7803,-1.7148,-1.7012,-1.6865,-1.6665,-1.6665,-1.7034,-1.7513,0.0,0.0,0.0,0.5039,0.5108,0.5115,0.5119,0.6211,0.7603,0.9196,1.0833,1.2608,1.4689,1.5379,1.5932,1.6471,1.6522,1.6522,1.6522,1.6007,1.5216,1.4186,1.3574,1.3741,1.4754,1.4209,1.3915,1.3815,1.3238,1.2929,1.2929,1.2929,1.2881,1.2822,1.2089,1.1416,1.072,1.0064,0.9285,0.8363,0.8063,0.7543,0.6945,0.0,0.0,0.0,0.0,0.0,0.0,0.0,0.0,0.0,0.0,0.0,0.0,0.0,0.0,0.0,0.0,0.0,0.0,0.0,0.0,0.0,0.0,0.0,0.0,0.0,0.0,0.0,0.0,0.0,0.0,0.0,0.0,0.0,-0.2527,-0.3497,-0.4183,-0.4073,-0.5185,-0.5986,-0.5837,-0.622,-0.6478,-0.6478,-0.7581,-0.8733,-0.9867,-1.0922,-1.219,-1.3566,-1.3661,-1.3794,-1.4082,-1.4088,-1.4088,-1.4082,-1.3794,-1.3661,-1.3647,-1.3447,-1.4365,-1.6244,-1.6312,-1.7155,-1.8562,-1.8562,-1.8389,-1.7969,-1.7559,-1.7148,-1.6714,-1.6714,-1.6758,-1.6991,0.0,0.0,0.4468,0.4762,0.5175,0.5501,0.5588,0.6925,0.837,0.9528,1.152,1.333,1.4739,1.5718,1.6358,1.6509,1.6522,1.6522,1.6522,1.6007,1.5352,1.4639,1.4416,1.4442,1.4721,1.4553,1.4473,1.4468,1.4294,1.3967,1.3552,1.3054,1.256,1.208,1.1366,1.0712,1.0064,0.9865,0.9363,0.8664,0.837,0.8023,0.7544,0.0,0.0,0.0,0.0,0.0,0.0,0.0,0.0,0.0,0.0,0.0,0.0,0.0,0.0,0.0,0.0,0.0,0.0,0.0,0.0,0.0,0.0,0.0,0.0,0.0,0.0,0.0,0.0,0.0,0.0,0.0,-0.2438,-0.2812,-0.2812,-0.4212,-0.524,-0.5402,-0.5964,-0.6335,-0.6291,-0.6498,-0.6637,-0.6637,-0.7569,-0.8795,-1.0171,-1.126,-1.2471,-1.3955,-1.3968,-1.4008,-1.4088,-1.4088,-1.4088,-1.4088,-1.4008,-1.3968,-1.4045,-1.5487,-1.6333,-1.6624,-1.8172,-1.8784,-1.8562,-1.8562,-1.8389,-1.7998,-1.7881,-1.7764,-1.7656,-1.7656,-1.777,-1.8058,0.0,0.4047,0.4437,0.4915,0.5492,0.5993,0.6329,0.7474,0.8843,1.035,1.2361,1.4033,1.5018,1.5935,1.638,1.6151,1.6139,1.5954,1.5531,1.4971,1.4696,1.4757,1.4496,1.4349,1.4329,1.4329,1.4201,1.3931,1.3663,1.3311,1.2938,1.2288,1.1747,1.1366,1.0661,0.9997,0.9325,0.9026,0.8514,0.7871,0.7721,0.7719,0.7704,0.6681,0.6065,0.5619,0.5116,0.4463,0.3919,0.3919,0.0,0.0,0.0,0.0,0.0,0.0,0.0,0.0,0.0,0.0,0.0,0.0,0.0,0.0,0.0,0.0,0.0,0.0,0.0,0.0,0.0,0.0,0.0,0.0,-0.2342,-0.2955,-0.2952,-0.4572,-0.5861,-0.6098,-0.6386,-0.6593,-0.6658,-0.6797,-0.6885,-0.6885,-0.7384,-0.8353,-0.9734,-1.0752,-1.2012,-1.3288,-1.3822,-1.4088,-1.4088,-1.4088,-1.4088,-1.4088,-1.4088,-1.4088,-1.4173,-1.5387,-1.6327,-1.7012,-1.8284,-1.8845,-1.8906,-1.8906,-1.8555,0.0,0.0,0.0,0.0,0.0,-1.8111,-1.8334,0.0,0.3958,0.4582,0.5231,0.5945,0.6593,0.717,0.7885,0.9131,1.1277,0.0,1.451,1.5415,1.6106,1.6238,1.5632,1.5588,1.5178,0.0,0.0,1.365,1.4573,1.406,1.3768,1.3721,1.3684,1.3392,1.2851,1.2153,1.1837,1.1728,1.1074,1.0726,1.0726,0.9925,0.9249,0.8573,0.7883,0.7182,0.6588,0.6534,0.6912,0.7481,0.6514,0.5765,0.5284,0.4972,0.4421,0.3866,0.3866,0.0,0.0,0.0,0.0,0.0,0.0,0.0,0.0,0.0,0.0,0.0,0.0,0.0,0.0,0.0,0.0,0.0,0.0,0.0,0.0,0.0,0.0,0.0,0.0,-0.171,-0.302,-0.3238,-0.4868,-0.6149,-0.6271,-0.6546,-0.678,-0.6915,-0.7058,-0.7139,-0.7139,-0.7139,-0.7665,-0.8803,0.0,0.0,0.0,0.0,-1.4088,-1.4088,-1.4088,-1.4088,-1.4088,-1.4088,-1.4088,-1.4088,-1.425,-1.5304,-1.709,-1.7415,-1.8108,-1.9141,-1.9287,-1.8779,-1.8008,-1.8008,-1.8008,-1.8008,-1.8008,-1.8008,-1.8144,0.0,0.4089,0.4899,0.5061,0.6208,0.72,0.7473,0.8193,0.9361,1.1192,1.2599,1.4145,1.6072,1.6414,1.6238,1.5632,1.5588,1.533,0.0,0.0,1.3765,1.3946,1.3433,1.3072,1.3055,1.3055,1.2879,1.2398,1.2277,1.1956,1.1364,1.0737,1.0425,1.0302,0.8765,0.8159,0.8232,0.7264,0.675,0.6534,0.5928,0.6145,0.6745,0.5936,0.5541,0.5379,0.4815,0.4466,0.4388,0.4388,0.4236,0.4046,0.3975,0.0,0.0,0.0,0.0,0.0,0.0,0.0,0.0,0.0,0.0,0.0,0.0,0.0,0.0,0.0,0.0,0.0,0.0,0.0,0.0,-0.1129,-0.2372,-0.353,-0.4262,-0.5613,-0.6536,-0.6441,-0.6702,-0.6895,-0.6926,-0.7058,-0.7139,-0.7139,-0.7139,-0.7665,-0.8803,-1.0009,-1.1128,-1.2242,-1.347,-1.4088,-1.4088,-1.4088,-1.4088,-1.4088,0.0,0.0,-1.4173,-1.4977,-1.5621,-1.6108,-1.79,-1.8428,-1.8082,-1.8912,-1.8779,-1.8008,-1.8008,-1.8008,-1.8008,-1.8008,-1.8008,-1.8008,0.3109,0.4276,0.5394,0.5996,0.7014,0.7932,0.8423,0.8985,0.9813,1.1044,1.2365,1.3841,1.553,1.5849,1.5831,1.5514,1.4568,0.0,0.0,1.3176,1.3091,1.3314,1.3263,1.2928,1.2353,1.256,1.231,1.1567,1.1397,1.1116,1.0786,0.9792,0.9362,0.9299,0.7983,0.726,0.7075,0.6506,0.6063,0.5715,0.528,0.5301,0.563,0.5148,0.5003,0.4948,0.4625,0.4519,0.4519,0.4519,0.4412,0.4341,0.4267,0.4141,0.3992,0.0,0.0,0.0,0.0,0.0,0.0,0.0,0.0,0.0,0.0,0.0,0.0,0.0,0.0,0.0,0.0,0.0,-0.0355,-0.14,-0.2623,-0.3659,-0.4693,-0.5961,-0.6759,-0.6603,-0.679,-0.6956,-0.7027,-0.7099,-0.7139,-0.7139,-0.7139,-0.7439,-0.8139,-0.9902,-1.104,-1.1565,-1.333,-1.4235,-1.4088,-1.4088,-1.4088,-1.4088,-1.4088,-1.4088,-1.4088,-1.465,-1.5213,-1.5779,-1.7415,-1.8066,-1.8037,-1.8695,-1.8584,-1.8008,-1.8008,-1.8008,-1.8008,-1.8008,-1.8008,-1.8008,0.3314,0.4501,0.5719,0.6809,0.7665,0.8437,0.9177,0.9597,1.002,1.0585,1.1873,1.3101,1.4004,1.4612,1.4967,0.0,0.0,0.0,0.0,1.2305,1.251,1.2861,1.3093,1.2733,1.1823,1.2046,1.1714,1.0769,1.0316,1.0103,0.9994,0.8795,0.8249,0.819,0.7315,0.6611,0.6042,0.5888,0.5457,0.4904,0.4752,0.4691,0.4674,0.4577,0.4519,0.4519,0.4519,0.4519,0.4519,0.4519,0.4519,0.4519,0.4519,0.4385,0.4231,0.4204,0.4023,0.0,0.0,0.0,0.0,0.0,0.0,0.0,0.0,0.1613,0.1276,0.0248,0.0,0.0,0.0,0.0,-0.0298,-0.1145,-0.247,-0.3604,-0.4159,-0.5846,-0.6826,-0.6421,-0.6705,-0.7014,-0.7129,-0.7139,-0.7139,-0.7139,-0.7139,-0.7193,-0.7319,-0.9763,-1.1033,-1.086,-1.3267,-1.4409,-1.4175,-1.4115,-1.4088,-1.4088,-1.4088,-1.4088,-1.4088,-1.4088,-1.4573,-1.5455,-1.6692,-1.7618,-1.8299,-1.8543,-1.8437,-1.8125,-1.8047,-1.8008,-1.8008,-1.8008,-1.8008,-1.8008,0.0,0.4795,0.5421,0.6118,0.7313,0.836,0.8799,0.9209,0.9454,0.9403,1.0469,1.1239,1.1183,1.2542,1.346,1.3528,0.0,0.0,1.218,1.2588,1.2832,1.2881,1.2332,1.1909,1.1814,1.1259,1.0914,1.0681,0.9902,0.9298,0.895,0.8003,0.7588,0.7583,0.6545,0.6201,0.6283,0.5398,0.4979,0.4904,0.4752,0.4691,0.4674,0.4577,0.4519,0.4519,0.4519,0.4519,0.4519,0.4519,0.4519,0.4519,0.4519,0.4508,0.4412,0.4234,0.417,0.4117,0.4029,0.3494,0.2871,0.2355,0.1675,0.0948,0.0,0.0239,0.0187,0.0,0.0,0.0,0.0,0.0,-0.0079,-0.0161,-0.2091,-0.3161,-0.2092,-0.4932,-0.6618,-0.544,-0.6322,-0.7122,-0.7139,-0.7139,-0.7139,-0.7139,-0.7139,-0.7146,-0.7166,-0.9687,-1.1122,-1.1033,-1.3267,-1.4502,-1.4476,-1.4215,-1.4088,-1.4088,-1.4088,-1.4088,-1.4088,-1.4088,-1.4173,-1.4398,-1.6028,-1.7371,-1.8299,-1.8543,-1.8533,-1.8525,-1.8154,-1.8008,-1.8008,-1.8008,-1.8008,-1.8008,0.0,0.4357,0.4815,0.5827,0.7043,0.8112,0.8711,0.8937,0.915,0.9391,0.9875,1.0275,1.0452,1.1171,1.1624,1.1555,1.1859,1.2073,1.2074,1.2196,1.2236,1.2236,1.1846,1.1285,1.0669,1.0225,0.9624,0.8974,0.8345,0.7959,0.7773,0.707,0.6771,0.6818,0.5872,0.5624,0.5776,0.5392,0.5125,0.503,0.488,0.4769,0.4674,0.4577,0.4519,0.4519,0.4519,0.4519,0.0,0.0,0.4519,0.4519,0.4519,0.4406,0.4341,0.4365,0.4314,0.42,0.4273,0.342,0.2533,0.2734,0.1877,0.0933,0.0675,0.0627,0.0517,0.007,0.0,0.0,0.0,0.0,-0.0237,-0.081,-0.2417,-0.3403,-0.2646,-0.5167,-0.6672,-0.538,-0.6392,-0.7139,-0.7139,-0.7139,-0.7139,-0.7139,-0.7139,-0.7217,-0.7397,-0.9183,-1.0548,-1.1318,-1.2985,-1.4033,-1.4522,-1.4402,-1.4255,-1.4088,-1.4088,-1.4088,-1.4088,-1.4088,-1.4741,-1.6034,-1.6766,-1.7856,-1.9269,-1.93,-1.9082,-1.8553,-1.8437,-1.8223,-1.8008,-1.8008,-1.8008,-1.8008,0.0,0.3923,0.4371,0.5501,0.6621,0.7617,0.8381,0.8584,0.88,0.9198,0.9329,0.9572,0.9992,1.0118,1.023,1.0298,1.1328,1.189,1.1738,1.1988,1.1909,1.1566,1.1001,1.0347,0.9496,0.8945,0.8293,0.7552,0.7007,0.6778,0.6837,0.5977,0.5563,0.5689,0.5041,0.4868,0.5032,0.5232,0.5233,0.5114,0.4928,0.4789,0.4674,0.4577,0.4519,0.4512,0.4419,0.4402,0.0,0.0,0.4341,0.4341,0.4341,0.427,0.416,0.4362,0.4358,0.4274,0.421,0.3198,0.2274,0.2621,0.1723,0.0794,0.0766,0.0778,0.0665,0.0142,0.0,0.0,0.0,0.0,-0.0238,-0.1061,-0.2252,-0.2898,-0.2441,-0.4863,-0.616,-0.4999,-0.6245,-0.7139,-0.7139,-0.7139,-0.7139,-0.7139,-0.7139,-0.7238,-0.7461,-0.8737,-1.0138,-1.15,-1.2697,-1.3835,-1.4649,-1.4563,-1.4376,-1.4088,-1.4088,-1.4088,-1.4088,-1.4088,-1.5144,-1.6846,-1.718,-1.8224,-1.9688,-1.981,-1.9482,-1.8799,-1.8682,-1.8379,-1.8008,-1.8008,-1.8008,-1.8008,0.0,0.0,0.4242,0.508,0.594,0.6817,0.7627,0.8067,0.8323,0.8323,0.8662,0.9015,0.9299,0.9377,0.9675,1.0246,1.1135,1.1494,1.1163,1.2196,1.2277,1.0872,0.9518,0.879,0.8731,0.7385,0.6809,0.7136,0.6283,0.5976,0.6211,0.4594,0.3872,0.388,0.399,0.4041,0.4107,0.4817,0.5135,0.5104,0.4813,0.4694,0.4674,0.4577,0.4519,0.4498,0.4304,0.0,0.0,0.4083,0.4033,0.4033,0.4033,0.4029,0.4056,0.4157,0.4351,0.4343,0.3566,0.2797,0.2049,0.1349,0.0616,0.0064,0.0065,0.0066,0.0,0.0,0.0,0.0,0.0,0.0,0.0,-0.0084,-0.1026,-0.1485,-0.0268,-0.3218,-0.5001,-0.3837,-0.5708,-0.7139,-0.7139,-0.7139,-0.7139,-0.7139,-0.7139,-0.7143,-0.7153,-0.8599,-1.0075,-1.1461,-1.2702,-1.3927,-1.495,-1.4663,-1.4376,-1.4088,-1.4088,-1.4088,-1.4088,-1.4088,-1.4734,-1.5779,-1.6846,-1.798,-1.907,-1.9698,-1.9658,-1.9228,-1.8799,-1.8379,-1.8008,-1.8008,-1.8008,-1.8008,0.0,0.0,0.0,0.4718,0.5508,0.6199,0.6455,0.7065,0.7622,0.7913,0.8229,0.0,0.0,0.0,0.0,0.0,0.9778,0.9952,1.0103,1.0387,1.0506,1.0423,0.9379,0.8281,0.7326,0.682,0.6658,0.6789,0.5553,0.4964,0.5076,0.4515,0.3746,0.2741,0.2465,0.324,0.469,0.3869,0.374,0.4036,0.3456,0.3457,0.3793,0.3727,0.396,0.43,0.0,0.0,0.0,0.402,0.4019,0.4019,0.4019,0.4019,0.405,0.415,0.3968,0.3641,0.3377,0.2382,0.1423,0.1175,0.0572,0.0,0.0,0.0,0.0,0.0,0.0,0.0,0.0,0.0,0.0,0.0,-0.1005,-0.1376,-0.0179,-0.313,-0.491,-0.3748,-0.5708,-0.7139,-0.7139,-0.7139,0.0,-0.7139,-0.7139,-0.7227,-0.7434,-0.7905,-0.9366,-1.1713,-1.2177,-1.3348,-1.5251,-1.4963,-1.4663,-1.4369,-1.4182,-1.4088,-1.4088,-1.4088,-1.4657,-1.5779,-1.6846,-1.7989,-1.9107,-2.0004,-2.0098,-1.9687,-1.9541,-1.9053,-1.8428,-1.8428,-1.8252,-1.8008,0.0,0.0,0.0,0.0,0.0,0.0,0.0,0.0,0.0,0.0,0.0,0.0,0.0,0.0,0.0,0.0,0.0,0.8786,0.9062,0.8673,0.8577,0.8923,0.7763,0.6722,0.5855,0.5545,0.5396,0.5403,0.4242,0.3688,0.3688,0.3413,0.2828,0.196,0.1692,0.2253,0.3269,0.3452,0.3389,0.3255,0.2627,0.2475,0.2697,0.3037,0.3468,0.0,0.0,0.0,0.0,0.3931,0.3897,0.3938,0.3938,0.4012,0.4019,0.385,0.3564,0.3192,0.2679,0.1848,0.1043,0.0766,0.0325,0.0,0.0,0.0,0.0,0.0,0.0,0.0,0.0,0.0,0.0,0.0,-0.0653,-0.0922,-0.0089,-0.2416,-0.4018,-0.3659,-0.5351,-0.6694,-0.7051,-0.7139,-0.7139,-0.7139,-0.7139,-0.7251,-0.7506,-0.757,-0.893,-1.1717,-1.1905,-1.2997,-1.5398,-1.511,-1.4763,-1.4362,-1.4175,-1.4088,-1.4088,-1.4088,-1.4657,-1.5779,-1.6846,-1.7989,-1.9116,-2.0157,-2.0312,-1.9902,-1.9746,-1.9258,-1.8553,-1.8467,-1.8242,-1.8008,0.0,0.0,0.0,0.0,0.0,0.0,0.0,0.0,0.0,0.0,0.0,0.0,0.0,0.0,0.0,0.0,0.0,0.0,0.8011,0.7127,0.0,0.6574,0.5079,0.4319,0.4351,0.35,0.3079,0.3121,0.2452,0.2063,0.2063,0.1396,0.1174,0.1456,0.1619,0.1113,0.0293,0.3346,0.3882,0.2632,0.2262,0.184,0.1509,0.2458,0.0,0.0,0.0,0.0,0.3877,0.3641,0.3638,0.3708,0.3718,0.3863,0.3931,0.3252,0.3125,0.2872,0.1473,0.1048,0.0902,0.0194,0.0,0.0,0.0,0.0,0.0,0.0,0.0,0.0,0.0,0.0,0.0,0.0,0.0,0.0,0.0,-0.1077,-0.2239,-0.3487,-0.4654,-0.5822,-0.6986,-0.7163,-0.7163,-0.7163,0.0,-0.7221,-0.7373,-0.7529,-0.8796,-1.1527,-1.1834,-1.3003,-1.5325,-1.5117,-1.4676,-1.4108,-1.4095,-1.4088,-1.4088,-1.4088,-1.465,-1.5696,-1.6764,-1.7819,-1.9036,-2.0079,-2.0322,-1.9912,-1.9512,-1.9072,-1.8623,-1.8223,-1.8047,-1.8008,0.0,0.0,0.0,0.0,0.0,0.0,0.0,0.0,0.0,0.0,0.0,0.0,0.0,0.0,0.0,0.0,0.0,0.0,0.6988,0.0,0.0,0.0,0.5699,0.4552,0.2546,0.2422,0.1929,0.0834,0.0669,0.0558,0.0558,0.0392,0.0336,0.0392,0.0452,0.068,0.1132,0.1191,0.1437,0.1756,0.0,0.0511,0.0404,0.0,0.0,0.0,0.0,0.0,0.2839,0.2895,0.2637,0.2339,0.2405,0.2511,0.2521,0.248,0.2084,0.1601,0.1181,0.0701,0.0259,0.0066,0.0,0.0,0.0,0.0,0.0,0.0,0.0,0.0,0.0,0.0,0.0,0.0,0.0,0.0,0.0,-0.1,-0.2288,-0.3564,-0.4813,-0.6073,-0.7389,-0.7482,-0.7482,-0.7482,-0.7377,-0.738,-0.7533,-0.7678,-0.859,-1.0405,-1.1429,-1.2694,-1.426,-1.4747,-1.4776,-1.4409,-1.4195,-1.4088,-1.4088,-1.4088,-1.425,-1.4573,-1.5628,-1.6764,-1.7819,-1.8957,-1.9778,-2.0391,-2.0283,-1.9785,-1.9111,-1.9004,-1.8555,-1.8008,0.0,0.0,0.0,0.0,0.0,0.0,0.0,0.0,0.0,0.0,0.0,0.0,0.0,0.0,0.0,0.0,0.0,0.0,0.0,0.6225,0.0,0.5385,0.5097,0.4155,0.2391,0.213,0.1501,0.049,0.0,0.0,0.0,0.0,0.0,0.0,0.0,0.0336,0.0784,0.0224,0.0,0.0,0.0,0.0,0.0,0.0,0.0,0.0,0.0,0.3305,0.2515,0.2365,0.2097,0.1908,0.2032,0.2076,0.2058,0.1778,0.1453,0.1049,0.0703,0.0326,0.0,0.0,0.0,0.0,0.0,0.0,0.0,0.0,0.0,0.0,0.0,0.0,0.0,0.0,0.0,0.0,0.0,-0.1089,-0.2399,-0.3685,-0.4871,-0.6164,-0.7503,-0.76,-0.76,-0.76,-0.7519,-0.7536,-0.7685,-0.7767,-0.8459,-0.9993,-1.1263,-1.2769,-1.4578,-1.4813,-1.4816,-1.4516,-1.4222,-1.4088,-1.4088,-1.4088,-1.4088,-1.4166,0.0,-1.6273,-1.7423,-1.855,-1.9599,-2.0527,-2.0156,-1.9824,-1.9502,-1.8936,-1.8545,-1.8262,0.0,0.0,0.0,0.0,0.0,0.0,0.0,0.0,0.0,0.0,0.6546,0.0,0.0,0.0,0.0,0.0,0.0,0.0,0.0,0.0,0.0,0.4582,0.4091,0.3553,0.2986,0.2239,0.1555,0.0962,0.0,0.0,0.0,0.0,0.0,0.0,0.0,0.0,0.0,0.0,0.0,0.0,0.0,0.0,0.0,0.0,0.0,0.0,0.3023,0.2728,0.2464,0.177,0.1643,0.175,0.186,0.1917,0.1784,0.1113,0.0947,0.0839,0.0195,0.0,0.0,0.0,0.0,0.0,0.0,0.0,0.0,0.0,0.0,0.0,0.0,0.0,0.0,0.0,0.0,0.0,0.0,-0.1169,-0.2394,-0.3697,-0.4984,-0.6292,-0.756,-0.7658,-0.7658,-0.7658,-0.7658,-0.7702,-0.7804,-0.7831,-0.8481,-0.9993,-1.1263,-1.2896,-1.5114,-1.5013,-1.4816,-1.4516,-1.4222,-1.4088,-1.4088,-1.4088,-1.4088,-1.4166,-1.5054,0.0,-1.7172,-1.831,-1.9441,-2.0333,-1.9746,-1.9609,-1.9697,-1.8584,-1.834,-1.8496,0.0,0.0,0.0,0.0,0.0,0.0,0.0,0.0,0.0,0.0,0.5908,0.652,0.0,0.0,0.0,0.0,0.0,0.0,0.0,0.0,0.0,0.0,0.3962,0.3391,0.2209,0.2162,0.1486,0.0167,0.0056,0.0,0.0,0.0,0.0,0.0,0.0,0.0,0.0,0.0,0.0,0.0,0.0,0.0,0.0,0.0,0.0,0.0,0.238,0.1767,0.1548,0.061,0.0341,0.0351,0.0352,0.0361,0.0372,0.0254,0.0193,0.0195,0.0067,0.0,0.0,0.0,0.0,0.0,0.0,0.0,0.0,0.0,0.0,0.0,0.0,0.0,0.0,0.0,0.0,0.0,0.0,-0.1065,-0.2368,-0.3764,-0.509,-0.6354,-0.7753,-0.7963,-0.7963,-0.7963,-0.7963,-0.7919,-0.7818,-0.7929,-0.8598,-0.9998,-1.1263,-1.2507,-1.3776,-1.4546,-1.4816,-1.4516,-1.4222,-1.4088,-1.4088,-1.4088,-1.4088,-1.4088,-1.4334,0.0,-1.6026,-1.7172,-1.823,-1.9344,-2.0082,-1.9951,-1.9365,-1.915,-1.8662,-1.8105,0.0,0.0,0.0,0.0,0.0,0.0,0.0,0.4473,0.4579,0.4954,0.5292,0.5708,0.6157,0.5974,0.5793,0.0,0.0,0.0,0.0,0.0,0.0,0.0,0.0,0.3378,0.2505,0.213,0.1549,0.0599,0.0,0.0555,0.0546,0.0546,0.0764,0.1145,0.109,0.1101,0.1174,0.0,0.0,0.0,0.0,0.0,0.0,0.0,0.0,0.0,0.0,0.195,0.1337,0.0336,0.0,0.0,0.0,0.0,0.0,0.0,0.0,0.0,0.0,0.0,0.0,0.0,0.0,0.0,0.0,0.0,0.0,0.0,0.0,0.0,0.0,0.0,0.0,0.0,-0.0341,-0.0437,-0.0081,-0.195,-0.3544,-0.3959,-0.5694,-0.718,-0.7925,-0.8038,-0.8038,-0.8038,-0.8038,-0.8007,-0.7933,-0.7997,-0.8627,-0.9998,-1.1057,-1.2284,-1.3397,-1.4302,-1.4663,-1.4516,-1.4222,-1.4088,-1.4088,-1.4088,-1.4088,-1.4088,-1.4088,0.0,-1.5779,-1.6846,-1.798,-1.9097,-1.9918,-1.998,-1.9561,-1.9111,-1.8691,-1.8301,0.0,0.0,0.0,0.0,0.0,0.0,0.0,0.4146,0.4038,0.4695,0.4797,0.4902,0.5196,0.5321,0.5324,0.0,0.0,0.0,0.0,0.0,0.0,0.0,0.0,0.346,0.2965,0.0,0.0,0.1341,0.1323,0.0,0.0,0.0,0.0,0.0,0.1712,0.1719,0.2009,0.2341,0.0,0.0,0.0,0.2899,0.0,0.0,0.0,0.0,0.0,0.2343,0.1505,0.0392,0.0,0.0,0.0,0.0,0.0,0.0,0.0,0.0,0.0,0.0,0.0,0.0,0.0,0.0,0.0,0.0,0.0,0.0,0.0,0.0,0.0,0.0,0.0,0.0,-0.0516,-0.0762,-0.0384,-0.2829,-0.4547,-0.4366,-0.6314,-0.7824,-0.7977,-0.8021,-0.8038,-0.8038,-0.8038,-0.8038,-0.8038,-0.8038,-0.8513,-0.9453,-1.0551,-1.1645,-1.2859,-1.3742,-1.4215,-1.4429,-1.4195,-1.4088,-1.4088,-1.4088,-1.4088,-1.4088,-1.4088,0.0,0.0,-1.6764,-1.7827,-1.8762,-1.9717,-1.9941,-1.9697,-1.9023,-1.8662,-1.8457,0.0,0.0,0.0,0.0,0.0,0.0,0.0,0.3955,0.4053,0.4258,0.4449,0.4473,0.4323,0.468,0.4971,0.0,0.0,0.0,0.0,0.0,0.0,0.0,0.0,0.0,0.0,0.0,0.0,0.2109,0.2115,0.0,0.0,0.0,0.0,0.0,0.0,0.2383,0.1284,0.2676,0.0,0.0,0.0,0.0,0.0,0.0,0.0,0.0,0.0,0.2232,0.1896,0.0504,0.0,0.0,0.0,0.0,0.0,0.0,0.0,0.0,0.0,0.0,0.0,0.0,0.0,0.0,0.0,0.0,0.0,0.0,0.0,0.0,0.0,0.0,0.0,0.0,-0.0063,-0.0404,-0.1346,-0.2762,-0.4085,-0.5169,-0.6697,-0.7675,-0.7818,-0.796,-0.8038,-0.8038,-0.8038,-0.8038,-0.8038,-0.8038,-0.7974,-0.8028,-0.9248,-1.0295,-1.101,-1.2297,-1.3312,-1.4128,-1.4102,-1.4088,-1.4088,-1.4088,-1.4088,-1.4088,-1.4088,0.0,0.0,-1.6445,-1.7334,-1.7658,-1.9719,-2.0029,-1.9336,-1.9258,-1.873,-1.8057,0.0,0.0,0.0,0.0,0.0,0.0,0.3842,0.3852,0.4002,0.4334,0.4351,0.4345,0.4372,0.4535,0.4577,0.4381,0.0,0.0,0.0,0.0,0.0,0.0,0.0,0.0,0.0,0.0,0.3115,0.2899,0.2454,0.0,0.0,0.0,0.0,0.0,0.0,0.2806,0.3178,0.379,0.0,0.0,0.0,0.0,0.0,0.0,0.0,0.0,0.0,0.0,0.1953,0.0504,0.0,0.0,0.0,0.0,0.0,0.0,0.0,0.0,0.0,0.0,0.0,0.0,0.0,0.0,0.0,0.0,0.0,0.0,0.0,0.0,0.0,0.0,0.0,0.0,-0.0353,-0.0677,-0.0612,-0.2129,-0.3491,-0.4331,-0.5563,-0.6803,-0.7674,-0.7865,-0.7902,-0.7902,-0.7902,-0.7865,-0.778,-0.7855,-0.7875,-0.7814,-0.8847,-0.9487,-0.9782,-1.1592,-1.2691,-1.3027,-1.3737,-1.4088,-1.4088,-1.4088,-1.4088,-1.4088,-1.4088,0.0,0.0,-1.6445,-1.7342,-1.7479,-1.9397,-1.9814,-1.9258,-1.8994,-1.8525,-1.8008,0.0,0.0,0.0,0.0,0.0,0.3663,0.3814,0.3849,0.4038,0.4351,0.4348,0.4351,0.4508,0.4519,0.4433,0.4168,0.4111,0.0,0.0,0.0,0.0,0.0,0.0,0.0,0.0,0.0,0.3596,0.3735,0.2899,0.251,0.0,0.0,0.2009,0.301,0.0,0.0,0.0,0.0,0.0,0.0,0.0,0.0,0.0,0.0,0.0,0.0,0.0,0.0,0.0,0.0,0.0,0.0,0.0,0.0,0.0,0.0,0.0,0.0,0.0,0.0,0.0,0.0,0.0,0.0,0.0,0.0,0.0,0.0,0.0,0.0,0.0,0.0,0.0,0.0,-0.0452,-0.0703,-0.051,-0.1659,-0.2846,-0.3531,-0.4532,-0.5632,-0.7034,-0.7478,-0.775,-0.775,-0.775,-0.7706,-0.7604,-0.7651,-0.7682,-0.7682,-0.8295,-0.8775,-0.9076,-1.0855,-1.1986,-1.2328,-1.3555,-1.4088,-1.4088,-1.4088,-1.4088,-1.4088,-1.4088,0.0,0.0,-1.6445,-1.7195,-1.7304,-1.9163,-1.958,-1.9053,-1.875,-1.8369,-1.8008,0.0,0.0,0.0,0.0,0.0,0.0,0.3581,0.3921,0.4181,0.4177,0.4372,0.4515,0.4519,0.4519,0.4515,0.4515,0.4328,0.0,0.0,0.0,0.0,0.0,0.0,0.0,0.0,0.0,0.446,0.4463,0.368,0.3345,0.3345,0.2565,0.2174,0.2232,0.0,0.0,0.0,0.0,0.0,0.0,0.0,0.0,0.0,0.0,0.0,0.0,0.0,0.0,0.0,0.0,0.0,0.0,0.0,0.0,0.0,0.0,0.0,0.0,0.0,0.0,0.0,0.0,0.0,0.0,0.0,0.0,0.0,0.0,0.0,0.0,0.0,0.0,0.0,0.0,0.0,-0.0361,-0.1465,-0.1687,-0.2208,-0.3222,-0.3618,-0.4313,-0.5534,-0.6788,-0.76,-0.76,-0.76,0.0,-0.76,-0.7458,-0.7377,-0.7377,-0.7373,-0.7923,-0.8894,-1.0009,-1.1209,-1.2328,-1.3555,-1.4088,-1.4088,-1.4088,-1.4088,-1.4088,0.0,0.0,0.0,-1.6445,-1.7039,-1.6929,-1.9051,-1.9394,-1.8643,-1.8562,-1.8369,-1.8008,0.0,0.0,0.0,0.0,0.0,0.0,0.0,0.3847,0.3945,0.4365,0.4358,0.4344,0.4498,0.4519,0.4519,0.4519,0.4423,0.0,0.0,0.0,0.0,0.0,0.0,0.0,0.0,0.4519,0.4519,0.4519,0.3735,0.34,0.34,0.2565,0.251,0.301,0.3289,0.368,0.0,0.0,0.0,0.0,0.0,0.0,0.0,0.0,0.0,0.0,0.0,0.0,0.0,0.0,0.0,0.0,0.0,0.0,0.0,0.0,0.0,0.0,0.0,0.0,0.0,0.0,0.0,0.0,0.0,0.0,0.0,0.0,0.0,0.0,0.0,0.0,0.0,0.0,0.0,-0.0119,-0.0435,-0.1182,-0.2092,-0.3362,-0.5103,-0.637,-0.6774,-0.7267,-0.7556,-0.7451,-0.7444,-0.7397,-0.7292,-0.7241,-0.7261,-0.7366,-0.7268,-0.7368,-0.7665,-0.8886,-1.0009,-1.1123,-1.2334,-1.3294,-1.4088,-1.4088,-1.4088,0.0,0.0,0.0,0.0,-1.5997,-1.6653,-1.6521,-1.8321,-1.8877,-1.8603,-1.8311,-1.8125,-1.8008,0.0,0.0,0.0,0.0,0.0,0.0,0.0,0.3778,0.3879,0.4223,0.4288,0.4358,0.4491,0.4519,0.4519,0.4519,0.4519,0.0,0.0,0.0,0.0,0.0,0.0,0.0,0.4519,0.4519,0.4546,0.4548,0.3866,0.3465,0.3465,0.2671,0.2709,0.34,0.34,0.379,0.0,0.0,0.0,0.0,0.0,0.0,0.0,0.0,0.0,0.0,0.0,0.0,0.0,0.0,0.0,0.0,0.0,0.0,0.0,0.0,0.0,0.0,0.0,0.0,0.0,0.0,0.0,0.0,0.0,0.0,0.0,0.0,0.0,0.0,0.0,0.0,0.0,0.0,-0.0231,-0.0411,-0.049,-0.1346,-0.2399,-0.3398,-0.536,-0.6602,-0.6656,-0.7154,-0.7387,-0.7292,-0.7285,-0.7241,-0.7146,-0.7139,-0.7183,-0.7282,-0.719,-0.7139,-0.7139,-0.8277,-0.9492,-1.0611,-1.1724,-1.2942,-1.4088,-1.4088,-1.4088,0.0,0.0,0.0,0.0,-1.5306,-1.5976,-1.6072,-1.7487,-1.8184,-1.8369,-1.8105,-1.8008,-1.8008,0.0,0.0,0.0,0.0,0.0,0.0,0.0,0.383,0.3934,0.3896,0.425,0.451,0.4501,0.4519,0.4519,0.4519,0.0,0.0,0.0,0.0,0.0,0.0,0.0,0.0,0.4519,0.4519,0.4587,0.4674,0.3981,0.369,0.3635,0.2997,0.2947,0.3469,0.3413,0.3799,0.0,0.0,0.0,0.0,0.0,0.0,0.0,0.0,0.0,0.0,0.0,0.0,0.0,0.0,0.0,0.0,0.0,0.0,0.0,0.0,0.0,0.0,0.0,0.0,0.0,0.0,0.0,0.0,0.0,0.0,0.0,0.0,0.0,0.0,0.0,-0.0056,-0.0056,-0.0056,-0.0731,-0.1266,-0.1348,-0.2229,-0.3012,-0.3484,-0.4742,-0.551,-0.5537,-0.6443,-0.7139,-0.7139,-0.7139,-0.7139,-0.7139,-0.7139,-0.7139,-0.7139,-0.7139,-0.7139,-0.7139,-0.8189,-0.9318,-1.0524,-1.1638,-1.2851,-1.3997,-1.4062,-1.4055,0.0,0.0,0.0,0.0,-1.443,-1.5093,-1.5658,-1.6766,-1.7493,-1.8008,-1.8008,-1.8008,-1.8008,0.0,0.0,0.0,0.0,0.0,0.0,0.0,0.0,0.0,0.0,0.4157,0.4496,0.4491,0.4519,0.4519,0.0,0.0,0.0,0.0,0.0,0.0,0.0,0.0,0.0,0.4519,0.4519,0.4536,0.4573,0.4458,0.4455,0.4458,0.4389,0.4364,0.4403,0.4403,0.4399,0.0,0.0,0.0,0.0,0.0,0.0,0.0,0.0,0.0,0.0,0.1619,0.0895,0.0,0.0,0.0,0.0,0.0,0.0,0.0,0.0,0.0,0.0,0.0,0.0,0.0,0.0,0.0,0.0,0.0,0.0,0.0,0.0,0.0,0.0,0.0,-0.0448,-0.0846,-0.0868,-0.1599,-0.2194,-0.2217,-0.3434,-0.4757,-0.5807,-0.6342,-0.6699,-0.6731,-0.6943,-0.7139,-0.7139,-0.7139,-0.7139,-0.7139,-0.7139,-0.7139,-0.7139,-0.7139,-0.7139,-0.7139,-0.7404,-0.8101,-0.9323,-1.0438,-1.1558,-1.276,-1.3419,-1.3748,0.0,0.0,0.0,-1.303,-1.3939,-1.4743,-1.5358,-1.6351,-1.7232,-1.8008,-1.8008,-1.8008,-1.8008,0.0,0.0,0.0,0.0,0.0,0.0,0.0,0.0,0.0,0.0,0.0,0.4503,0.4488,0.4519,0.0,0.0,0.0,0.0,0.0,0.0,0.0,0.0,0.0,0.4519,0.4519,0.4519,0.4587,0.467,0.4755,0.483,0.4894,0.4911,0.4836,0.4687,0.4616,0.4594,0.0,0.0,0.0,0.0,0.0,0.0,0.0,0.0,0.0,0.0,0.1229,0.0615,0.0,0.0,0.0,0.0,0.0,0.0,0.0,0.0,0.0,0.0,0.0,0.0,0.0,0.0,0.0,0.0,0.0,0.0,0.0,0.0,0.0,-0.0112,-0.0448,-0.0838,-0.1243,-0.1693,-0.2439,-0.3208,-0.3838,-0.4891,-0.5876,-0.6589,-0.6959,-0.7139,-0.7139,-0.7139,-0.7139,-0.7139,-0.7139,-0.7139,-0.7139,-0.7139,-0.7139,-0.7139,-0.7139,-0.7139,-0.7139,-0.7139,-0.7665,-0.889,-1.0096,-1.1155,-1.2146,-1.3118,-1.3492,0.0,0.0,0.0,-1.2808,-1.3194,-1.3829,-1.4593,-1.5579,-1.6507,-1.7432,-1.7862,-1.8008,-1.8008,0.0,0.0,0.0,0.0,0.0,0.0,0.0,0.0,0.0,0.0,0.0,0.0,0.0,0.0,0.0,0.0,0.0,0.0,0.0,0.0,0.0,0.0,0.4519,0.4529,0.4553,0.4529,0.4602,0.4884,0.4908,0.4982,0.5098,0.5023,0.4894,0.4718,0.4541,0.4519,0.0,0.0,0.0,0.0,0.0,0.0,0.0,0.0,0.0,0.0,0.0,0.0,0.0,0.0,0.0,0.0,0.0,0.0,0.0,0.0,0.0,0.0,0.0,-0.0056,-0.0168,-0.0056,0.0,0.0,0.0,0.0,0.0,0.0,-0.0112,-0.0392,-0.1062,-0.1346,-0.1761,-0.2568,-0.3323,-0.4306,-0.5507,-0.6108,-0.6498,-0.6647,-0.6905,-0.7075,-0.7075,-0.7075,-0.7075,-0.7075,-0.7075,-0.7075,-0.7075,-0.7075,-0.7085,-0.7105,-0.7109,-0.7119,-0.7139,-0.7139,-0.7577,-0.8627,-0.9803,-1.0799,-1.1692,-1.2713,-1.3206,-1.312,0.0,0.0,-1.2735,-1.2405,-1.2952,-1.4027,-1.4879,-1.5869,-1.6922,-1.7725,-1.8008,-1.8008,0.0,0.0,0.0,0.0,0.0,0.0,0.0,0.0,0.0,0.0,0.0,0.0,0.0,0.0,0.0,0.0,0.0,0.0,0.0,0.0,0.0,0.4519,0.4519,0.458,0.4653,0.4584,0.4548,0.4724,0.4857,0.4928,0.4955,0.5186,0.5148,0.487,0.4589,0.4519,0.4519,0.4519,0.0,0.0,0.0,0.0,0.0,0.0,0.0,0.0,0.0,0.0,0.0,0.0,0.0,0.0,0.0,0.0,0.0,0.0,0.0,0.0,0.0,-0.0449,-0.0785,-0.0168,0.0,0.0,0.0,0.0,0.0,0.0,-0.0504,-0.1062,-0.1398,-0.24,-0.3263,-0.3397,-0.4382,-0.5286,-0.5895,-0.6152,-0.6346,-0.6488,-0.6661,-0.6766,-0.6766,-0.6766,-0.6766,-0.6766,-0.6766,-0.6766,-0.6766,-0.6766,-0.6827,-0.6956,-0.6959,-0.7017,-0.7139,-0.7139,-0.7228,-0.7401,-0.8467,-0.9475,-1.0523,-1.1266,-1.2073,-1.2876,0.0,-1.2371,-1.2365,-1.2318,-1.3375,-1.5021,-1.5163,-1.6228,-1.7794,-1.794,-1.8008,-1.8008,0.0,0.0,0.0,0.0,0.0,0.0,0.0,0.0,0.0,0.0,0.0,0.0,0.0,0.0,0.0,0.0,0.0,0.0,0.0,0.0,0.4519,0.4519,0.4519,0.4591,0.4687,0.4623,0.4697,0.4928,0.4999,0.5077,0.5159,0.5135,0.4962,0.4667,0.458,0.4519,0.4519,0.4519,0.4519,0.0,0.0,0.0,0.0,0.0,0.0,0.0,0.0,0.0,0.0,0.0,0.0,0.0,0.0,0.0,0.0,0.0,0.0,0.0,0.0,-0.0221,-0.0505,-0.056,-0.0896,-0.1176,-0.1176,-0.1007,-0.0894,-0.1117,-0.1452,-0.184,-0.2232,-0.2921,-0.3693,-0.4448,-0.5225,-0.5793,-0.6,-0.6227,-0.64,-0.6464,-0.6607,-0.6702,-0.6702,-0.6702,-0.6702,-0.6702,-0.6702,-0.6702,-0.6702,-0.6702,-0.6732,-0.6803,-0.6807,-0.6837,-0.6902,-0.6902,-0.6946,-0.7024,-0.8142,-0.9081,-0.9832,-1.0746,-1.1655,-1.2498,0.0,-1.2305,-1.2305,-1.2305,-1.3091,-1.445,-1.5021,-1.6009,-1.7285,-1.7794,-1.8008,-1.8008,0.0,0.0,0.0,0.0,0.0,0.0,0.0,0.0,0.0,0.0,0.0,0.0,0.0,0.0,0.0,0.0,0.0,0.0,0.0,0.4519,0.4519,0.4519,0.4519,0.4551,0.4741,0.4707,0.4836,0.5131,0.5131,0.5189,0.5301,0.504,0.4775,0.457,0.4532,0.4519,0.4519,0.4519,0.4519,0.0,0.0,0.0,0.0,0.0,0.0,0.0,0.0,0.0,0.0,0.0,0.0,0.0,0.0,0.0,0.0,0.0,0.0,0.0,0.0,-0.0109,-0.0392,-0.0952,-0.1399,-0.1792,-0.2183,-0.1845,-0.1623,-0.2319,-0.2493,-0.2782,-0.3365,-0.3635,-0.4133,-0.5322,-0.5752,-0.6003,-0.6074,-0.6278,-0.6424,-0.6424,-0.6525,-0.6597,-0.6597,-0.6597,-0.6597,-0.6597,-0.6597,-0.6597,-0.6597,-0.6597,-0.6614,-0.6647,-0.6647,-0.6664,-0.6702,-0.6702,-0.6759,-0.6875,-0.7998,-0.8891,-0.9531,-1.0655,-1.1526,-1.2305,-1.2305,-1.2305,-1.2305,-1.2305,-1.3025,-1.4099,-1.4879,-1.5939,-1.6991,-1.7716,-1.8008,-1.8008,0.0,0.0,0.0,0.0,0.0,0.0,0.0,0.0,0.0,0.0,0.0,0.0,0.0,0.0,0.0,0.0,0.0,0.0,0.0,0.4519,0.4519,0.4519,0.4519,0.4602,0.4897,0.4762,0.4836,0.5131,0.5131,0.5135,0.5142,0.4992,0.483,0.4667,0.458,0.4519,0.4519,0.4519,0.4519,0.4408,0.3622,0.0,0.0,0.0,0.0,0.0,0.0,0.0,0.0,0.0,0.0,0.0,0.0,0.0,0.0,0.0,0.0,0.0,0.0,-0.048,-0.101,-0.1066,-0.0617,-0.056,-0.2128,-0.1849,-0.17,-0.2945,-0.3446,-0.3949,-0.4763,-0.4947,-0.5182,-0.5842,-0.5871,-0.5918,-0.6203,-0.6261,-0.6278,-0.6278,-0.6285,-0.6291,-0.6291,-0.6291,-0.6291,-0.6291,-0.6291,-0.6291,-0.6291,-0.6291,-0.6352,-0.6485,-0.6488,-0.6556,-0.6698,-0.6702,-0.6705,-0.6715,-0.7612,-0.8546,-0.9526,-1.0388,-1.1335,-1.2305,-1.2305,-1.2305,-1.2305,-1.2305,-1.3375,-1.5092,-1.5163,-1.6298,-1.794,-1.8008,-1.8008,-1.8008,0.0,0.0,0.0,0.0,0.0,0.0,0.0,0.0,0.0,0.0,0.0,0.0,0.0,0.0,0.0,0.0,0.0,0.0,0.0,0.4519,0.4519,0.4519,0.4519,0.4558,0.465,0.4753,0.4979,0.5274,0.5179,0.5084,0.4996,0.4847,0.4697,0.4548,0.4543,0.4519,0.4519,0.4519,0.4236,0.368,0.2899,0.0,0.0,0.0,0.0,0.0,0.0,0.0,0.0,0.0,0.0,0.0,0.0,0.0,0.0,0.0,0.0,0.0,0.0,-0.0521,-0.1075,-0.1082,-0.1211,-0.1687,-0.289,-0.2952,-0.3027,-0.4102,-0.4452,-0.476,-0.5178,-0.5417,-0.5529,-0.5745,-0.5881,-0.6017,-0.623,-0.6338,-0.6338,-0.6338,-0.6338,-0.6338,-0.6338,-0.6338,-0.6338,-0.6338,-0.6338,-0.6338,-0.6338,-0.6338,-0.6285,-0.6339,-0.6339,-0.6369,-0.6427,-0.6427,-0.6427,-0.6427,-0.7478,-0.8456,-0.9412,-1.038,-1.1316,-1.2305,-1.2305,-1.2305,-1.2305,-1.2305,-1.3448,-1.5305,-1.6515,-1.7373,-1.8008,-1.8008,-1.8008,-1.8008,0.0,0.0,0.0,0.0,0.0,0.0,0.0,0.0,0.0,0.0,0.0,0.0,0.0,0.0,0.0,0.0,0.0,0.0,0.4519,0.4519,0.4519,0.4519,0.4519,0.4475,0.4507,0.467,0.4907,0.5223,0.5114,0.4989,0.4847,0.4741,0.4633,0.4587,0.4539,0.4543,0.4587,0.4539,0.407,0.3289,0.2508,0.1786,0.0,0.0,0.0,0.0,0.0,0.0,0.0,0.0,0.0,0.0,0.0,0.0,0.0,0.0,0.0,-0.0051,-0.0301,-0.0563,-0.0841,-0.1322,-0.1701,-0.2234,-0.3394,-0.3664,-0.3958,-0.4911,-0.5224,-0.5262,-0.5403,-0.5535,-0.5652,-0.5694,-0.5861,-0.601,-0.6246,-0.6307,-0.6338,-0.6338,-0.6338,-0.6338,-0.6338,-0.6338,-0.6338,-0.6338,-0.6338,-0.6338,-0.6338,-0.6338,-0.6338,-0.6338,-0.6338,-0.6338,-0.6338,-0.6338,-0.6338,-0.6338,-0.7442,-0.8435,-0.9296,-1.034,-1.1273,-1.2164,-1.2164,-1.2164,-1.2164,-1.2164,-1.336,-1.5376,-1.6932,-1.7725,-1.8008,-1.8008,-1.8008,-1.8008,0.0,0.0,0.0,0.0,0.0,0.0,0.0,0.0,0.0,0.0,0.0,0.0,0.0,0.0,0.0,0.0,0.0,0.0,0.4519,0.4519,0.4519,0.4519,0.4519,0.4475,0.4507,0.451,0.4644,0.4918,0.4918,0.484,0.4691,0.4691,0.4691,0.468,0.4587,0.4548,0.4677,0.4528,0.407,0.3345,0.2508,0.173,0.1006,0.0,0.0,0.0,0.0,0.0,0.0,0.0,0.0,0.0,0.0,0.0,0.0,0.0,0.0,-0.0155,-0.0885,-0.0559,-0.0372,-0.1855,-0.1732,-0.1776,-0.3418,-0.3804,-0.4137,-0.5365,-0.5587,-0.5527,-0.5399,-0.5428,-0.548,-0.5776,-0.5779,-0.5926,-0.6236,-0.6318,-0.6335,-0.6257,-0.6335,-0.6338,-0.6338,-0.6338,-0.6338,-0.6338,-0.6338,-0.6338,-0.6338,-0.6338,-0.6338,-0.6338,-0.6338,-0.6338,-0.6338,-0.6338,-0.6261,-0.6335,-0.7326,-0.8309,-0.9296,-1.0335,-1.1162,-1.1864,-1.1864,-1.1864,-1.1864,-1.1935,-1.3226,-1.5288,-1.6201,-1.7207,-1.8008,-1.7998,-1.7998,-1.8008,0.0,0.0,0.0,0.0,0.0,0.0,0.0,0.0,0.0,0.0,0.0,0.0,0.0,0.0,0.0,0.0,0.0,0.0,0.4519,0.4519,0.4519,0.4519,0.4519,0.4484,0.4528,0.4472,0.4599,0.4857,0.4813,0.4793,0.4691,0.4691,0.4633,0.4587,0.4596,0.4589,0.4528,0.3974,0.3289,0.251,0.173,0.1006,0.028,0.0,0.0,0.0,0.0,0.0,0.0,0.0,0.0,0.0,0.0,0.0,0.0,0.0,0.0,-0.005,-0.0249,-0.0909,-0.1553,-0.1577,-0.2612,-0.3744,-0.388,-0.3943,-0.4234,-0.523,-0.5477,-0.543,-0.5439,-0.5428,-0.5442,-0.549,-0.5624,-0.5775,-0.5923,-0.6155,-0.6256,-0.6098,-0.6196,-0.6338,-0.6338,-0.6338,-0.6338,-0.6338,-0.6338,-0.6338,-0.6338,-0.6338,-0.6338,-0.6338,-0.6338,-0.6338,-0.6338,-0.6338,-0.6207,-0.6098,-0.6392,-0.7356,-0.8975,-1.0076,-1.0885,-1.1557,-1.1557,-1.1557,-1.1626,-1.2308,-1.3309,-1.4538,-1.5473,-1.6534,-1.7529,-1.7227,-1.7305,-1.7568,0.0,0.0,0.0,0.0,0.0,0.0,0.0,0.0,0.0,0.0,0.0,0.0,0.0,0.0,0.0,0.0,0.0,0.0,0.0,0.4519,0.4519,0.4519,0.4519,0.4519,0.4519,0.4519,0.4551,0.4676,0.4704,0.4656,0.4599,0.4599,0.4582,0.4555,0.4298,0.4122,0.4091,0.3251,0.2454,0.173,0.1284,0.0671,0.0,0.0,0.0,0.0,0.0,0.0,0.0,0.0,0.0,0.0,0.0,0.0,0.0,0.0,-0.0203,-0.0505,-0.0819,-0.1505,-0.2289,-0.2583,-0.35,-0.4372,-0.4507,-0.4608,-0.4752,-0.53,-0.544,-0.5457,-0.5442,-0.5428,-0.5428,-0.5428,-0.5578,-0.574,-0.5759,-0.5953,-0.604,-0.6023,-0.6112,-0.6193,-0.6254,-0.6207,-0.6196,-0.6254,-0.6203,-0.6196,0.0,-0.6338,-0.6234,-0.6169,-0.6169,-0.6139,-0.6078,-0.6078,-0.603,-0.5939,-0.5939,-0.6695,-0.8047,-0.9209,-1.0253,-1.1249,-1.1249,-1.1249,-1.133,-1.1988,-1.3035,-1.4148,-1.4737,-1.5817,-1.709,-1.6826,-1.6894,-1.7148,0.0,0.0,0.0,0.0,0.0,0.0,0.0,0.0,0.0,0.0,0.0,0.0,0.0,0.0,0.0,0.0,0.0,0.0,0.0,0.0,0.4519,0.4519,0.4519,0.4519,0.4519,0.4519,0.4519,0.4519,0.4519,0.4519,0.4519,0.4477,0.4548,0.4663,0.3741,0.3411,0.3493,0.2535,0.1722,0.1113,0.1001,0.0612,0.0,0.0,0.0,0.0,0.0,0.0,0.0,0.0,0.0,0.0,0.0,0.0,0.0,0.0,-0.0506,-0.1268,-0.1899,-0.2218,-0.2689,-0.4256,-0.4291,-0.421,-0.5166,-0.5467,-0.5532,-0.5456,-0.5504,-0.5576,-0.5396,-0.5428,-0.5428,-0.5428,-0.5564,-0.5701,-0.5701,-0.5676,-0.5758,-0.5899,-0.6,-0.6064,-0.6207,-0.6091,-0.6067,-0.6207,-0.6088,0.0,0.0,-0.6217,-0.6156,-0.6013,-0.601,-0.5942,-0.5803,-0.58,-0.5793,-0.5783,-0.5783,-0.6191,-0.6916,-0.8077,-0.944,-1.0955,-1.0955,-1.0955,-1.0975,-1.1236,-1.2401,-1.3991,-1.3991,-1.5056,-1.667,-1.6631,-1.6641,-1.6728,0.0,0.0,0.0,0.0,0.0,0.0,0.0,0.0,0.0,0.0,0.0,0.0,0.0,0.0,0.0,0.0,0.0,0.0,0.0,0.0,0.4519,0.4519,0.4519,0.4519,0.4519,0.4519,0.4519,0.4519,0.4519,0.4519,0.4519,0.4525,0.4535,0.4514,0.3852,0.3499,0.3373,0.1958,0.1234,0.1073,0.0484,0.0159,0.0,0.0,0.0,0.0,0.0,0.0,0.0,0.0,0.0,0.0,0.0,0.0,0.0,0.0,-0.0543,-0.1122,-0.1274,-0.2193,-0.3227,-0.3816,-0.4499,-0.5085,-0.5345,-0.5456,-0.5403,-0.5435,-0.5396,-0.5413,-0.5435,-0.5428,-0.5428,-0.5428,-0.5428,-0.5495,-0.5495,-0.545,-0.5504,-0.5537,-0.5711,-0.5864,-0.5898,-0.5871,-0.5864,-0.5898,0.0,0.0,-0.5898,-0.5901,-0.5884,-0.585,-0.585,-0.5833,-0.58,-0.58,-0.5745,0.0,-0.5637,-0.6028,-0.6788,-0.7793,-0.9186,-1.0719,-1.0719,-1.0719,-1.0719,-1.0722,-1.1743,-1.324,-1.324,-1.4471,-1.6162,-1.582,-1.5908,-1.6221,0.0,0.0,0.0,0.0,0.0,0.0,0.0,0.0,0.0,0.0,0.0,0.0,0.0,0.0,0.0,0.0,0.0,0.0,0.0,0.4426,0.4519,0.4519,0.4519,0.4519,0.4519,0.4519,0.4519,0.4519,0.4519,0.4519,0.4519,0.4492,0.4485,0.4467,0.3642,0.2981,0.2389,0.1123,0.0579,0.0518,0.0156,0.0,0.0,0.0,0.0,0.0,0.0,0.0,0.0,0.0,0.0,0.0,0.0,0.0,0.0,0.0,-0.0539,-0.1164,-0.1542,-0.2485,-0.3492,-0.4156,-0.4766,-0.527,-0.5411,-0.5428,-0.5428,-0.5428,-0.5428,-0.5428,-0.5428,-0.5428,-0.5428,-0.5428,-0.5428,-0.5428,-0.5428,-0.543,-0.5368,-0.5369,-0.551,-0.5654,-0.5721,-0.6086,-0.6213,-0.5796,0.0,-0.6146,-0.5796,-0.58,-0.5769,-0.5701,-0.5701,-0.5667,-0.5593,-0.5589,-0.5552,-0.5481,-0.5481,-0.6163,-0.7377,-0.8285,-0.9391,-1.0624,-1.0624,-1.0624,-1.0624,-1.0624,-1.1296,-1.2451,-1.2818,-1.3917,-1.5235,-1.5371,-1.5557,-1.5781,0.0,0.0,0.0,0.0,0.0,0.0,0.0,0.0,0.0,0.0,0.0,0.0,0.0,0.0,0.0,0.0,0.0,0.0,0.0,0.4345,0.4481,0.4481,0.4505,0.4505,0.4484,0.4481,0.4481,0.4481,0.4511,0.4481,0.4501,0.4484,0.4304,0.3956,0.3302,0.2415,0.1375,0.0422,0.0,0.0,0.0,0.0,0.0,0.0,0.0,0.0,0.0,0.0,0.0,0.0,0.0,0.0,0.0,0.0,0.0,0.0,-0.0534,-0.1256,-0.1859,-0.2692,-0.368,-0.4627,-0.4989,-0.5128,-0.5254,-0.5284,-0.5284,-0.5284,-0.5391,-0.5428,-0.5428,-0.5428,-0.5428,-0.5428,-0.5428,-0.5428,-0.5428,-0.5428,-0.5406,-0.5395,-0.5408,-0.5454,-0.5641,-0.6229,-0.6478,0.0,0.0,-0.6413,-0.5994,-0.5792,-0.5671,-0.5555,-0.5552,-0.5491,-0.5428,-0.5428,-0.5428,-0.5428,-0.5428,-0.6338,-0.8027,-0.8748,-0.9658,-1.0624,-1.0624,-1.0624,-1.0624,-1.0624,-1.117,-1.2081,-1.2757,-1.3606,-1.451,-1.5167,-1.541,-1.5469,0.0,0.0,0.0,0.0,0.0,0.0,0.0,0.0,0.0,0.0,0.4519,0.4412,0.4237,0.4207,0.0,0.0,0.0,0.0,0.405,0.0,0.0,0.4495,0.4508,0.4515,0.4499,0.4495,0.4495,0.4495,0.4514,0.4495,0.448,0.4524,0.3566,0.1949,0.2681,0.2304,0.1111,0.0308,0.0,0.0,0.0,0.0,0.0,0.0,0.0,0.0,0.0,0.0,0.0,0.0,0.0,0.0,0.0,0.0,0.0,0.0,-0.0512,-0.1105,-0.1206,-0.2389,-0.3772,-0.4561,-0.4836,-0.4952,-0.4975,-0.4979,-0.4979,-0.4979,-0.5182,-0.5428,-0.5428,-0.5428,-0.5428,-0.5428,-0.5428,-0.5428,-0.5428,-0.5428,-0.5369,-0.5389,-0.5389,-0.5399,-0.5416,-0.5533,0.0,0.0,-0.5992,-0.5855,-0.6531,-0.5881,-0.5476,-0.5459,-0.5459,-0.5449,-0.5428,-0.5428,-0.5428,-0.5428,-0.5428,-0.6338,-0.8027,-0.8091,-0.9064,-1.0624,-1.0624,-1.0624,-1.0624,-1.0624,-1.1476,-1.2818,-1.2948,-1.3906,-1.5225,-1.5352,-1.541,-1.542,0.0,0.0,0.0,0.0,0.0,0.0,0.0,0.0,0.0,0.0,0.0,0.444,0.4375,0.4219,0.0,0.0,0.0,0.0,0.4016,0.4033,0.0,0.4488,0.4503,0.4506,0.4492,0.4172,0.4015,0.4015,0.4314,0.432,0.3996,0.4678,0.4336,0.3123,0.1854,0.1016,0.0436,0.0155,0.0,0.0,0.0,0.0,0.0,0.0,0.0,0.0,0.0,0.0,0.0,0.0,0.0,0.0,0.0,0.0,0.0,0.0,-0.0231,-0.0673,-0.1501,-0.2563,-0.3621,-0.4515,-0.4741,-0.4813,-0.4901,-0.4918,-0.4918,-0.4918,-0.5023,-0.5138,-0.5216,-0.5233,-0.526,-0.5415,-0.5428,-0.5428,-0.5428,-0.5428,-0.5428,-0.5428,-0.5428,-0.5428,-0.5428,-0.5815,0.0,0.0,-0.633,-0.6264,-0.6654,-0.5881,-0.5428,-0.5428,-0.5428,-0.5428,-0.5428,-0.5428,-0.5428,-0.5428,-0.5428,-0.6338,-0.8027,-0.8027,-0.893,-1.0624,-1.0624,-1.0624,-1.0618,-1.1108,-1.1717,-1.2451,-1.3304,-1.4085,-1.4805,-1.5225,-1.541,-1.541,0.0,0.0,0.0,0.0,0.0,0.0,0.0,0.0,0.0,0.0,0.0,0.0,0.4412,0.0,0.0,0.0,0.0,0.0,0.39,0.0,0.0,0.0,0.0,0.426,0.4266,0.3811,0.3609,0.3609,0.4063,0.4055,0.3626,0.3907,0.3767,0.3263,0.1028,0.0,0.0,0.0,0.0,0.0,0.0,0.0,0.0,0.0,0.0,0.0,0.0,0.0,0.0,0.0,0.0,0.0,0.0,0.0,0.0,0.0,0.0,-0.0282,-0.1551,-0.2303,-0.2989,-0.4104,-0.4371,-0.4429,-0.4716,-0.4802,-0.4802,-0.4802,-0.4802,-0.4847,-0.4992,-0.505,-0.5114,-0.523,-0.5247,-0.5264,-0.5298,-0.537,-0.545,-0.5683,-0.5818,-0.5885,-0.6013,0.0,0.0,0.0,-0.7177,-0.7111,-0.7372,-0.6334,-0.5752,-0.5752,-0.5491,-0.5428,-0.5428,-0.5428,-0.5428,-0.5428,-0.562,-0.6531,-0.8027,-0.8221,-0.9134,-1.0624,-1.0624,-1.0624,-1.0624,-1.1226,-1.171,-1.2205,-1.3425,-1.4145,-1.4569,-1.5167,-1.541,-1.541,0.0,0.0,0.0,0.0,0.0,0.0,0.0,0.0,0.0,0.0,0.0,0.0,0.422,0.4066,0.3961,0.3816,0.0,0.0,0.0,0.0,0.0,0.0,0.0,0.0,0.3661,0.361,0.361,0.361,0.361,0.364,0.3566,0.1341,0.0245,0.02,0.0063,0.0,0.0,0.0,0.0,0.0,0.0,0.0,0.0,0.0,0.0,0.0,0.0,0.0,0.0,0.0,0.0,0.0,0.0,0.0,0.0,0.0,0.0,0.0,-0.0938,-0.1163,-0.1559,-0.3032,-0.3382,-0.3577,-0.4369,-0.4543,-0.4543,-0.4543,-0.4543,-0.4587,-0.4684,-0.4833,-0.4935,-0.4942,-0.4942,-0.4989,-0.5125,-0.5276,-0.5709,-0.6506,-0.6863,-0.726,-0.7832,0.0,0.0,0.0,-0.842,-0.8285,-0.9139,-0.7572,-0.6654,-0.6654,-0.5815,-0.5428,-0.5428,-0.5428,-0.5428,-0.5428,-0.6268,-0.7111,-0.8027,-0.8877,-0.9722,-1.0624,-1.0624,-1.0624,-1.0624,-1.0624,-1.1545,-1.2948,-1.3009,-1.3965,-1.5352,-1.5352,-1.541,-1.541,0.0,0.0,0.0,0.0,0.0,0.0,0.0,0.0,0.0,0.0,0.0,0.0,0.0,0.406,0.3958,0.3805,0.3659,0.0,0.0,0.0,0.0,0.0,0.0,0.0,0.3611,0.3608,0.3608,0.3608,0.3608,0.382,0.4142,0.1319,0.0,0.0,0.0,0.0,0.0,0.0,0.0,0.0,0.0,0.0,0.0,0.0,0.0,0.0,0.0,0.0,0.0,0.0,0.0,0.0,0.0,0.0,0.0,0.0,0.0,-0.0169,-0.0899,-0.1086,-0.134,-0.2358,-0.2997,-0.3452,-0.3666,-0.4117,-0.4519,-0.4519,-0.4519,-0.4536,-0.4591,-0.467,-0.4806,-0.4904,-0.4918,-0.4969,-0.5111,-0.5131,-0.5382,-0.5796,-0.5951,-0.6342,0.0,0.0,0.0,0.0,0.0,-0.7996,-0.8708,-0.7593,-0.6983,-0.6983,-0.6187,-0.5571,-0.5077,-0.5077,-0.5325,-0.5817,-0.6125,-0.6979,-0.8265,-0.8575,-0.9192,-1.0,-1.0,-1.0214,-1.0624,-1.117,-1.202,-1.307,-1.3554,-1.4451,-1.541,-1.541,-1.541,-1.541,0.0,0.0,0.0,0.0,0.0,0.0,0.0,0.0,0.4251,0.4204,0.0,0.0,0.0,0.0,0.4016,0.3809,0.3659,0.3581,0.3581,0.3581,0.0,0.0,0.0,0.0,0.3581,0.3581,0.3581,0.3581,0.3581,0.3592,0.3557,0.1423,0.0274,0.0,0.0,0.0,0.0,0.0,0.0,0.0,0.0,0.0,0.0,0.0,0.0,0.0,0.0,0.0,0.0,0.0,0.0,0.0,0.0,0.0,0.0,0.0,0.0,-0.0123,-0.0604,-0.0729,-0.0921,-0.1652,-0.2221,-0.2733,-0.3207,-0.3749,-0.4178,-0.445,-0.4519,-0.4519,-0.4519,-0.4601,-0.4646,-0.4748,-0.4765,-0.4816,-0.4962,-0.4982,-0.5161,-0.5634,-0.5656,0.0,0.0,0.0,0.0,0.0,0.0,0.0,-0.8786,-0.8005,-0.7418,-0.7121,-0.6648,-0.6113,-0.5634,-0.5634,-0.5872,-0.6349,-0.6644,-0.7354,-0.8416,-0.8715,-0.9143,-0.9686,-0.9686,-0.996,-1.047,-1.1008,-1.192,-1.307,-1.3614,-1.4451,-1.541,-1.541,-1.541,-1.541,0.0,0.0,0.0,0.0,0.0,0.0,0.0,0.0,0.4406,0.4214,0.0,0.0,0.0,0.0,0.0,0.3819,0.3666,0.3585,0.3581,0.3581,0.0,0.0,0.0,0.0,0.3581,0.3581,0.3581,0.3581,0.3622,0.2992,0.1858,0.1405,0.0809,0.0056,0.0,0.0,0.0,0.0,0.0,0.0,0.0,0.0,0.0,0.0,0.0,0.0,0.0,0.0,0.0,0.0,0.0,0.0,0.0,0.0,0.0,0.0,0.0,0.0,0.0,0.0,0.0,-0.0883,-0.1091,-0.1469,-0.2981,-0.3299,-0.347,-0.4313,-0.4453,-0.4457,-0.4519,-0.4519,-0.4519,-0.4519,-0.4519,-0.457,-0.467,-0.4691,-0.5093,-0.6023,-0.616,0.0,0.0,0.0,0.0,0.0,-0.9666,-0.9666,-0.9659,-0.8872,-0.8041,-0.7161,-0.7106,-0.7101,-0.7106,-0.7106,-0.7101,-0.7101,-0.7982,-0.8393,-0.8451,-0.9298,-0.9659,-0.9659,-0.9659,-0.982,-1.0094,-1.01,-1.1224,-1.2976,-1.2984,-1.4016,-1.5391,-1.541,-1.541,-1.541,0.0,0.0,0.0,0.0,0.0,0.4412,0.4217,0.4231,0.4241,0.0,0.0,0.0,0.4307,0.412,0.4005,0.3809,0.3754,0.369,0.3588,0.3581,0.3581,0.3581,0.3581,0.3581,0.3581,0.3581,0.3581,0.3581,0.3619,0.3431,0.308,0.18,0.1099,0.0829,0.0257,0.0,0.0,0.0,0.0,0.0,0.0,0.0,0.0,0.0,0.0,0.0,0.0,0.0,0.0,0.0,0.0,0.0,0.0,0.0,0.0,0.0,0.0,0.0,0.0,0.0,0.0,0.0,0.0,0.0,0.0,0.0,-0.2731,-0.3467,-0.3652,-0.3842,-0.4385,-0.4519,-0.4519,-0.4519,-0.4519,-0.457,-0.467,-0.4691,-0.4862,-0.5196,0.0,0.0,0.0,0.0,0.0,0.0,-0.862,-0.8757,-0.9058,-0.8821,-0.8324,-0.7544,-0.7544,-0.7268,-0.6769,-0.6713,-0.6991,-0.7544,-0.7764,-0.8154,-0.8712,-0.8936,-0.9051,-0.9051,-0.9051,-0.948,-1.027,-1.0437,-1.1211,-1.229,-1.3096,-1.4087,-1.5,-1.5293,-1.541,-1.541,0.0,0.0,0.0,0.4519,0.4519,0.4412,0.4217,0.4244,0.4317,0.0,0.0,0.0,0.4338,0.4206,0.403,0.3988,0.3866,0.3754,0.3673,0.3612,0.3581,0.3581,0.3581,0.3581,0.3581,0.3581,0.3581,0.3581,0.3581,0.3484,0.3187,0.1987,0.1312,0.1054,0.0331,0.0,0.0,0.0,0.0,0.0,0.0,0.0,0.0,0.0,0.0,0.0,0.0,0.0,0.0,0.0,0.0,0.0,0.0,0.0,0.0,0.0,0.0,0.0,0.0,0.0,0.0,0.0,0.0,0.0,-0.1357,-0.1829,-0.2383,0.0,-0.3625,-0.3822,-0.4291,-0.4372,-0.4392,-0.4508,-0.4519,-0.4549,-0.4582,-0.4596,-0.4629,-0.4718,0.0,0.0,0.0,-0.5925,-0.6335,-0.7456,-0.7561,-0.7663,-0.7895,-0.8156,-0.8156,-0.7723,-0.7996,-0.7937,-0.7509,-0.7509,-0.7723,-0.8156,-0.8156,-0.8374,-0.8804,-0.8804,-0.8804,-0.8804,-0.8804,-0.9316,-1.012,-1.057,-1.1357,-1.2372,-1.3061,-1.3784,-1.4541,-1.4785,-1.4883,-1.4883,0.0,0.0,0.4519,0.4519,0.4519,0.4419,0.4237,0.4379,0.4416,0.0,0.4385,0.4519,0.4519,0.4348,0.4214,0.4197,0.3982,0.3809,0.3792,0.3659,0.3581,0.3581,0.3581,0.3581,0.3581,0.3581,0.3581,0.3581,0.3581,0.3306,0.2807,0.2184,0.1558,0.0975,0.0385,0.0044,0.0,0.0,0.0,0.0,0.0,0.0,0.0,0.0,0.0,0.0,0.0,0.0,0.0,0.0,0.0,0.0,0.0,0.0,0.0,0.0,0.0,0.0,0.0,0.0,0.0,0.0,0.0,0.0,-0.1501,-0.1791,-0.2158,0.0,-0.3695,-0.3739,-0.4036,-0.4066,-0.4158,-0.4392,-0.4481,-0.4498,-0.4515,-0.4519,-0.4519,-0.4519,0.0,0.0,-0.5324,-0.5378,-0.571,-0.6534,-0.675,-0.6804,-0.675,-0.7343,-0.767,-0.7563,-0.8321,-0.8699,-0.8699,-0.8752,-0.8804,-0.8804,-0.8804,-0.8804,-0.8804,-0.8804,-0.8804,-0.8804,-0.8804,-0.9211,-0.9961,-1.0559,-1.1567,-1.2788,-1.2896,-1.3401,-1.4019,-1.4058,-1.4077,-1.4077,0.0,0.4519,0.4519,0.4519,0.4519,0.4508,0.4426,0.4498,0.4508,0.4426,0.4498,0.4519,0.4519,0.4491,0.4375,0.4207,0.403,0.3924,0.3799,0.3659,0.3581,0.3581,0.3581,0.3581,0.3581,0.3581,0.3581,0.3581,0.3581,0.3534,0.3398,0.281,0.2188,0.1609,0.101,0.0467,0.0,0.0,0.0,0.0,0.0,0.0,0.0,0.0,0.0,0.0,0.0,0.0,0.0,0.0,0.0,0.0,0.0,0.0,0.0,0.0,0.0,0.0,0.0,0.0,0.0,0.0,0.0,0.0,-0.0311,-0.0412,-0.0621,0.0,-0.1684,-0.1994,-0.3129,-0.3301,-0.3464,-0.3999,-0.4209,-0.4331,-0.4501,-0.4519,-0.4519,0.0,0.0,0.0,-0.468,-0.4677,-0.5226,-0.648,-0.7723,-0.8103,-0.7509,-0.7616,-0.745,-0.6858,-0.7509,-0.7937,-0.7937,-0.848,-0.8804,-0.8804,-0.8804,-0.8804,-0.8804,-0.8804,-0.8804,-0.8804,-0.8804,-0.9465,-1.0618,-1.0771,-1.1302,-1.2085,-1.3006,-1.3468,-1.3672,-1.3951,-1.4077,-1.4077,0.4519,0.4519,0.4519,0.4519,0.4519,0.4519,0.4519,0.4519,0.4519,0.4519,0.4519,0.4519,0.4519,0.4519,0.4433,0.4362,0.4219,0.402,0.3917,0.3768,0.3653,0.3585,0.3581,0.3581,0.3581,0.3581,0.3581,0.3581,0.3581,0.3541,0.342,0.2856,0.2289,0.1681,0.1074,0.0506,0.0,0.0,0.0,0.0,0.0,0.0,0.0,0.0,0.0,0.0,0.0,0.0,0.0,0.0,0.0,0.0,0.0,0.0,0.0,0.0,0.0,0.0,0.0,0.0,0.0,0.0,0.0,0.0,0.0,-0.0456,-0.0651,-0.1326,-0.1449,-0.169,-0.2438,-0.282,-0.3145,-0.3506,-0.3881,-0.4158,-0.4233,-0.4368,-0.4519,0.0,0.0,0.0,-0.4519,-0.4519,-0.4791,-0.55,-0.6524,-0.7004,-0.6627,-0.7283,-0.7509,-0.7182,-0.7883,-0.8262,-0.8262,-0.8593,-0.8804,-0.8804,-0.8804,-0.8804,-0.8804,-0.8804,-0.8804,-0.8804,-0.8804,-0.9562,-1.0813,-1.0813,-1.1425,-1.2421,-1.2997,-1.3193,-1.3223,-1.3437,-1.3506,-1.3506,0.4508,0.4519,0.4519,0.4519,0.4519,0.4519,0.4519,0.4519,0.4519,0.4519,0.4519,0.4519,0.4519,0.4519,0.4529,0.456,0.4348,0.4157,0.4111,0.3907,0.3751,0.367,0.3609,0.3592,0.3622,0.3595,0.3581,0.3581,0.3551,0.3473,0.3306,0.2849,0.2336,0.1736,0.1152,0.0642,0.0188,0.0044,0.0,0.0,0.0,0.0,0.0,0.0,0.0,0.0,0.0,0.0,0.0,0.0,0.0,0.0,0.0,0.0,0.0,0.0,0.0,0.0,0.0,0.0,0.0,0.0,0.0,-0.0146,0.0,0.0,0.0,-0.1355,-0.1555,0.0,0.0,0.0,0.0,0.0,0.0,0.0,0.0,-0.4189,0.0,-0.4419,0.0,0.0,0.0,-0.4597,-0.4648,-0.4677,-0.5295,-0.5666,-0.5701,-0.6848,-0.7509,-0.7509,-0.8209,-0.8593,-0.8593,-0.8752,-0.8804,-0.8804,-0.8804,-0.8804,-0.8804,-0.8804,-0.8804,-0.8811,-0.8956,-0.9666,-1.0813,-1.0965,-1.1742,-1.2881,-1.2881,-1.2881,-1.2881,-1.2881,-1.2881,-1.2881,0.4467,0.4519,0.4519,0.4519,0.4519,0.4519,0.4519,0.4519,0.4519,0.4519,0.4519,0.4519,0.4519,0.4519,0.4573,0.4653,0.4409,0.4294,0.446,0.4022,0.3843,0.3965,0.3721,0.3639,0.3765,0.3643,0.3581,0.3581,0.34,0.3326,0.3306,0.3223,0.2917,0.2389,0.1879,0.1332,0.0768,0.0233,0.0,0.0,0.0,0.0,0.0,0.0,0.0,0.0,0.0,0.0,0.0,0.0,0.0,0.0,0.0,0.0,0.0,0.0,0.0,0.0,0.0,0.0,0.0,0.0,0.0,0.0,-0.0093,0.0,-0.0141,-0.0182,0.0,0.0,0.0,0.0,0.0,0.0,0.0,0.0,-0.3629,-0.3883,-0.4121,-0.4204,0.0,0.0,0.0,-0.4927,-0.5267,-0.5366,-0.5972,-0.6378,-0.6465,-0.6642,-0.675,-0.675,-0.745,-0.783,-0.783,-0.848,-0.8804,-0.8804,-0.8804,-0.8804,-0.8804,-0.8804,-0.8804,-0.8857,-0.9413,-1.0115,-1.0864,-1.1466,-1.2187,-1.2881,-1.2881,-1.2881,-1.2881,-1.2881,-1.2881,-1.2881,0.4182,0.4277,0.4311,0.4222,0.4348,0.4433,0.4351,0.4484,0.4562,0.4529,0.4594,0.4596,0.4596,0.4596,0.4619,0.4684,0.4579,0.4457,0.4345,0.4161,0.4046,0.4022,0.3816,0.3731,0.3788,0.3653,0.3581,0.3581,0.3514,0.3392,0.3179,0.3266,0.2941,0.2326,0.1868,0.1377,0.0866,0.0245,0.0,0.0,0.0,0.0,0.0,0.0,0.0,0.0,0.0,0.0,0.0,0.0,0.0,0.0,0.0,0.0,0.0,0.0,0.0,0.0,0.0,0.0,0.0,0.0,0.0,0.0,0.0,0.0,-0.0092,0.0,0.0,0.0,0.0,0.0,0.0,0.0,-0.3242,0.0,0.0,0.0,-0.3653,0.0,0.0,0.0,0.0,0.0,0.0,0.0,-0.543,-0.5825,-0.5968,-0.6799,-0.7235,-0.7235,-0.7937,-0.8321,-0.8321,-0.8646,-0.8804,-0.8804,-0.8804,-0.8804,-0.8804,-0.8804,-0.8804,-0.8857,-0.9517,-1.0167,-1.0864,-1.1516,-1.2236,-1.2881,-1.2881,-1.2881,-1.2881,-1.2881,-1.2881,-1.2881,0.3958,0.403,0.4113,0.4043,0.426,0.4382,0.4317,0.449,0.4589,0.4532,0.4558,0.4643,0.4684,0.4691,0.4721,0.4806,0.4775,0.4663,0.4391,0.4298,0.4256,0.4144,0.3958,0.3856,0.3856,0.371,0.3619,0.3581,0.3537,0.3402,0.3145,0.3256,0.3016,0.2519,0.2107,0.167,0.1109,0.0561,0.0206,0.0,0.0,0.0,0.0,0.0,0.0,0.0,0.0,0.0,0.0,0.0,0.0,0.0,0.0,0.0,0.0,0.0,0.0,0.0,0.0,0.0,0.0,0.0,0.0,0.0,0.0,0.0,0.0,0.0,0.0,0.0,0.0,0.0,-0.2982,-0.2948,0.0,-0.3398,0.0,-0.3256,0.0,0.0,0.0,0.0,0.0,0.0,0.0,0.0,0.0,-0.5071,-0.5404,-0.6648,-0.7435,-0.7664,-0.8427,-0.8804,-0.8804,-0.8804,-0.8804,-0.8804,-0.8804,-0.8804,-0.8804,-0.8804,-0.8804,-0.8857,-0.9718,-1.0364,-1.0864,-1.1724,-1.2403,-1.2881,-1.2881,-1.2881,-1.2881,-1.2881,-1.2881,-1.2929,0.3799,0.3921,0.4023,0.4164,0.4197,0.4247,0.4436,0.4519,0.4522,0.4519,0.4522,0.458,0.4674,0.4691,0.4806,0.5091,0.4992,0.4908,0.4897,0.4619,0.4508,0.4505,0.4168,0.4012,0.4012,0.3863,0.3717,0.3581,0.3386,0.3309,0.3299,0.3306,0.3309,0.3326,0.3,0.2457,0.1764,0.1253,0.0649,0.0,0.0,0.0,0.0,0.0,0.0,0.0,0.0,0.0,0.0,0.0,0.0,0.0,0.0,0.0,0.0,0.0,0.0,0.0,0.0,0.0,0.0,0.0,0.0,0.0,0.0,0.0,-0.0191,0.0,0.0,0.0,0.0,-0.345,-0.3741,-0.3602,-0.3575,0.0,0.0,0.0,0.0,0.0,0.0,0.0,0.0,0.0,0.0,0.0,0.0,0.0,-0.5267,-0.6005,-0.6832,-0.7664,-0.8427,-0.8804,-0.8804,-0.8804,-0.8804,-0.8804,-0.8804,-0.8804,-0.8804,-0.8804,-0.8804,-0.8857,-1.0218,-1.0762,-1.0914,-1.2304,-1.2881,-1.2881,-1.2881,-1.2881,-1.2881,-1.2881,-1.2881,-1.2968,0.3941,0.3985,0.4005,0.3955,0.4063,0.4244,0.4494,0.4548,0.4613,0.4613,0.4701,0.4819,0.4965,0.4982,0.502,0.5121,0.5087,0.502,0.4925,0.4728,0.466,0.4762,0.4382,0.4216,0.4311,0.407,0.387,0.3721,0.3666,0.3497,0.3309,0.3453,0.3449,0.3371,0.253,0.201,0.1717,0.0805,0.0219,0.0,0.0,0.0,0.0,0.0,0.0,0.0,0.0,0.0,0.0,0.0,0.0,0.0,0.0,0.0,0.0,0.0,0.0,0.0,0.0,0.0,0.0,0.0,0.0,0.0,0.0,0.0,0.0,0.0,0.0,0.0,0.0,-0.3827,-0.3894,-0.3744,-0.3643,-0.349,0.0,0.0,0.0,0.0,0.0,0.0,0.0,0.0,0.0,0.0,-0.3822,0.0,0.0,-0.5737,-0.6566,-0.6956,-0.8156,-0.8804,-0.8804,-0.8804,-0.8804,-0.8804,-0.8804,-0.8804,-0.8804,-0.8804,-0.8804,-0.8857,-1.0218,-1.0813,-1.0914,-1.2314,-1.2881,-1.2881,-1.2881,-1.2881,-1.2881,-1.2881,-1.2881,-1.3065,0.405,0.405,0.402,0.3972,0.4158,0.4355,0.4501,0.4592,0.4691,0.4691,0.4823,0.4972,0.5114,0.5131,0.5152,0.5209,0.5213,0.5128,0.4931,0.4874,0.4843,0.484,0.4558,0.4423,0.4519,0.4226,0.3999,0.3792,0.3792,0.3666,0.339,0.3534,0.3571,0.3449,0.2833,0.2311,0.1769,0.1086,0.0497,0.0,0.0,0.0,0.0,0.0,0.0,0.0,0.0,0.0,0.0,0.0,0.0,0.0,0.0,0.0,0.0,0.0,0.0,0.0,0.0,0.0,0.0,0.0,0.0,0.0,0.0,0.0,-0.0893,0.0,0.0,0.0,0.0,-0.3773,-0.3949,-0.3556,-0.3608,-0.3531,0.0,-0.2998,0.0,0.0,0.0,-0.3497,0.0,-0.3581,-0.3743,-0.3978,-0.3753,0.0,0.0,0.0,-0.6391,-0.6516,-0.8,-0.8804,-0.8804,-0.8804,-0.8804,-0.8804,-0.8804,-0.8804,-0.8804,-0.8804,-0.8804,-0.8857,-1.0218,-1.0813,-1.0914,-1.2314,-1.2881,-1.2881,-1.2881,-1.2881,-1.2881,-1.2881,-1.3152,-1.3705,0.4207,0.4207,0.4207,0.4207,0.4365,0.4508,0.4515,0.4592,0.4694,0.4701,0.4833,0.4986,0.5128,0.5142,0.5203,0.5415,0.5428,0.524,0.4958,0.506,0.5006,0.4724,0.4697,0.4623,0.4532,0.4331,0.4063,0.3816,0.3809,0.3731,0.3592,0.3585,0.3581,0.3592,0.3832,0.316,0.1869,0.2057,0.1282,0.0,0.0,0.0,0.0,0.0,0.0,0.0,0.0,0.0,0.0,0.0,0.0,0.0,0.0,0.0,0.0,0.0,0.0,0.0,0.0,0.0,0.0,0.0,0.0,0.0,0.0,0.0,-0.0266,0.0,0.0,0.0,0.0,0.0,-0.388,-0.3076,-0.3387,-0.3619,-0.3191,-0.3008,-0.2924,0.0,0.0,-0.3303,-0.3286,-0.3299,-0.3608,-0.4306,-0.3714,-0.3734,0.0,0.0,-0.6253,-0.6452,-0.7955,-0.8752,-0.8804,-0.8804,-0.8804,-0.8804,-0.8804,-0.8804,-0.8804,-0.8804,-0.8804,-0.891,-1.021,-1.0813,-1.0965,-1.2304,-1.2881,-1.2881,-1.2881,-1.2881,-1.2881,-1.292,-1.3658,-1.4744,0.4406,0.4406,0.4406,0.4406,0.4351,0.4338,0.4501,0.4592,0.4731,0.4847,0.4986,0.5135,0.5284,0.5304,0.5318,0.5425,0.5428,0.5394,0.5254,0.5176,0.5098,0.502,0.4806,0.4674,0.4633,0.4484,0.4317,0.408,0.4016,0.3883,0.3734,0.3629,0.3581,0.3588,0.3202,0.2886,0.257,0.1638,0.0766,0.0,0.0,0.0,0.0,0.0,0.0,0.0,0.0,0.0,0.0,0.0,0.0,0.0,0.0,0.0,0.0,0.0,0.0,0.0,0.0,0.0,0.0,0.0,0.0,0.0,0.0,0.0,0.0,0.0,0.0,0.0,0.0,0.0,-0.3433,-0.3553,-0.3494,-0.338,-0.3266,-0.3122,-0.3068,-0.3182,0.0,0.0,-0.3005,-0.3182,-0.3518,-0.4073,-0.3589,0.0,0.0,0.0,0.0,-0.7019,-0.7641,-0.8262,-0.8804,-0.8804,-0.8804,-0.8804,-0.8804,-0.8804,-0.8804,-0.8804,-0.9061,-0.9614,-1.0415,-1.1065,-1.1616,-1.251,-1.2881,-1.2881,-1.2881,-1.2881,-1.2978,-1.342,-1.3779,-1.419,0.4519,0.4573,0.4541,0.4529,0.4507,0.4548,0.4562,0.4633,0.4745,0.4901,0.5043,0.5165,0.525,0.5321,0.5428,0.5428,0.5428,0.5332,0.5267,0.5243,0.5203,0.5135,0.4911,0.4792,0.4792,0.4575,0.4392,0.4197,0.4043,0.3941,0.3788,0.3646,0.3581,0.3585,0.3309,0.3099,0.2823,0.1861,0.1264,0.0951,0.0615,0.0504,0.0,0.0112,0.0,0.0,0.0,0.0,0.0,0.0,0.0,0.0,0.0,0.0,0.0,0.0,0.0,0.0,0.0,0.0,0.0,0.0,0.0,0.0,0.0,-0.0326,-0.0598,0.0,0.0,0.0,0.0,0.0,0.0,-0.3652,-0.35,-0.3306,-0.3306,-0.3179,-0.3112,-0.3199,-0.3209,0.0,0.0,-0.341,-0.3769,-0.3974,-0.3822,0.0,0.0,0.0,0.0,-0.6941,-0.767,-0.819,-0.8617,-0.8744,-0.8804,-0.8804,-0.8804,-0.8804,-0.8804,-0.8804,-0.9159,-0.9814,-1.0517,-1.1166,-1.1864,-1.2608,-1.2881,-1.2881,-1.2881,-1.2881,-1.3017,-1.3873,-1.419,-1.4376,0.4519,0.4585,0.4643,0.4543,0.4701,0.485,0.4738,0.4735,0.4796,0.4928,0.5074,0.5162,0.5162,0.5281,0.5428,0.5428,0.5428,0.5304,0.5169,0.5287,0.5291,0.5138,0.5013,0.4928,0.4891,0.4629,0.4412,0.4197,0.4043,0.3941,0.3788,0.3646,0.3581,0.3585,0.3707,0.3471,0.2876,0.2481,0.2279,0.212,0.1507,0.1174,0.1006,0.0392,0.0112,0.0,0.0,0.0,0.0,0.0,0.0,0.0,0.0,0.0,0.0,0.0,0.0,0.0,0.0,0.0,0.0,0.0,0.0,0.0,0.0,0.0,0.0,0.0,-0.0504,-0.0782,0.0,0.0,0.0,-0.3559,-0.3493,-0.3373,-0.339,-0.3266,-0.3215,-0.3236,0.0,0.0,0.0,0.0,0.0,0.0,0.0,0.0,0.0,0.0,0.0,-0.6696,-0.7711,0.0,-0.8377,0.0,-0.8804,-0.8804,-0.8804,-0.8804,-0.8804,-0.8804,-0.9211,-0.9969,-1.0568,-1.1216,-1.1972,-1.2618,-1.2881,-1.2881,-1.2881,-1.2978,-1.3152,-1.4294,-1.4744,-1.4971,0.4519,0.4585,0.4643,0.4543,0.4613,0.4765,0.4863,0.4979,0.5064,0.5091,0.5226,0.5321,0.5321,0.5411,0.5428,0.5428,0.5428,0.5418,0.5321,0.5348,0.5291,0.5138,0.5104,0.4979,0.4735,0.4677,0.4518,0.4197,0.4043,0.3941,0.3788,0.3646,0.3581,0.3581,0.3605,0.3342,0.2921,0.2944,0.0,0.2174,0.2063,0.1619,0.1062,0.095,0.0504,0.0,0.0,0.0,0.0,0.0,0.0,0.0,0.0,0.0,0.0,0.0,0.0,0.0,0.0,0.0,0.0,0.0,0.0,0.0,0.0,0.0,0.0,0.0,-0.0112,-0.0278,-0.0648,0.0,0.0,0.0,0.0,-0.3758,-0.3883,-0.3768,-0.3721,-0.3846,-0.3751,-0.3626,0.0,0.0,0.0,0.0,0.0,0.0,0.0,0.0,0.0,0.0,-0.7462,0.0,0.0,0.0,-0.8804,-0.8804,-0.8804,-0.8804,-0.8804,-0.8804,-0.9465,-1.061,-1.0771,-1.1534,-1.2725,-1.2832,-1.2881,-1.2881,-1.2881,-1.319,-1.3732,-1.4422,-1.5017,-1.5543,0.5266,0.5045,0.49,0.5339,0.5114,0.4945,0.0,0.5155,0.522,0.5142,0.5196,0.5243,0.5243,0.5315,0.5428,0.5428,0.5428,0.5428,0.5428,0.5428,0.5328,0.5254,0.5172,0.503,0.4813,0.4731,0.4582,0.4358,0.4131,0.3982,0.3907,0.3683,0.3581,0.3588,0.3741,0.3691,0.0,0.0,0.0,0.3345,0.2954,0.2565,0.2174,0.1396,0.0895,0.0504,0.0112,0.0,0.0,0.0,0.0,0.0,0.0,0.0,0.0,0.0,0.0,0.0,0.0,0.0,0.0,0.0,0.0,0.0,0.0,0.0,0.0,0.0,0.0,-0.0166,-0.0804,-0.1703,0.0,0.0,0.0,0.0,0.0,-0.3958,-0.3907,-0.39,-0.3836,-0.3734,0.0,0.0,0.0,0.0,0.0,0.0,0.0,0.0,0.0,0.0,0.0,0.0,0.0,0.0,0.0,-0.8804,-0.8804,-0.8804,-0.8804,-0.8804,-0.951,-1.0813,-1.0813,-1.1584,-1.2881,-1.2881,-1.2881,-1.2929,-1.3238,-1.3552,-1.3909,-1.4824,-1.5365,-1.5676,0.6466,0.5985,0.5746,0.6466,0.6096,0.5568,0.5382,0.5517,0.5577,0.5196,0.5179,0.5179,0.5179,0.5287,0.5428,0.5428,0.5428,0.5428,0.5428,0.5428,0.5428,0.5428,0.5243,0.5098,0.4921,0.4802,0.4633,0.4416,0.4182,0.4036,0.0,0.3768,0.3673,0.0,0.0,0.0,0.0,0.0,0.4433,0.446,0.3846,0.3511,0.3176,0.2009,0.1397,0.1006,0.0448,0.0112,0.0,0.0,0.0,0.0,0.0,0.0,0.0,0.0,0.0,0.0,0.0,0.0,0.0,0.0,0.0,0.0,0.0,0.0,0.0,0.0,0.0,-0.0166,-0.0804,-0.1463,0.0,0.0,0.0,0.0,0.0,-0.4039,-0.3975,-0.3856,-0.3785,-0.3704,-0.3592,0.0,0.0,0.0,0.0,0.0,-0.5688,-0.5363,0.0,0.0,0.0,-0.7862,-0.7882,0.0,-0.8804,0.0,-0.8804,-0.8804,-0.8804,-0.8804,-0.951,-1.0813,-1.0813,-1.1584,-1.2881,-1.2881,-1.2881,-1.2978,-1.342,-1.3779,-1.4097,-1.505,-1.5588,-1.5864,0.7788,0.7598,0.7531,0.0,0.0,0.7183,0.6383,0.6475,0.626,0.547,0.5342,0.5342,0.5342,0.5418,0.5428,0.5428,0.5428,0.5428,0.5428,0.5428,0.5428,0.5428,0.5415,0.5206,0.4925,0.4904,0.4691,0.0,0.0,0.4033,0.0,0.3927,0.3978,0.0,0.0,0.0,0.0,0.4204,0.4341,0.4519,0.4408,0.3959,0.3287,0.3121,0.2286,0.1118,0.1006,0.056,0.0,0.0,0.0,0.0,0.0,0.0,0.0,0.0,0.0,0.0,0.0,0.0,0.0,0.0,0.0,0.0,0.0,0.0,0.0,0.0,0.0,-0.0166,-0.0804,-0.1576,-0.2329,0.0,0.0,0.0,0.0,0.0,-0.4016,-0.3999,-0.3765,-0.3595,0.0,-0.3212,0.0,0.0,-0.4184,0.0,-0.5131,-0.5363,-0.5935,-0.6965,0.0,-0.7642,-0.7882,-0.8517,-0.8804,-0.8804,-0.8804,-0.8804,-0.8804,-0.8804,-0.951,-1.0813,-1.0813,-1.1584,-1.2881,-1.2881,-1.2881,-1.2929,-1.2968,-1.3658,-1.4606,-1.4744,-1.5466,-1.6423,0.0,0.0,0.0,0.0,0.0,0.0,0.0,0.745,0.7177,0.6268,0.5752,0.5428,0.5428,0.5428,0.5428,0.5428,0.5428,0.5428,0.5428,0.5428,0.5428,0.5428,0.5428,0.5223,0.4925,0.4918,0.4741,0.0,0.0,0.0,0.0,0.0,0.0,0.0,0.0,0.4137,0.42,0.4341,0.4409,0.4519,0.4519,0.4294,0.3956,0.3511,0.2954,0.2286,0.1396,0.0895,0.0616,0.0168,0.0,0.0,0.0,0.0,0.0,0.0,0.0,0.0,0.0,0.0,0.0,0.0,0.0,0.0,0.0,0.0,0.0,0.0,0.0,-0.0056,-0.033,-0.1308,-0.2162,0.0,0.0,0.0,0.0,0.0,-0.4073,-0.4029,-0.3836,-0.3673,-0.3588,0.0,0.0,0.0,0.0,0.0,0.0,0.0,0.0,-0.6747,0.0,-0.7574,-0.7649,-0.825,-0.855,-0.855,-0.8724,-0.8804,-0.8804,-0.8804,-0.951,-1.0864,-1.1692,-1.2363,-1.2881,-1.2881,-1.2881,-1.2929,-1.3286,-1.3742,-1.4236,-1.496,-1.5555,-1.6008,1.0481,0.0,0.9248,0.0,0.9256,0.8532,0.8393,0.8355,0.8091,0.7177,0.6531,0.5951,0.5425,0.5428,0.5428,0.5428,0.5428,0.5428,0.5428,0.5428,0.5428,0.5428,0.5428,0.0,0.4925,0.4918,0.4769,0.4519,0.4362,0.0,0.0,0.0,0.0,0.0,0.4263,0.4311,0.4317,0.4419,0.4519,0.4519,0.4519,0.4519,0.4463,0.3846,0.3511,0.3176,0.212,0.1619,0.1284,0.056,0.0336,0.028,0.0056,0.0,0.0,0.0,0.0,0.0,0.0,0.0,0.0,0.0,0.0,0.0,0.0,0.0,0.0,0.0,0.0,0.0,0.0,-0.1152,-0.2057,-0.2139,0.0,0.0,0.0,-0.4273,0.0,-0.4033,-0.3809,-0.3639,-0.3585,-0.3398,0.0,0.0,0.0,0.0,0.0,0.0,0.0,0.0,0.0,0.0,0.0,-0.8203,-0.8504,-0.8504,-0.8711,-0.891,-0.9113,-0.951,-1.0218,-1.1166,-1.2363,-1.2881,-1.2881,-1.2881,-1.2881,-1.2929,-1.3372,-1.3637,-1.3909,-1.496,-1.5454,-1.5676,1.1804,1.139,1.1082,1.1301,1.0942,1.0301,0.9402,0.9274,0.8947,0.8091,0.7962,0.7316,0.5557,0.5428,0.5428,0.5428,0.5428,0.5428,0.5428,0.5428,0.5428,0.0,0.0,0.5223,0.4925,0.4918,0.4769,0.4519,0.0,0.0,0.4197,0.0,0.4321,0.4512,0.4515,0.4515,0.4515,0.4519,0.4519,0.4519,0.4519,0.4519,0.4519,0.4463,0.4012,0.3287,0.3345,0.2843,0.2063,0.134,0.1062,0.095,0.0224,0.0,0.0,0.0,0.0,0.0,0.0,0.0,0.0,0.0,0.0,0.0,0.0,0.0,0.0,0.0,0.0,0.0,0.0,-0.1228,-0.2151,-0.2031,0.0,0.0,0.0,-0.4066,0.0,-0.4019,-0.3581,-0.337,-0.3565,-0.3303,0.0,0.0,0.0,0.0,0.0,0.0,0.0,-0.6994,-0.7308,0.0,-0.7875,-0.851,-0.8804,-0.8804,-0.8804,-0.9159,-0.9814,-1.1166,-1.1765,-1.1814,-1.2559,-1.2881,-1.2881,-1.2881,-1.2881,-1.2881,-1.2929,-1.3286,-1.3862,-1.4468,-1.5107,-1.5676,1.2144,1.169,1.1316,1.141,1.0949,1.0498,1.0238,1.0174,0.9849,0.9005,0.8877,0.842,0.7312,0.6662,0.6075,0.0,0.5428,0.5428,0.0,0.5428,0.5428,0.5428,0.5428,0.5223,0.4925,0.4918,0.4769,0.4519,0.0,0.0,0.0,0.4395,0.4419,0.4519,0.4519,0.4519,0.4519,0.4519,0.4519,0.4519,0.4519,0.4519,0.4519,0.4519,0.4349,0.407,0.3566,0.3231,0.2899,0.212,0.1507,0.1062,0.0839,0.0392,0.0,0.0,0.0,0.0,0.0,0.0,0.0,0.0,0.0,0.0,0.0,0.0,0.0,0.0,0.0,0.0,0.0,-0.0783,-0.1614,-0.2036,-0.2989,0.0,-0.4161,0.0,-0.3982,-0.3877,-0.3737,-0.3632,0.0,-0.3578,0.0,0.0,0.0,0.0,0.0,0.0,0.0,0.0,-0.7251,0.0,-0.7615,-0.821,-0.851,-0.8517,-0.8711,-0.9159,-0.9865,-1.1166,-1.1814,-1.1814,-1.2559,-1.2881,-1.2881,-1.2881,-1.2881,-1.2881,-1.2881,-1.3286,-1.3862,-1.4468,-1.5096,-1.5676,1.1997,1.159,1.1263,1.1263,1.0875,1.0624,1.0624,1.0624,1.0428,0.9849,0.9786,0.946,0.8613,0.8027,0.0,0.647,0.6079,0.5881,0.5881,0.5554,0.5428,0.5428,0.5428,0.5247,0.5003,0.4999,0.0,0.4633,0.4575,0.4573,0.4519,0.4519,0.4519,0.4519,0.4519,0.4519,0.4519,0.4519,0.4519,0.4519,0.4519,0.4519,0.4519,0.4519,0.4519,0.4463,0.3959,0.379,0.368,0.2899,0.212,0.1452,0.1174,0.0616,0.0,0.0,0.0,0.0,0.0,0.0,0.0,0.0,0.0,0.0,0.0,0.0,0.0,0.0,0.0,0.0,0.0,-0.0838,-0.1675,-0.212,-0.3065,-0.386,-0.4161,0.0,-0.3965,0.0,0.0,0.0,0.0,-0.3792,-0.4106,0.0,0.0,0.0,0.0,0.0,0.0,-0.6914,-0.7388,0.0,-0.7856,-0.8297,-0.8537,-0.8544,-0.8971,-0.9413,-0.9865,-1.1166,-1.1814,-1.1814,-1.2559,-1.2881,-1.2881,-1.2881,-1.2881,-1.2881,-1.2881,-1.3286,-1.3862,-1.4468,-1.5096,-1.5676,1.1483,1.1189,1.0995,0.0,1.0755,0.0,1.0624,1.0624,1.0624,1.0624,1.0624,1.0301,0.9466,0.9402,0.9075,0.8221,0.0,0.0,0.0,0.5943,0.5491,0.5428,0.5428,0.5287,0.5135,0.5131,0.5057,0.4904,0.4762,0.4613,0.4519,0.4519,0.4519,0.4519,0.4529,0.4529,0.4519,0.4529,0.4529,0.4519,0.4519,0.4519,0.4519,0.4519,0.4519,0.4519,0.4519,0.4519,0.4405,0.3622,0.2899,0.2174,0.1396,0.0671,0.0056,0.0,0.0,0.0,0.0,0.0,0.0,0.0,0.0,0.0,0.0,0.0,0.0,0.0,0.0,0.0,-0.0056,-0.1174,-0.2174,-0.2286,-0.345,-0.4341,-0.42,0.0,-0.3951,0.0,0.0,0.0,0.0,-0.3955,-0.4097,0.0,0.0,0.0,0.0,0.0,-0.6927,-0.7493,-0.7789,-0.8096,-0.842,-0.8664,-0.8804,-0.8811,-0.9465,-0.9814,-0.9865,-1.1166,-1.1814,-1.1814,-1.2559,-1.2881,-1.2881,-1.2881,-1.2881,-1.2881,-1.2881,-1.3286,-1.3862,-1.4468,-1.5096,-1.5676,0.0,0.0,1.0995,1.0995,1.0755,1.0624,1.0624,1.0624,1.0624,1.0624,1.0624,1.0491,1.0301,1.0301,1.0231,0.997,0.8608,0.7437,0.6719,0.6527,0.6075,0.5428,0.5428,0.5287,0.5135,0.5131,0.5003,0.4745,0.4707,0.4613,0.4519,0.4519,0.4519,0.4522,0.4585,0.4572,0.4525,0.4585,0.4568,0.4519,0.4519,0.4519,0.4519,0.4519,0.4519,0.4519,0.4519,0.4519,0.446,0.4294,0.368,0.2899,0.2174,0.1452,0.0727,0.0168,0.0,0.0,0.0,0.0,0.0,0.0,0.0,0.0,0.0,0.0,0.0,0.0,0.0,-0.0168,-0.0727,-0.1118,-0.173,-0.2899,-0.3276,-0.3553,-0.3992,-0.3941,0.0,0.0,-0.3894,-0.3965,-0.3965,-0.4206,-0.439,0.0,0.0,0.0,0.0,-0.7013,-0.7569,-0.7513,-0.7989,-0.8303,-0.8377,-0.8664,-0.8804,-0.8811,-0.9465,-0.9814,-0.9865,-1.1166,-1.1814,-1.1814,-1.2559,-1.2881,-1.2881,-1.2881,-1.2881,-1.2881,-1.2881,-1.3286,-1.3862,-1.4468,-1.5096,-1.5676,1.1056,1.0902,1.0795,1.0795,1.0732,1.0624,1.0624,1.0624,1.0624,1.0624,1.0624,1.0624,1.0624,1.0624,1.0624,1.0624,0.939,0.842,0.7897,0.7111,0.6461,0.6009,0.562,0.5321,0.5237,0.5237,0.5121,0.4891,0.4826,0.4752,0.467,0.4599,0.4565,0.4572,0.4728,0.4711,0.4575,0.4728,0.4748,0.467,0.467,0.4629,0.4565,0.4565,0.458,0.4519,0.4519,0.4519,0.4519,0.4519,0.3956,0.3231,0.2843,0.2232,0.1507,0.1118,0.0504,0.0,0.0,0.0,0.0,0.0,0.0,0.0,0.0,0.0,0.0,0.0,0.0,-0.0112,-0.0504,-0.1174,-0.1832,-0.2625,-0.332,-0.3767,-0.3906,-0.3904,0.0,-0.3799,-0.3927,-0.4046,-0.4066,-0.4328,-0.4469,-0.4423,-0.5204,0.0,-0.6054,-0.7068,-0.7647,-0.7689,-0.813,-0.8437,-0.8571,-0.8731,-0.8804,-0.8804,-0.9159,-0.951,-0.9814,-1.0864,-1.1516,-1.1814,-1.2559,-1.2881,-1.2881,-1.2881,-1.2881,-1.2881,-1.2881,-1.343,-1.4236,-1.456,-1.5242,-1.6051,1.0739,1.0651,1.0624,1.0624,1.0624,1.0624,1.0624,1.0624,1.0624,1.0624,1.0624,1.0624,1.0624,1.0624,1.0624,1.0624,0.9913,0.9466,0.9338,0.7897,0.7046,0.6915,0.6207,0.5818,0.5818,0.5818,0.5672,0.5505,0.5253,0.5121,0.5093,0.4845,0.4724,0.4731,0.4884,0.4867,0.4735,0.4887,0.4938,0.4918,0.4918,0.4843,0.4724,0.4724,0.4646,0.4584,0.456,0.4553,0.4549,0.4525,0.407,0.3456,0.34,0.2899,0.2343,0.2232,0.1229,0.0168,0.0168,0.0112,0.0,0.0,0.0,0.0,0.0,0.0,0.0,0.0,0.0,-0.0056,-0.0168,-0.1174,-0.2043,-0.2136,-0.3369,-0.4171,-0.3849,0.0,-0.3972,-0.3839,-0.3961,-0.4063,-0.4214,-0.4392,-0.4519,-0.4519,-0.4923,-0.5397,-0.5986,-0.6854,-0.7484,-0.7811,-0.8234,-0.8557,-0.8804,-0.8804,-0.8804,-0.8804,-0.891,-0.9263,-0.9814,-1.0618,-1.1266,-1.1814,-1.2559,-1.2881,-1.2881,-1.2881,-1.2881,-1.2929,-1.3017,-1.3658,-1.4606,-1.4789,-1.5466,-1.638,1.0935,1.0728,1.0624,1.0624,1.0624,1.0624,1.0624,1.0624,1.0624,1.0624,1.0624,1.0624,1.0624,1.0624,1.0624,1.0624,1.0498,1.011,0.9338,0.9075,0.8549,0.7832,0.7637,0.7572,0.7572,0.7572,0.7526,0.7307,0.6541,0.6137,0.5984,0.525,0.4884,0.4891,0.5033,0.5016,0.4894,0.5036,0.503,0.4918,0.4918,0.4904,0.4884,0.4884,0.4867,0.483,0.4701,0.4657,0.4636,0.4563,0.4405,0.4184,0.3566,0.3289,0.301,0.2397,0.1619,0.0951,0.0951,0.0448,0.0,0.0,0.0,0.0,0.0,0.0,0.0,0.0,0.0,-0.0168,-0.0839,-0.1118,-0.1657,-0.2775,-0.3146,-0.3436,-0.3741,0.0,-0.4012,-0.3985,-0.407,-0.427,-0.4412,-0.4505,-0.4519,-0.4519,-0.5085,-0.5374,-0.5276,-0.6797,-0.7547,-0.7389,-0.8268,-0.8758,-0.8804,-0.8804,-0.8804,-0.8811,-0.9361,-0.971,-0.9865,-1.1065,-1.1715,-1.1814,-1.2559,-1.2881,-1.2881,-1.2881,-1.2881,-1.2978,-1.3457,-1.3779,-1.405,-1.5084,-1.5588,-1.582,1.0788,1.0648,1.0624,1.0624,1.0624,1.0624,1.0624,1.0624,1.0624,1.0624,1.0624,1.0624,1.0624,1.0624,1.0624,1.0624,1.0624,1.0428,1.0047,0.953,0.9139,0.8742,0.8221,0.8027,0.8027,0.8027,0.797,0.7863,0.7366,0.6885,0.6459,0.5934,0.5465,0.504,0.5189,0.5172,0.5043,0.5192,0.5216,0.5159,0.5159,0.5108,0.5033,0.5033,0.4986,0.4901,0.4745,0.4691,0.4667,0.457,0.4519,0.4463,0.4125,0.3959,0.3901,0.3566,0.2343,0.1006,0.0615,0.028,0.0,0.0,0.0,0.0,0.0,0.0,0.0,0.0,0.0,-0.0112,-0.0448,-0.0838,-0.1436,-0.2349,-0.2911,0.0,0.0,-0.4046,-0.409,-0.409,-0.4153,-0.4304,-0.4501,-0.4519,-0.4519,-0.4519,-0.4787,-0.5074,-0.5313,-0.6469,-0.7239,-0.7501,-0.8357,-0.8804,-0.8804,-0.8804,-0.8804,-0.8811,-0.9465,-0.9969,-1.0364,-1.1366,-1.203,-1.2403,-1.2764,-1.2881,-1.2881,-1.2881,-1.2881,-1.2968,-1.3552,-1.4003,-1.4376,-1.5264,-1.582,-1.6139,1.096,1.0819,1.0681,1.0755,1.0762,1.0762,1.0762,1.0762,1.0735,1.0668,1.0722,1.0735,1.0668,1.0661,1.0661,1.0661,1.0665,1.0624,1.0624,0.9977,0.9594,0.9594,0.8935,0.8608,0.8608,0.8608,0.8608,0.8608,0.8228,0.7785,0.7302,0.6962,0.6324,0.5503,0.5629,0.5487,0.5192,0.557,0.5557,0.5428,0.562,0.548,0.5182,0.5182,0.5118,0.5003,0.4847,0.4772,0.4721,0.4568,0.4546,0.4519,0.4519,0.4519,0.4519,0.4519,0.3121,0.1452,0.0504,0.028,0.028,0.028,0.0112,0.0056,0.0224,0.0112,0.0,0.0,0.0,0.0,0.0,-0.0448,-0.1106,-0.187,0.0,0.0,0.0,-0.4178,-0.4234,-0.42,-0.4224,-0.4341,-0.4508,-0.4519,-0.4519,-0.4519,-0.4625,-0.4948,-0.5487,-0.6362,-0.7182,-0.7943,-0.848,-0.8804,-0.8804,-0.8804,-0.8804,-0.8811,-0.9465,-1.0167,-1.0813,-1.1516,-1.2187,-1.2881,-1.2881,-1.2881,-1.2881,-1.2881,-1.2881,-1.2968,-1.3742,-1.4283,-1.4789,-1.5555,-1.6095,-1.6522,1.1724,1.1329,1.1049,1.1316,1.1363,1.1363,1.1363,1.1363,1.1269,1.0995,1.1196,1.1263,1.0989,1.0962,1.0962,1.0962,1.0715,1.0624,1.0624,1.0561,1.0498,1.0498,1.0428,1.0428,1.0428,1.0428,1.0428,1.0428,0.957,0.9186,0.9075,0.827,0.7414,0.6572,0.6584,0.6129,0.5411,0.6264,0.6137,0.5491,0.6268,0.6133,0.5411,0.5411,0.5404,0.5308,0.5155,0.5013,0.4877,0.4724,0.4579,0.4519,0.4519,0.4519,0.4519,0.4519,0.3901,0.2899,0.1396,0.1006,0.1006,0.1006,0.0504,0.0168,0.0838,0.0504,0.0,0.0,0.0,0.0,0.0,-0.0056,-0.0499,-0.1817,0.0,0.0,-0.3855,-0.4267,-0.4399,-0.421,-0.4365,-0.4505,-0.4515,-0.4519,-0.4519,-0.4519,-0.5058,-0.5433,-0.5487,-0.6848,-0.7937,-0.8699,-0.8752,-0.8804,-0.8804,-0.8804,-0.8804,-0.8811,-0.9465,-1.0167,-1.0813,-1.1516,-1.2187,-1.2881,-1.2881,-1.2881,-1.2881,-1.2881,-1.2881,-1.3027,-1.4201,-1.4663,-1.4835,-1.602,-1.6479,-1.6522,1.1506,1.139,1.1383,1.1189,1.1202,1.1289,1.141,1.1276,1.1182,1.1249,1.1356,1.1383,1.1276,1.1263,1.1189,1.1009,1.0895,1.0755,1.0631,1.0624,1.0624,1.0624,1.0624,1.0624,1.0624,1.0624,1.0624,1.0624,1.0301,0.9849,0.9274,0.8947,0.8355,0.7502,0.7502,0.7312,0.7055,0.7377,0.7312,0.699,0.6785,0.6527,0.6137,0.5624,0.5428,0.5342,0.5186,0.504,0.4897,0.4741,0.4589,0.4519,0.4519,0.4519,0.4519,0.4519,0.4294,0.3846,0.2788,0.2176,0.1786,0.1786,0.1563,0.134,0.1118,0.0895,0.056,0.0112,0.0,0.0,0.0,0.0,-0.0335,-0.1264,0.0,-0.2542,-0.3444,-0.4114,-0.4498,-0.4389,-0.4429,-0.4519,-0.4519,-0.4519,-0.4519,-0.4519,-0.4732,-0.5054,-0.5487,-0.6902,-0.8049,-0.8752,-0.8804,-0.8804,-0.8804,-0.8804,-0.8804,-0.8811,-0.9465,-1.0167,-1.0813,-1.1516,-1.2187,-1.2881,-1.2881,-1.2881,-1.2881,-1.2881,-1.2881,-1.2968,-1.3836,-1.4143,-1.4283,-1.5499,-1.5952,-1.6008,1.2253,1.2065,1.1964,1.1708,1.1526,1.1543,1.1683,1.1536,1.1443,1.155,1.1643,1.1663,1.1577,1.1563,1.1483,1.1283,1.1096,1.0909,1.0708,1.0672,1.0624,1.0624,1.0624,1.0624,1.0624,1.0624,1.0624,1.0624,1.0624,1.0301,0.9722,0.9722,0.9262,0.842,0.842,0.8285,0.8027,0.8285,0.8221,0.7962,0.7632,0.7372,0.6981,0.6141,0.5815,0.5727,0.5246,0.504,0.4897,0.4741,0.4589,0.4519,0.4519,0.4519,0.4519,0.4519,0.4519,0.4405,0.3904,0.3345,0.2843,0.2621,0.2397,0.212,0.1842,0.1452,0.095,0.0448,0.0168,0.0,0.0,0.0,-0.0224,-0.1006,-0.1507,-0.2174,-0.3176,-0.379,-0.4236,-0.446,-0.4519,-0.4519,-0.4519,-0.4519,-0.4519,-0.4519,-0.4677,-0.5222,-0.614,-0.7176,-0.8049,-0.8752,-0.8804,-0.8804,-0.8804,-0.8804,-0.8804,-0.8811,-0.9465,-1.0167,-1.0813,-1.1516,-1.2187,-1.2881,-1.2881,-1.2881,-1.2881,-1.2881,-1.2881,-1.2968,-1.3552,-1.3909,-1.419,-1.5219,-1.572,-1.5952,1.4279,1.3536,1.2825,1.3068,1.2676,1.2298,1.2298,1.2298,1.2191,1.1904,1.2118,1.2184,1.1904,1.187,1.187,1.187,1.1329,1.0995,1.0989,1.0722,1.0624,1.0624,1.0624,1.0624,1.0624,1.0624,1.0624,1.0624,1.0624,1.0624,1.0624,1.0624,1.011,0.9338,0.9338,0.8812,0.8091,0.8941,0.8812,0.8091,0.8941,0.8812,0.7897,0.7046,0.6719,0.6563,0.5499,0.504,0.4897,0.4745,0.4592,0.4519,0.4519,0.4519,0.4519,0.4519,0.4519,0.4519,0.4519,0.4519,0.4349,0.3566,0.2788,0.2397,0.3121,0.2174,0.1118,0.1118,0.0504,0.0,0.0,0.0,-0.0224,-0.095,-0.1118,-0.1619,-0.3065,-0.3287,-0.3566,-0.4405,-0.4519,-0.4519,-0.4519,-0.4519,-0.4519,-0.4519,-0.5109,-0.614,-0.761,-0.767,-0.8049,-0.8752,-0.8804,-0.8804,-0.8804,-0.8804,-0.8804,-0.8811,-0.9458,-1.0167,-1.0813,-1.1466,-1.2187,-1.2881,-1.2881,-1.2881,-1.2881,-1.2881,-1.2881,-1.2968,-1.3552,-1.4143,-1.4744,-1.5365,-1.5952,-1.6466,1.478,1.5078,1.5206,1.4368,1.4087,1.3738,1.3126,1.2866,1.2415,1.1639,1.1637,1.1737,1.1857,1.187,1.187,1.187,1.1516,1.1122,1.0715,1.0672,1.0624,1.0624,1.0624,1.0624,1.0624,1.0624,1.0624,1.0624,1.0624,1.0624,1.0624,1.0624,1.0428,1.0238,1.0238,1.004,0.9843,1.0104,1.004,0.9779,0.9466,0.9139,0.8812,0.7962,0.7242,0.6645,0.6335,0.5698,0.506,0.5013,0.4833,0.4606,0.4553,0.4519,0.4519,0.4519,0.4519,0.4519,0.4519,0.4519,0.446,0.4236,0.4012,0.3735,0.3398,0.2565,0.173,0.1229,0.0504,0.0,0.0,0.0,-0.0056,-0.028,-0.0783,-0.1229,-0.1675,-0.2174,-0.2788,-0.3566,-0.368,-0.3956,-0.446,-0.4519,-0.4519,-0.4519,-0.5109,-0.5706,-0.614,-0.7122,-0.7777,-0.8049,-0.8533,-0.8804,-0.8804,-0.8804,-0.8804,-0.8804,-0.9008,-0.971,-1.0813,-1.1015,-1.1742,-1.2881,-1.2881,-1.2881,-1.2881,-1.2881,-1.2881,-1.2929,-1.3113,-1.3563,-1.4143,-1.4744,-1.5332,-1.5908,1.5833,1.6034,1.6115,1.5333,1.5009,1.4694,1.4143,1.3791,1.3233,1.2282,1.2082,1.2012,1.1921,1.2322,1.2462,1.211,1.1663,1.1182,1.0665,1.0624,1.0624,1.0624,1.0624,1.0624,1.0624,1.0624,1.0624,1.0624,1.0624,1.0624,1.0624,1.0624,1.0624,1.0624,1.0624,1.0624,1.0624,1.0624,1.0624,1.0555,1.0047,0.9786,0.9722,0.8871,0.8156,0.7687,0.7274,0.6472,0.5624,0.5557,0.5404,0.5214,0.4713,0.4833,0.5042,0.4591,0.4519,0.4519,0.4519,0.4519,0.4519,0.4519,0.4519,0.4349,0.3901,0.3176,0.2452,0.1675,0.095,0.0336,0.0056,0.0,0.0,0.0,-0.0392,-0.0783,-0.1062,-0.1507,-0.2174,-0.3176,-0.3345,-0.368,-0.4408,-0.4519,-0.4519,-0.4519,-0.4897,-0.5218,-0.5483,-0.6357,-0.7122,-0.767,-0.8156,-0.848,-0.8804,-0.8804,-0.8804,-0.8804,-0.9061,-0.9614,-1.0415,-1.0965,-1.1674,-1.2501,-1.2774,-1.2881,-1.2881,-1.2881,-1.2881,-1.2881,-1.2881,-1.3286,-1.3862,-1.4468,-1.5096,-1.5676,1.729,1.6722,1.6084,1.6084,1.5705,1.5438,1.5334,1.4869,1.4287,1.3447,1.3247,1.2914,1.217,1.3078,1.3498,1.2659,1.1968,1.139,1.0826,1.0701,1.0681,1.0624,1.0624,1.0624,1.0624,1.0624,1.0624,1.0624,1.0624,1.0624,1.0624,1.0624,1.0624,1.0624,1.0624,1.0624,1.0624,1.0624,1.0624,1.0624,1.0624,1.0624,1.0498,0.9722,0.9338,0.9175,0.8169,0.7279,0.6505,0.6371,0.6306,0.6156,0.5221,0.5459,0.5825,0.4916,0.4591,0.4536,0.4522,0.4519,0.4519,0.4519,0.4519,0.4519,0.4519,0.3901,0.3121,0.2343,0.1619,0.0895,0.0112,0.0,0.0,0.0,0.0,-0.0224,-0.0895,-0.1006,-0.1507,-0.2954,-0.3231,-0.3566,-0.4294,-0.446,-0.4519,-0.4519,-0.4519,-0.4787,-0.5378,-0.5487,-0.614,-0.745,-0.7616,-0.8049,-0.8699,-0.8752,-0.8804,-0.8811,-0.9413,-0.9762,-0.9865,-1.1065,-1.1665,-1.1765,-1.2501,-1.2774,-1.2822,-1.2881,-1.2881,-1.2881,-1.2881,-1.3286,-1.3956,-1.4525,-1.5107,-1.5776,1.7803,1.7658,1.7513,1.7513,1.7444,1.7045,1.6075,1.5566,1.4876,1.368,1.3518,1.3558,1.364,1.411,1.4501,1.4569,1.3889,1.3115,1.2077,1.174,1.1288,1.0624,1.0624,1.0624,1.0624,1.0624,1.0624,1.0624,1.0624,1.0624,1.0624,1.0624,1.0624,1.0624,1.0624,1.0624,1.0624,1.0624,1.0624,1.0624,1.0624,1.0624,1.0561,1.0364,0.9919,0.9262,0.9012,0.8404,0.7599,0.7437,0.7358,0.7323,0.6997,0.6579,0.6066,0.576,0.5201,0.4616,0.4553,0.4519,0.4519,0.4519,0.4519,0.4519,0.4519,0.3901,0.3176,0.2343,0.1619,0.0895,0.0112,0.0,0.0,0.0,0.0,-0.0056,-0.0224,-0.0224,-0.056,-0.1452,-0.212,-0.2732,-0.3511,-0.4125,-0.4519,-0.4519,-0.4519,-0.457,-0.4736,-0.5218,-0.5651,-0.5973,-0.7122,-0.7777,-0.7943,-0.8533,-0.8804,-0.8804,-0.8962,-0.9309,-0.9814,-1.0115,-1.0517,-1.1065,-1.1724,-1.203,-1.208,-1.2666,-1.2881,-1.2881,-1.2881,-1.3563,-1.4514,-1.4652,-1.5377,-1.6367,1.8008,1.8008,1.8008,1.8008,1.8008,1.7716,1.6874,1.6553,1.5938,1.4679,1.459,1.4649,1.4388,1.5138,1.5566,1.5342,1.4572,1.3534,1.2198,1.2305,1.1841,1.0624,1.1358,1.1538,1.1163,1.1163,1.0989,1.0624,1.0624,1.0624,1.0624,1.0624,1.0624,1.0624,1.0624,1.0624,1.0624,1.0624,1.0624,1.0624,1.0624,1.0624,1.0624,1.0624,1.0301,0.9913,0.9913,0.9332,0.8527,0.8011,0.8101,0.8378,0.7767,0.7572,0.7345,0.6361,0.5784,0.5284,0.4723,0.4572,0.4555,0.4536,0.4519,0.4519,0.4519,0.4184,0.368,0.2899,0.2397,0.184,0.0727,0.0504,0.0392,0.0056,0.0,0.0,0.0,0.0,-0.028,-0.1006,-0.1452,-0.212,-0.3234,-0.368,-0.407,-0.446,-0.4519,-0.4519,-0.4519,-0.4842,-0.5164,-0.5487,-0.6578,-0.7343,-0.7723,-0.8427,-0.8804,-0.8804,-0.8804,-0.8956,-0.9309,-0.9666,-1.0012,-1.0364,-1.1015,-1.1516,-1.1814,-1.2236,-1.2559,-1.2929,-1.3238,-1.3742,-1.4329,-1.4915,-1.57,-1.6595,1.8008,1.8008,1.8008,1.8008,1.8008,1.7891,1.7539,1.7432,1.7041,1.5938,1.6037,1.5905,1.5231,1.6195,1.6578,1.5983,1.5077,1.3955,1.2531,1.2944,1.2581,1.1052,1.2274,1.2696,1.202,1.202,1.1593,1.0807,1.0688,1.0624,1.0624,1.0624,1.0624,1.0624,1.0624,1.0624,1.0624,1.0624,1.0624,1.0624,1.0624,1.0624,1.0624,1.0624,1.0624,1.0624,1.0624,1.011,0.9402,0.8678,0.8941,0.936,0.8493,0.8618,0.8763,0.7174,0.6449,0.6053,0.5174,0.4824,0.466,0.4587,0.4536,0.4519,0.4519,0.4519,0.4294,0.3456,0.3287,0.2843,0.1397,0.1118,0.0838,0.0112,0.0,0.0,0.0,0.0,-0.0224,-0.0838,-0.1006,-0.1675,-0.3065,-0.3234,-0.3566,-0.4236,-0.4408,-0.4519,-0.4519,-0.4519,-0.4732,-0.5328,-0.615,-0.6912,-0.7503,-0.8374,-0.8804,-0.8804,-0.8804,-0.8804,-0.8804,-0.9361,-0.971,-0.9814,-1.0517,-1.1166,-1.1814,-1.1922,-1.2344,-1.2978,-1.3467,-1.3779,-1.4097,-1.532,-1.6051,-1.6637,1.8008,1.8008,1.8008,1.8008,1.8008,1.7988,1.7939,1.7617,1.7363,1.7164,1.7203,1.7166,1.7034,1.7475,1.7745,1.7697,1.6889,1.5954,1.504,1.4399,1.3606,1.2704,1.2887,1.2948,1.2826,1.2826,1.2451,1.1648,1.0926,1.0624,1.0624,1.0624,1.0624,1.0624,1.0624,1.0624,1.0624,1.0624,1.0624,1.0624,1.0624,1.0624,1.0624,1.0624,1.0624,1.0624,1.0624,1.0491,1.0428,1.0301,1.0301,1.0421,1.0249,0.9793,0.9168,0.8775,0.7583,0.6307,0.6057,0.5369,0.4684,0.4663,0.4562,0.4519,0.4519,0.4519,0.4294,0.3456,0.3287,0.2843,0.1397,0.1118,0.0838,0.0112,0.0,0.0,0.0,0.0,-0.0056,-0.0112,-0.0727,-0.1452,-0.2286,-0.2954,-0.3345,-0.3456,-0.4125,-0.4519,-0.4519,-0.4519,-0.4519,-0.4625,-0.5932,-0.6642,-0.675,-0.8103,-0.8804,-0.8804,-0.8804,-0.8804,-0.8804,-0.891,-0.9263,-0.9814,-1.0517,-1.1166,-1.1864,-1.2501,-1.2822,-1.2929,-1.2968,-1.3658,-1.4698,-1.592,-1.6423,-1.6595,1.8008,1.8008,1.7939,1.7705,1.7852,1.7852,1.7373,1.7549,1.7646,1.7412,1.7588,1.7734,1.7734,1.79,1.791,1.7676,1.7314,1.6555,1.5223,1.5237,1.4569,1.3078,1.3846,1.4145,1.3666,1.3666,1.3485,1.3114,1.1896,1.1288,1.1288,1.08,1.0863,1.1226,1.0807,1.087,1.1226,1.08,1.0624,1.0624,1.0624,1.0624,1.0624,1.0624,1.0624,1.0624,1.0624,1.0624,1.0624,1.0624,1.0624,1.0624,1.0624,1.0364,0.9888,0.9322,0.865,0.777,0.6622,0.5961,0.5495,0.4848,0.464,0.4568,0.4536,0.4519,0.4405,0.407,0.3956,0.3622,0.2508,0.2009,0.1452,0.0727,0.028,0.0,0.0,0.0,0.0,0.0,-0.028,-0.0783,-0.1507,-0.2232,-0.2899,-0.3345,-0.407,-0.4519,-0.4519,-0.4519,-0.4519,-0.4519,-0.5878,-0.6588,-0.6588,-0.8049,-0.8804,-0.8804,-0.8804,-0.8804,-0.8804,-0.8804,-0.8956,-0.9263,-0.9961,-1.0618,-1.1316,-1.1981,-1.251,-1.292,-1.3286,-1.4143,-1.5276,-1.5776,-1.6194,-1.6595]}]]